[[{"header":{"parameterUnit":"m.s-1","parameterCategory":1,"la1":30.6,"la2":28.766,"lo1":-90.7593,"lo2":-88.6598,"dy":0.0162,"dx":0.0183,"nx":116,"ny":114,"refTime":"2024-06-27T06:00:00:Z","depth":0,"parameterNumber":2,"parameterNumberName":"U-component_of_WINDS"},"data":[0.0,0.0,0.0,0.0,0.0,0.0,0.0,0.0,0.0,0.0,0.0,0.0,0.0,0.0,0.0,0.0,0.0,0.0,0.0,0.0,0.0,0.0,0.0,0.0,0.0,0.0,0.0,0.0,0.0,0.0,0.0,0.0,0.0,0.0,0.0,0.0,0.0,0.0,0.0,0.0,0.0,0.0,0.0,0.0,0.0,0.0,0.0,0.0,0.0,0.0,0.0,0.0,0.0,0.0,0.0,0.0,0.0,0.0,0.0,0.0,0.0,0.0,0.0,0.0,0.0,0.0,0.0,0.0,0.0,0.0,0.0,0.0,0.0,0.0,0.0,0.0,0.0,0.0,0.0,0.0,0.0,0.0,0.0,0.0,0.0,0.0,0.0,0.0,0.0,0.0,0.0,0.0,0.0,0.0,0.0,0.0,0.0,0.0,0.0,0.0,0.0,0.0,0.0,0.0,0.0,0.0,0.0,0.0,0.0,0.0,0.0,0.0,0.0,0.0,0.0,0.0,0.0,0.0,0.0,0.0,0.0,0.0,0.0,0.0,0.0,0.0,0.0,0.0,0.0,0.0,0.0,0.0,0.0,0.0,0.0,0.0,0.0,0.0,0.0,0.0,0.0,0.0,0.0,0.0,0.0,0.0,0.0,0.0,0.0,0.0,0.0,0.0,0.0,0.0,0.0,0.0,0.0,0.0,0.0,0.0,0.0,0.0,0.0,0.0,0.0,0.0,0.0,0.0,0.0,0.0,0.0,0.0,0.0,0.0,0.0,0.0,0.0,0.0,0.0,0.0,0.0,0.0,0.0,0.0,0.0,0.0,0.0,0.0,0.0,0.0,0.0,0.0,0.0,0.0,0.0,0.0,0.0,0.0,0.0,0.0,0.0,0.0,0.0,0.0,0.0,0.0,0.0,0.0,0.0,0.0,0.0,0.0,0.0,0.0,0.0,0.0,0.0,0.0,0.0,0.0,0.0,0.0,0.0,0.0,0.0,0.0,0.0,0.0,0.0,0.0,0.0,0.0,0.0,0.0,0.0,0.0,0.0,0.0,0.0,0.0,0.0,0.0,0.0,0.0,0.0,0.0,0.0,0.0,0.0,0.0,0.0,0.0,0.0,0.0,0.0,0.0,0.0,0.0,0.0,0.0,0.0,0.0,0.0,0.0,0.0,0.0,0.0,0.0,0.0,0.0,0.0,0.0,0.0,0.0,0.0,0.0,0.0,0.0,0.0,0.0,0.0,0.0,0.0,0.0,0.0,0.0,0.0,0.0,0.0,0.0,0.0,0.0,0.0,0.0,0.0,0.0,0.0,0.0,0.0,0.0,0.0,0.0,0.0,0.0,0.0,0.0,0.0,0.0,0.0,0.0,0.0,0.0,0.0,0.0,0.0,0.0,0.0,0.0,0.0,0.0,0.0,0.0,0.0,0.0,0.0,0.0,0.0,0.0,0.0,0.0,0.0,0.0,0.0,0.0,0.0,0.0,0.0,0.0,0.0,0.0,0.0,0.0,0.0,0.0,0.0,0.0,0.0,0.0,0.0,0.0,0.0,0.0,0.0,0.0,0.0,0.0,0.0,0.0,0.0,0.0,0.0,0.0,0.0,0.0,0.0,0.0,0.0,0.0,0.0,0.0,0.0,0.0,0.0,0.0,0.0,0.0,0.0,0.0,0.0,0.0,0.0,0.0,0.0,0.0,0.0,0.0,0.0,0.0,0.0,0.0,0.0,0.0,0.0,0.0,0.0,0.0,0.0,0.0,0.0,0.0,0.0,0.0,0.0,0.0,0.0,0.0,0.0,0.0,0.0,0.0,0.0,0.0,0.0,0.0,0.0,0.0,0.0,0.0,0.0,0.0,0.0,0.0,0.0,0.0,0.0,0.0,0.0,0.0,0.0,0.0,0.0,0.0,0.0,0.0,0.0,0.0,0.0,0.0,0.0,0.0,0.0,0.0,0.0,0.0,0.0,0.0,0.0,0.0,0.0,0.0,0.0,0.0,0.0,0.0,0.0,0.0,0.0,0.0,0.0,0.0,0.0,0.0,0.0,0.0,0.0,0.0,0.0,0.0,0.0,0.0,0.0,0.0,0.0,0.0,0.0,0.0,0.0,0.0,0.0,0.0,0.0,0.0,0.0,0.0,0.0,0.0,0.0,0.0,0.0,0.0,0.0,0.0,0.0,0.0,0.0,0.0,0.0,0.0,0.0,0.0,0.0,0.0,0.0,0.0,0.0,0.0,0.0,0.0,0.0,0.0,0.0,0.0,0.0,0.0,0.0,0.0,0.0,0.0,0.0,0.0,0.0,0.0,0.0,0.0,0.0,0.0,0.0,0.0,0.0,0.0,0.0,0.0,0.0,0.0,0.0,0.0,0.0,0.0,0.0,0.0,0.0,0.0,0.0,0.0,0.0,0.0,0.0,0.0,0.0,0.0,0.0,0.0,0.0,0.0,0.0,0.0,0.0,0.0,0.0,0.0,0.0,0.0,0.0,0.0,0.0,0.0,0.0,0.0,0.0,0.0,0.0,0.0,0.0,0.0,0.0,0.0,0.0,0.0,0.0,0.0,0.0,0.0,0.0,0.0,0.0,0.0,0.0,0.0,0.0,0.0,0.0,0.0,0.0,0.0,0.0,0.0,0.0,0.0,0.0,0.0,0.0,0.0,0.0,0.0,0.0,0.0,0.0,0.0,0.0,0.0,0.0,0.0,0.0,0.0,0.0,0.0,0.0,0.0,0.0,0.0,0.0,0.0,0.0,0.0,0.0,0.0,0.0,0.0,0.0,0.0,0.0,0.0,0.0,0.0,0.0,0.0,0.0,0.0,0.0,0.0,0.0,0.0,0.0,0.0,0.0,0.0,0.0,0.0,0.0,0.0,0.0,0.0,0.0,0.0,0.0,0.0,0.0,0.0,0.0,0.0,0.0,0.0,0.0,0.0,0.0,0.0,0.0,0.0,0.0,0.0,0.0,0.0,0.0,0.0,0.0,0.0,0.0,0.0,0.0,0.0,0.0,0.0,0.0,0.0,0.0,0.0,0.0,0.0,0.0,0.0,0.0,0.0,0.0,0.0,0.0,0.0,0.0,0.0,0.0,0.0,0.0,0.0,0.0,0.0,0.0,0.0,0.0,0.0,0.0,0.0,0.0,0.0,0.0,0.0,0.0,0.0,0.0,0.0,0.0,0.0,0.0,0.0,0.0,0.0,0.0,0.0,0.0,0.0,0.0,0.0,0.0,0.0,0.0,0.0,0.0,0.0,0.0,0.0,0.0,0.0,0.0,0.0,0.0,0.0,0.0,0.0,0.0,0.0,0.0,0.0,0.0,0.0,0.0,0.0,0.0,0.0,0.0,0.0,0.0,0.0,0.0,0.0,0.0,0.0,0.0,0.0,0.0,0.0,0.0,0.0,0.0,0.0,0.0,0.0,0.0,0.0,0.0,0.0,0.0,0.0,0.0,0.0,0.0,0.0,0.0,0.0,0.0,0.0,0.0,0.0,0.0,0.0,0.0,0.0,0.0,0.0,0.0,0.0,0.0,0.0,0.0,0.0,0.0,0.0,0.0,0.0,0.0,0.0,0.0,0.0,0.0,0.0,0.0,0.0,0.0,0.0,0.0,0.0,0.0,0.0,0.0,0.0,0.0,0.0,0.0,0.0,0.0,0.0,0.0,0.0,0.0,0.0,0.0,0.0,0.0,0.0,0.0,0.0,0.0,0.0,0.0,0.0,0.0,0.0,0.0,0.0,0.0,0.0,0.0,0.0,0.0,0.0,0.0,0.0,0.0,0.0,0.0,0.0,0.0,0.0,0.0,0.0,0.0,0.0,0.0,0.0,0.0,0.0,0.0,0.0,0.0,0.0,0.0,0.0,0.0,0.0,0.0,0.0,0.0,0.0,0.0,0.0,0.0,0.0,0.0,0.0,0.0,0.0,0.0,0.0,0.0,0.0,0.0,0.0,0.0,0.0,0.0,0.0,0.0,0.0,0.0,0.0,0.0,0.0,0.0,0.0,0.0,0.0,0.0,0.0,0.0,0.0,0.0,0.0,0.0,0.0,0.0,0.0,0.0,0.0,0.0,0.0,0.0,0.0,0.0,0.0,0.0,0.0,0.0,0.0,0.0,0.0,0.0,0.0,0.0,0.0,0.0,0.0,0.0,0.0,0.0,0.0,0.0,0.0,0.0,0.0,0.0,0.0,0.0,0.0,0.0,0.0,0.0,0.0,0.0,0.0,0.0,0.0,0.0,0.0,0.0,0.0,0.0,0.0,0.0,0.0,0.0,0.0,0.0,0.0,0.0,0.0,0.0,0.0,0.0,0.0,0.0,0.0,0.0,0.0,0.0,0.0,0.0,0.0,0.0,0.0,0.0,0.0,0.0,0.0,0.0,0.0,0.0,0.0,0.0,0.0,0.0,0.0,0.0,0.0,0.0,0.0,0.0,0.0,0.0,0.0,0.0,0.0,0.0,0.0,0.0,0.0,0.0,0.0,0.0,0.0,0.0,0.0,0.0,0.0,0.0,0.0,0.0,0.0,0.0,0.0,0.0,0.0,0.0,0.0,0.0,0.0,0.0,0.0,0.0,0.0,0.0,0.0,0.0,0.0,0.0,0.0,0.0,0.0,0.0,0.0,0.0,0.0,0.0,0.0,0.0,0.0,0.0,0.0,0.0,0.0,0.0,0.0,0.0,0.0,0.0,0.0,0.0,0.0,0.0,0.0,0.0,0.0,0.0,0.0,0.0,0.0,0.0,0.0,0.0,0.0,0.0,0.0,0.0,0.0,0.0,0.0,0.0,0.0,0.0,0.0,0.0,0.0,0.0,0.0,0.0,0.0,0.0,0.0,0.0,0.0,0.0,0.0,0.0,0.0,0.0,0.0,0.0,0.0,0.0,0.0,0.0,0.0,0.0,0.0,0.0,0.0,0.0,0.0,0.0,0.0,0.0,0.0,0.0,0.0,0.0,0.0,0.0,0.0,0.0,0.0,0.0,0.0,0.0,0.0,0.0,0.0,0.0,0.0,0.0,0.0,0.0,0.0,0.0,0.0,0.0,0.0,0.0,0.0,0.0,0.0,0.0,0.0,0.0,0.0,0.0,0.0,0.0,0.0,0.0,0.0,0.0,0.0,0.0,0.0,0.0,0.0,0.0,0.0,0.0,0.0,0.0,0.0,0.0,0.0,0.0,0.0,0.0,0.0,0.0,0.0,0.0,0.0,0.0,0.0,0.0,0.0,0.0,0.0,0.0,0.0,0.0,0.0,0.0,0.0,0.0,0.0,0.0,0.0,0.0,0.0,0.0,0.0,0.0,0.0,0.0,0.0,0.0,0.0,0.0,0.0,0.0,0.0,0.0,0.0,0.0,0.0,0.0,0.0,0.0,0.0,0.0,0.0,0.0,0.0,0.0,0.0,0.0,0.0,0.0,0.0,0.0,0.0,0.0,0.0,0.0,0.0,0.0,0.0,0.0,0.0,0.0,0.0,0.0,0.0,0.0,0.0,0.0,0.0,0.0,0.0,0.0,0.0,0.0,0.0,0.0,0.0,0.0,0.0,0.0,0.0,0.0,0.0,0.0,0.0,0.0,0.0,0.0,0.0,0.0,0.0,0.0,0.0,0.0,0.0,0.0,0.0,0.0,0.0,0.0,0.0,0.0,0.0,0.0,0.0,0.0,0.0,0.0,0.0,0.0,0.0,0.0,0.0,0.0,0.0,0.0,0.0,0.0,0.0,0.0,0.0,0.0,0.0,0.0,0.0,0.0,0.0,0.0,0.0,0.0,0.0,0.0,0.0,0.0,0.0,0.0,0.0,0.0,0.0,0.0,0.0,0.0,0.0,0.0,0.0,0.0,0.0,0.0,0.0,0.0,0.0,0.0,0.0,0.0,0.0,0.0,0.0,0.0,0.0,0.0,0.0,0.0,0.0,0.0,0.0,0.0,0.0,0.0,0.0,0.0,0.0,0.0,0.0,0.0,0.0,0.0,0.0,0.0,0.0,0.0,0.0,0.0,0.0,0.0,0.0,0.0,0.0,0.0,0.0,0.0,0.0,0.0,0.0,0.0,0.0,0.0,0.0,0.0,0.0,0.0,0.0,0.0,0.0,0.0,0.0,2.2977,2.2804,0.0,0.0,0.0,0.0,0.0,0.0,0.0,0.0,0.0,0.0,0.0,0.0,0.0,0.0,0.0,0.0,0.0,0.0,0.0,0.0,0.0,0.0,0.0,1.4834,1.5477,1.6597,1.7016,1.7388,1.7777,0.0,0.0,0.0,0.0,0.0,1.5612,1.5595,1.5595,1.5595,1.5595,1.5595,1.5578,1.4817,1.4463,1.4463,0.0,0.0,0.0,0.0,0.0,0.0,0.0,0.0,0.0,0.0,0.0,0.0,0.0,0.0,0.0,0.0,0.0,0.0,0.0,0.0,0.0,0.0,0.0,0.0,0.0,0.0,0.0,0.0,0.0,0.0,0.0,0.0,0.0,0.0,0.0,0.0,0.0,0.0,0.0,0.0,0.0,0.0,0.0,0.0,0.0,0.0,0.0,0.0,0.0,0.0,0.0,0.0,0.0,0.0,0.0,0.0,0.0,0.0,0.0,0.0,0.0,0.0,0.0,0.0,0.0,0.0,0.0,0.0,0.0,0.0,2.4236,2.3727,0.0,0.0,0.0,0.0,0.0,0.0,0.0,0.0,0.0,0.0,0.0,0.0,0.0,0.0,0.0,0.0,0.0,0.0,0.0,0.0,0.0,1.2178,1.4427,1.524,1.595,1.6834,1.7456,1.7811,1.7811,0.0,0.0,0.0,0.0,1.6593,1.6001,1.5984,1.5984,1.5984,1.6103,1.617,1.617,1.617,0.0,0.0,1.59,0.0,0.0,0.0,0.0,0.0,0.0,0.0,0.0,0.0,0.0,0.0,0.0,0.0,0.0,0.0,0.0,0.0,0.0,0.0,0.0,0.0,0.0,0.0,0.0,0.0,0.0,0.0,0.0,0.0,0.0,0.0,0.0,0.0,0.0,0.0,0.0,0.0,0.0,0.0,0.0,0.0,0.0,0.0,0.0,0.0,0.0,0.0,0.0,0.0,0.0,0.0,0.0,0.0,0.0,0.0,0.0,0.0,0.0,0.0,0.0,0.0,0.0,0.0,2.6832,2.7198,2.7871,2.7159,2.7217,2.7775,2.5688,2.5043,2.5476,2.4812,0.0,0.0,0.0,0.0,0.0,0.0,0.0,0.0,0.0,0.0,0.0,0.0,0.0,0.0,0.0,0.0,0.0,0.0,0.0,1.299,1.5206,1.5544,1.6153,1.754,1.7743,1.7811,1.7811,0.0,0.0,0.0,1.7659,1.7608,1.7523,1.7523,1.7523,1.7523,1.8149,1.8454,1.8454,0.0,0.0,0.0,1.7139,1.6563,0.0,0.0,0.0,0.0,0.0,0.0,0.0,0.0,0.0,0.0,0.0,0.0,0.0,0.0,0.0,0.0,0.0,0.0,0.0,0.0,0.0,0.0,0.0,0.0,0.0,0.0,0.0,0.0,0.0,0.0,0.0,0.0,0.0,0.0,0.0,0.0,0.0,0.0,0.0,0.0,0.0,0.0,1.9736,2.1514,0.0,0.0,0.0,0.0,0.0,0.0,0.0,0.0,0.0,0.0,0.0,0.0,0.0,2.7505,2.739,2.7621,2.7736,2.7736,2.7736,2.7794,2.789,2.7775,2.7794,2.7871,2.7544,0.0,2.6428,2.6313,0.0,0.0,0.0,0.0,0.0,0.0,0.0,0.0,0.0,0.0,0.0,0.0,0.0,0.0,0.0,0.0,0.0,0.0,0.0,0.0,0.0,1.5595,1.6187,1.7676,1.7811,0.0,0.0,0.0,0.0,1.7811,1.7811,1.7811,1.7811,1.8217,1.8623,1.9039,1.9343,0.0,0.0,0.0,0.0,0.0,0.0,0.0,0.0,0.0,0.0,0.0,0.0,0.0,0.0,0.0,0.0,0.0,0.0,0.0,0.0,0.0,0.0,0.0,0.0,0.0,0.0,0.0,0.0,0.0,0.0,0.0,0.0,0.0,0.0,0.0,0.0,0.0,0.0,0.0,0.0,0.0,0.0,0.0,0.0,0.0,0.0,0.0,0.0,2.0008,2.1943,2.2654,2.2857,2.2965,0.0,0.0,0.0,0.0,0.0,0.0,0.0,0.0,0.0,2.7186,2.7646,2.789,2.789,2.8832,2.9063,2.8582,2.9563,2.9775,2.9313,2.9313,2.9313,2.9313,2.9313,2.8813,2.7967,2.7525,2.7101,2.6755,0.0,0.0,0.0,0.0,2.6246,2.6188,0.0,0.0,0.0,0.0,0.0,0.0,0.0,0.0,0.0,0.0,0.0,0.0,1.5392,1.5764,1.639,1.7693,0.0,0.0,0.0,0.0,0.0,1.7811,1.7704,1.7704,1.7811,1.8521,1.9367,0.0,0.0,0.0,0.0,0.0,0.0,0.0,0.0,0.0,0.0,0.0,0.0,0.0,0.0,0.0,0.0,0.0,0.0,0.0,0.0,0.0,0.0,0.0,0.0,0.0,0.0,0.0,0.0,0.0,0.0,0.0,0.0,0.0,0.0,0.0,0.0,0.0,0.0,0.0,0.0,0.0,0.0,0.0,0.0,0.0,0.0,0.0,0.0,0.0,0.0,2.2009,2.3518,2.3518,2.3969,2.4229,0.0,0.0,0.0,0.0,0.0,0.0,2.7666,2.8218,2.858,2.8795,2.9052,2.9179,2.9179,3.0429,3.0717,3.0083,3.1179,3.1371,3.0737,3.0494,3.0398,3.0398,3.0398,3.0025,2.9371,2.8544,2.8082,2.789,2.789,2.789,2.789,2.789,2.789,2.789,0.0,0.0,0.0,0.0,0.0,0.0,0.0,0.0,0.0,0.0,0.0,0.0,0.0,0.0,0.0,0.0,0.0,0.0,0.0,0.0,0.0,1.7811,1.7502,1.7479,1.7789,1.8521,0.0,0.0,0.0,0.0,0.0,0.0,0.0,0.0,0.0,0.0,0.0,0.0,0.0,0.0,0.0,0.0,0.0,0.0,0.0,0.0,0.0,0.0,0.0,0.0,0.0,0.0,0.0,0.0,0.0,0.0,0.0,0.0,0.0,0.0,0.0,0.0,0.0,0.0,0.0,0.0,0.0,0.0,0.0,0.0,0.0,0.0,0.0,0.0,0.0,0.0,0.0,0.0,0.0,2.4154,2.5513,0.0,0.0,0.0,0.0,2.7046,2.7782,2.8286,2.8442,3.0155,3.1138,3.1217,3.2154,3.2641,3.2641,3.2737,3.2756,3.2699,3.2025,3.1679,3.1621,3.0794,3.0398,3.0398,3.0398,3.0379,3.0275,2.939,2.8582,2.789,2.789,2.789,2.789,2.789,2.789,2.789,0.0,0.0,0.0,1.1058,1.1574,1.2106,1.2281,1.2297,1.2737,1.3954,1.4344,0.0,0.0,0.0,0.0,0.0,0.0,0.0,0.0,0.0,0.0,1.8095,1.8054,1.8626,1.9959,2.0255,0.0,0.0,0.0,0.0,0.0,0.0,0.0,0.0,0.0,0.0,0.0,0.0,0.0,0.0,0.0,0.0,0.0,0.0,0.0,0.0,0.0,0.0,0.0,0.0,0.0,0.0,0.0,0.0,0.0,0.0,0.0,0.0,0.0,0.0,0.0,0.0,0.0,0.0,0.0,0.0,0.0,0.0,0.0,0.0,0.0,0.0,0.0,0.0,0.0,0.0,0.0,0.0,0.0,2.5676,2.6264,0.0,2.6313,2.6995,2.7719,2.832,2.9116,2.9869,3.0597,3.1258,3.1695,3.1841,3.2195,3.2397,3.2397,3.2949,3.3035,3.2641,3.2924,3.2847,3.2468,3.216,3.1737,3.1237,3.1237,3.0929,3.0417,3.0679,3.0275,2.9506,2.9506,2.9506,2.9506,2.9506,2.9506,2.9506,0.9813,1.0588,0.0,1.1344,1.1876,1.2356,1.262,1.2872,1.3396,1.4359,0.0,0.0,0.0,0.0,0.0,0.0,0.0,0.0,0.0,0.0,0.0,1.829,1.8588,1.9445,0.0,0.0,0.0,0.0,0.0,0.0,0.0,0.0,0.0,0.0,0.0,0.0,0.0,0.0,0.0,0.0,0.0,0.0,1.9587,0.0,0.0,0.0,0.0,0.0,0.0,0.0,0.0,0.0,0.0,0.0,0.0,0.0,0.0,0.0,0.0,0.0,0.0,0.0,0.0,0.0,0.0,0.0,0.0,0.0,0.0,0.0,0.0,0.0,0.0,0.0,0.0,0.0,0.0,2.5346,2.63,2.6576,2.7328,2.7714,2.7438,2.8374,2.9237,2.9769,3.0558,3.1365,3.2166,3.2445,3.2727,3.2976,3.2976,3.2976,3.2976,3.3561,3.3639,3.3254,3.352,3.3454,3.3062,3.2867,3.2412,3.1857,3.2033,3.1738,3.1155,3.1827,3.1756,3.1237,3.1237,3.091,3.0436,3.0737,3.0648,3.0398,0.9295,0.9891,1.0686,1.2052,1.2673,1.3085,1.3363,1.4022,1.4511,1.4528,0.0,0.0,0.0,0.0,0.0,0.0,0.0,0.0,0.0,0.0,1.8684,1.8329,1.9061,1.9838,0.0,0.0,0.0,0.0,0.0,0.0,0.0,0.0,0.0,0.0,0.0,0.0,0.0,0.0,0.0,0.0,0.0,0.0,2.1092,0.0,0.0,0.0,0.0,0.0,0.0,0.0,0.0,0.0,0.0,0.0,0.0,0.0,0.0,0.0,0.0,0.0,0.0,0.0,0.0,0.0,0.0,0.0,0.0,0.0,0.0,0.0,0.0,0.0,0.0,0.0,0.0,0.0,2.4318,2.6355,2.7548,2.6796,2.8796,2.9934,2.914,3.0503,3.1439,3.1439,3.2173,3.2741,3.3022,3.3748,3.4334,3.4653,3.4674,3.4674,3.4674,3.4674,3.4674,3.4694,3.3844,3.3467,3.3449,3.2854,3.2438,3.2185,3.2709,3.2785,3.253,3.2812,3.291,3.2891,3.2891,3.191,3.0571,3.1429,3.1167,3.0436,0.942,1.0431,1.1397,1.1991,1.2588,1.3085,1.3363,1.4022,1.468,0.0,0.0,0.0,0.0,0.0,0.0,0.0,0.0,0.0,0.0,0.0,1.7815,1.8767,2.0201,0.0,0.0,0.0,0.0,0.0,0.0,0.0,0.0,0.0,0.0,0.0,0.0,0.0,0.0,0.0,0.0,0.0,0.0,0.0,2.1187,0.0,0.0,0.0,0.0,0.0,0.0,0.0,0.0,0.0,0.0,0.0,0.0,0.0,0.0,0.0,0.0,0.0,0.0,0.0,0.0,0.0,0.0,0.0,0.0,0.0,0.0,0.0,0.0,0.0,0.0,0.0,2.5502,2.6816,2.6816,2.7889,2.8815,2.9182,3.0301,3.098,3.076,3.1678,3.2284,3.2284,3.3018,3.3485,3.3571,3.3773,3.3954,3.4037,3.4055,3.4055,3.4055,3.4055,3.4279,3.4694,3.4468,3.4547,3.4925,3.474,3.428,3.3623,3.3774,3.3442,3.2831,3.3551,3.3468,3.2891,3.2891,3.2622,3.2237,3.2487,3.193,3.1054,1.0065,1.0858,1.1649,1.2288,1.2734,1.3085,1.3363,1.4293,1.5122,0.0,0.0,0.0,0.0,0.0,0.0,0.0,0.0,0.0,1.8552,0.0,0.0,0.0,0.0,0.0,0.0,0.0,0.0,0.0,0.0,0.0,0.0,0.0,0.0,0.0,0.0,0.0,0.0,0.0,0.0,0.0,0.0,0.0,2.1651,2.1651,2.138,2.0914,2.0619,2.0516,2.0456,2.0106,0.0,0.0,0.0,0.0,0.0,0.0,0.0,0.0,0.0,0.0,0.0,0.0,0.0,0.0,0.0,0.0,0.0,0.0,0.0,0.0,0.0,0.0,0.0,0.0,2.7057,2.8484,2.8991,2.9318,2.9806,3.0613,3.1403,3.1898,3.1898,3.2632,3.3109,3.3109,3.3532,3.3807,3.3807,3.3807,3.3807,3.3807,3.3807,3.3807,3.3807,3.3807,3.3979,3.4307,3.4307,3.4486,3.4775,3.4906,3.4622,3.4055,3.4289,3.4056,3.3496,3.4263,3.4266,0.0,0.0,0.0,0.0,0.0,3.2499,3.1976,1.0942,1.1293,1.1711,1.2809,1.3013,1.3118,1.3481,1.4699,1.5629,1.5714,0.0,0.0,0.0,0.0,0.0,0.0,0.0,0.0,0.0,0.0,0.0,0.0,0.0,0.0,0.0,0.0,0.0,0.0,0.0,0.0,0.0,0.0,0.0,0.0,0.0,0.0,0.0,0.0,0.0,0.0,0.0,0.0,2.231,2.231,2.231,2.2226,2.1549,2.1322,2.12,2.049,0.0,0.0,0.0,0.0,0.0,0.0,0.0,0.0,0.0,0.0,0.0,0.0,0.0,0.0,0.0,0.0,0.0,0.0,0.0,0.0,0.0,0.0,0.0,0.0,2.8633,2.9661,3.0851,3.0699,3.0742,3.1439,3.2247,3.2742,3.2742,3.3385,3.3807,3.3807,3.388,3.3935,3.3935,3.4027,0.0,0.0,0.0,3.4027,3.3935,3.3935,3.3907,3.3842,3.3842,3.385,3.3921,3.4165,3.4141,3.3928,3.4483,3.4529,3.4292,3.4832,3.5051,3.5088,3.5383,3.4551,3.3154,3.3154,3.305,3.2914,1.1307,1.1925,1.2469,1.2926,1.3013,1.3284,1.4172,1.5037,1.5798,1.6411,0.0,0.0,0.0,0.0,0.0,0.0,0.0,0.0,0.0,0.0,0.0,0.0,0.0,0.0,0.0,0.0,0.0,0.0,0.0,0.0,0.0,0.0,0.0,0.0,0.0,0.0,0.0,0.0,0.0,0.0,0.0,0.0,2.231,2.231,2.231,2.2293,2.2141,2.2096,2.2068,2.191,2.1452,2.0966,2.0982,0.0,0.0,0.0,0.0,0.0,0.0,0.0,0.0,0.0,0.0,0.0,0.0,0.0,0.0,0.0,0.0,0.0,0.0,0.0,0.0,2.7888,2.9637,3.1237,3.2128,3.2195,3.2192,3.2357,3.3091,3.3568,3.3568,3.3715,3.3807,3.3807,3.4412,3.4752,3.4752,3.544,3.5826,3.5826,3.5826,3.5477,3.4752,3.4752,3.4547,3.4123,3.4123,0.0,3.4526,3.4591,3.4572,3.4548,3.4653,3.4653,3.4593,3.4734,3.4793,3.4832,3.5304,3.5158,3.4658,3.4658,3.3959,3.2966,1.1539,1.2042,1.2562,1.3011,1.3352,1.3845,1.4671,1.5441,1.6089,1.6627,0.0,0.0,0.0,0.0,0.0,0.0,0.0,0.0,0.0,0.0,0.0,0.0,0.0,0.0,0.0,0.0,0.0,0.0,0.0,0.0,0.0,0.0,0.0,0.0,0.0,0.0,0.0,0.0,0.0,0.0,0.0,0.0,2.231,2.231,2.231,2.231,2.231,2.231,2.231,2.231,2.204,2.1765,2.1765,2.1463,2.1144,0.0,0.0,0.0,0.0,0.0,0.0,0.0,0.0,0.0,0.0,0.0,0.0,0.0,0.0,2.4919,2.5499,0.0,2.8575,2.8995,3.035,3.156,3.2134,3.2611,3.2973,3.3183,3.3568,3.3807,3.3807,3.4174,3.4412,3.4412,3.5183,3.5661,3.5661,3.6064,3.6303,3.6303,3.6303,3.6083,3.5661,3.5661,3.5524,3.5269,3.5269,3.5106,3.4846,3.4846,3.4647,3.4255,3.4255,3.4255,3.4279,3.4379,3.4551,3.4733,3.4999,3.5016,3.4908,3.4908,3.4451,3.3845,1.17,1.2067,1.2497,1.3096,1.3759,1.4451,1.5109,1.5796,1.6359,1.6757,1.7096,1.7415,1.7749,1.7502,0.0,0.0,0.0,0.0,0.0,0.0,0.0,0.0,0.0,0.0,0.0,0.0,0.0,0.0,0.0,0.0,0.0,0.0,0.0,0.0,0.0,0.0,0.0,0.0,0.0,0.0,0.0,0.0,2.2716,2.2581,2.2429,2.231,2.231,2.231,2.231,2.231,2.231,2.231,2.231,2.231,2.231,2.231,2.231,0.0,0.0,0.0,0.0,0.0,0.0,0.0,0.0,0.0,2.3587,2.508,2.6051,2.6742,2.7078,2.8287,2.9469,3.0119,3.1034,3.1775,3.2042,3.2781,3.3433,3.3743,3.3807,3.3862,3.4027,3.4633,3.5064,3.5229,3.6046,3.6523,3.6523,3.667,3.6762,3.6762,3.6762,3.6688,3.6523,3.6523,3.645,3.6303,3.6303,3.5936,3.5247,3.5247,3.4908,3.4284,3.4119,3.3935,3.3815,3.4018,3.4265,3.4526,3.4526,3.4526,3.4548,3.4572,3.4569,3.4526,1.179,1.2313,1.2826,1.3151,1.4,1.486,1.5519,1.597,1.6433,1.7129,1.7254,1.7415,1.7749,1.7502,1.7831,0.0,0.0,0.0,0.0,0.0,0.0,0.0,0.0,0.0,0.0,0.0,0.0,0.0,0.0,0.0,0.0,0.0,0.0,0.0,0.0,0.0,0.0,0.0,0.0,0.0,0.0,0.0,2.4171,2.3528,2.2868,2.231,2.231,2.231,2.231,2.231,2.231,2.231,2.231,2.231,2.231,2.231,0.0,2.244,2.3119,2.3755,2.4259,2.4261,2.4245,2.4793,0.0,0.0,2.664,2.8185,2.8612,2.8681,2.872,2.971,3.0531,3.0611,3.196,3.2976,3.3031,3.3422,3.3749,3.3771,3.3807,3.4082,3.4789,3.4935,3.5302,3.6101,3.689,3.7349,3.7349,3.8046,3.8432,3.8432,3.8432,3.8083,3.7349,3.7349,3.7,3.6303,3.6303,3.6248,3.6156,3.6156,3.6101,3.5973,3.522,3.4468,3.3788,3.3842,3.3868,3.3921,3.3921,3.3921,3.3928,3.4171,3.4117,3.3921,1.1805,1.2643,1.3425,1.3522,1.4371,1.5276,1.5941,1.6317,1.6727,1.7223,1.7296,1.7344,1.7502,1.7789,1.8437,1.9666,0.0,0.0,0.0,0.0,0.0,0.0,0.0,0.0,0.0,0.0,0.0,0.0,0.0,0.0,0.0,0.0,0.0,0.0,0.0,0.0,0.0,0.0,0.0,0.0,0.0,0.0,2.4438,2.3663,2.3207,2.2885,2.2462,2.231,0.0,0.0,2.231,2.231,2.231,2.231,2.231,2.231,2.2587,0.0,2.3832,2.4254,2.4494,2.448,2.5143,2.6014,2.6954,2.7267,2.7644,2.876,2.933,2.9651,2.9627,3.0387,3.0999,3.0999,3.1596,3.2049,3.2035,3.238,3.2722,3.3014,3.3701,3.436,3.4954,3.5477,3.6101,3.6927,3.7734,3.8193,3.8193,3.8524,3.8707,3.8707,3.8707,3.8542,3.8193,3.8193,3.8028,3.7698,3.7698,3.7441,3.6982,3.6982,3.6725,3.6266,3.5917,3.5569,3.522,3.4724,3.4504,3.4468,3.399,3.3807,3.3815,3.3928,3.3902,3.3807,1.1805,1.2802,1.3709,1.39,1.4754,1.5588,1.6083,1.6528,1.6892,1.7126,1.7248,1.7338,1.7428,1.8277,1.9147,1.9929,2.0915,2.1735,0.0,0.0,0.0,0.0,0.0,0.0,0.0,0.0,0.0,0.0,0.0,0.0,0.0,0.0,0.0,0.0,0.0,0.0,0.0,0.0,0.0,0.0,0.0,0.0,2.4983,2.4052,2.3697,2.3579,2.2649,2.231,0.0,0.0,2.231,2.231,2.231,2.231,2.2344,2.2553,2.3129,2.3782,2.4125,2.4492,2.4795,2.4796,2.59,2.7046,2.7297,2.7894,2.8665,2.9426,3.0018,3.0404,3.0404,3.0842,3.128,3.1472,3.1613,3.1688,3.1707,3.2055,3.2476,3.2986,3.3827,3.4758,3.5604,3.6266,3.6945,3.7753,3.8377,3.8707,3.8707,3.8707,3.8707,3.8707,3.8707,3.8707,3.8707,3.8707,3.8707,3.8707,3.8707,3.8395,3.7826,3.7826,3.7386,3.6615,3.6615,3.6505,3.6248,3.5624,3.5367,3.5312,3.4724,3.4339,3.4137,3.4137,3.399,3.3807,1.1805,1.2566,1.3443,1.4163,1.5066,1.5726,1.5807,1.6382,1.6815,1.6815,1.7101,1.7412,1.7759,1.9072,1.995,2.0008,2.1379,2.2293,2.231,0.0,0.0,0.0,0.0,0.0,0.0,0.0,0.0,0.0,0.0,0.0,0.0,0.0,0.0,0.0,0.0,0.0,0.0,0.0,0.0,0.0,0.0,0.0,2.6471,2.5,2.4472,2.4286,2.2818,0.0,0.0,0.0,2.231,2.231,2.231,2.231,0.0,2.3153,2.388,0.0,2.36,2.4475,2.5564,2.5581,2.6674,2.7981,2.8748,2.9482,3.0247,3.0982,3.1157,3.1173,3.1173,3.1173,3.1438,3.2156,3.265,3.2951,3.2956,3.3309,3.3748,3.4267,3.4375,3.5193,3.7228,3.747,3.779,3.8597,3.8689,3.8707,3.8707,3.8707,3.8707,3.8707,3.8707,3.8707,3.8707,3.8707,3.8707,3.8707,3.8707,3.8689,3.867,3.867,3.8212,3.7441,3.7441,3.7,3.6303,3.6266,3.6266,3.6266,3.6229,3.5716,3.4954,3.4954,3.4486,3.3807,1.2396,1.3275,1.4148,1.4847,1.5785,1.6441,1.647,1.685,1.7126,1.7126,1.7675,0.0,0.0,0.0,0.0,0.0,2.1824,2.231,2.231,2.231,0.0,0.0,0.0,0.0,0.0,0.0,0.0,0.0,0.0,0.0,0.0,0.0,0.0,0.0,0.0,0.0,0.0,0.0,0.0,0.0,0.0,0.0,2.7283,2.5795,2.4915,2.4388,0.0,0.0,0.0,0.0,0.0,0.0,2.231,0.0,0.0,2.3771,2.4312,2.4778,2.5998,2.6692,2.7199,2.7742,2.8612,2.9386,2.9681,3.0281,3.0892,3.1157,3.119,3.119,3.119,3.119,3.1455,3.2173,3.242,3.2703,3.3184,3.3355,3.3659,3.4141,3.4672,3.5384,3.6325,3.7098,3.7826,3.8634,3.8707,3.8707,3.8707,3.8707,3.8707,3.8707,3.8707,3.8707,3.8707,3.8707,3.8707,3.8707,3.8707,3.8707,3.8707,3.8707,3.856,3.8303,3.8303,3.8138,3.7845,3.7312,3.7092,3.7037,3.6505,3.6119,3.5862,3.5862,3.533,3.4523,1.2871,1.3783,1.4703,1.5511,1.6273,0.0,0.0,0.0,0.0,0.0,0.0,0.0,0.0,0.0,0.0,0.0,0.0,2.231,2.231,0.0,0.0,0.0,0.0,0.0,0.0,0.0,0.0,0.0,0.0,0.0,0.0,0.0,0.0,0.0,0.0,0.0,0.0,0.0,0.0,0.0,0.0,0.0,2.7283,2.6065,2.5304,0.0,0.0,0.0,0.0,0.0,0.0,0.0,0.0,0.0,0.0,2.4214,2.489,2.5644,2.7351,2.7811,2.799,2.8813,2.9571,3.0101,3.0106,3.0684,3.119,3.119,3.0999,3.0875,3.1157,3.0982,3.1207,3.2491,3.2698,3.2961,3.3673,3.3809,3.3972,3.4483,3.522,3.5958,3.667,3.7613,3.8171,3.8168,3.8318,3.8415,3.8415,3.8596,3.8707,3.8707,3.8707,3.8707,3.8707,3.8707,3.8707,3.8707,3.8707,3.8707,3.8707,3.8707,3.8707,3.8707,3.8707,3.8707,3.867,3.8138,3.7918,3.7863,3.7349,3.6982,3.6725,3.6725,3.6193,3.5367,1.327,1.4101,1.5089,0.0,0.0,0.0,0.0,0.0,0.0,0.0,0.0,0.0,0.0,0.0,0.0,0.0,0.0,0.0,0.0,0.0,0.0,0.0,0.0,0.0,0.0,0.0,0.0,0.0,0.0,0.0,0.0,0.0,0.0,0.0,0.0,0.0,0.0,0.0,0.0,0.0,0.0,0.0,2.6623,2.593,0.0,0.0,0.0,0.0,0.0,0.0,0.0,0.0,0.0,0.0,2.4562,2.4666,2.5675,2.6976,2.7712,2.7958,2.8145,2.8926,2.9638,3.0141,3.0141,3.0684,3.1157,3.1157,3.0561,3.0247,3.097,3.0566,3.0802,3.2997,3.3363,3.3656,3.4449,3.4536,3.4729,3.5244,3.5976,3.6887,3.8091,3.8889,3.8753,3.7365,3.7703,3.7931,3.7966,3.8401,3.8658,3.8707,3.8707,3.8707,3.8707,3.8707,3.8707,3.8707,3.8707,3.8707,3.8707,3.8707,3.8707,3.8707,3.8707,3.8707,3.8707,3.8707,3.8707,3.8707,3.8707,3.823,3.7551,3.7551,3.7037,3.6229,0.0,0.0,0.0,0.0,0.0,0.0,0.0,0.0,0.0,0.0,0.0,0.0,0.0,0.0,0.0,0.0,0.0,0.0,0.0,0.0,0.0,0.0,0.0,0.0,0.0,0.0,0.0,0.0,0.0,0.0,0.0,0.0,0.0,0.0,0.0,0.0,0.0,0.0,0.0,0.0,0.0,0.0,2.6674,0.0,0.0,0.0,0.0,0.0,0.0,0.0,0.0,0.0,0.0,2.5021,2.5542,2.6636,2.7655,2.8581,2.9315,2.9917,3.0387,3.0578,3.0769,3.0909,3.0909,3.0651,3.0387,3.0387,2.9794,2.9331,2.9537,2.9841,3.0654,3.2317,3.3029,3.3834,3.515,3.5307,3.5362,3.5494,3.6219,3.6853,3.7158,3.786,3.8281,3.831,3.8241,3.8344,3.8689,3.8339,3.83,3.8676,3.8707,3.8707,3.8707,3.8707,3.8707,3.8707,3.8707,3.8707,3.8707,3.8707,3.8707,3.8707,3.8707,3.8707,3.8707,3.8707,3.8707,3.8707,3.8707,3.8579,3.8395,3.8395,3.7881,3.7147,0.0,0.0,0.0,0.0,0.0,0.0,0.0,0.0,0.0,0.0,0.0,0.0,0.0,0.0,0.0,0.0,0.0,0.0,0.0,0.0,0.0,0.0,0.0,0.0,0.0,0.0,0.0,0.0,0.0,0.0,0.0,0.0,0.0,0.0,0.0,0.0,0.0,0.0,0.0,0.0,0.0,0.0,0.0,0.0,0.0,0.0,0.0,0.0,0.0,0.0,0.0,2.5111,2.5858,2.6298,2.6802,2.7961,0.0,2.9638,3.0387,3.0875,3.119,3.119,3.119,3.114,3.0808,3.0404,3.0017,2.9671,2.9022,2.8566,2.8939,2.9349,3.0196,3.2012,3.2928,3.3929,3.538,3.5622,3.5622,3.5622,3.6603,3.728,3.728,3.8227,3.8965,3.9277,3.9021,3.889,3.9049,3.8876,3.8747,3.8707,3.8707,3.8707,3.8707,3.8707,3.8707,3.8707,3.8707,3.8707,3.8707,3.8707,3.8707,3.8707,3.8707,3.8707,3.8707,3.8707,3.8707,3.8707,3.8707,3.8707,3.8707,3.8707,3.8414,3.8028,0.0,0.0,0.0,0.0,0.0,0.0,0.0,0.0,0.0,1.9917,2.0703,2.1465,2.2226,2.231,0.0,0.0,0.0,0.0,0.0,0.0,0.0,0.0,0.0,0.0,0.0,0.0,0.0,0.0,0.0,0.0,0.0,0.0,0.0,0.0,0.0,0.0,0.0,0.0,0.0,0.0,0.0,0.0,0.0,0.0,0.0,0.0,0.0,0.0,0.0,0.0,2.6404,2.6044,2.6894,2.7581,2.8254,2.908,2.9761,3.0387,3.1033,3.119,3.119,3.119,3.114,3.0875,3.0247,2.9856,2.9509,2.8939,2.8117,2.7759,2.8544,2.8783,2.9585,3.1802,3.2796,3.3834,3.5498,3.5774,3.5808,3.591,3.7178,3.8058,3.8058,3.9276,4.0121,4.0204,3.9886,3.9518,3.9192,3.9547,3.9418,3.8666,3.8647,3.8624,3.8578,3.8578,3.8627,3.8707,3.8707,3.8707,3.8707,3.8707,3.8707,3.8707,3.8707,3.8707,3.8707,3.8707,3.8707,3.8707,3.8707,3.8707,3.8707,3.8707,3.8707,3.8707,0.0,0.0,0.0,0.0,0.0,0.0,0.0,1.8937,1.9849,1.9985,2.0703,2.1465,2.2226,2.231,0.0,0.0,0.0,0.0,0.0,0.0,0.0,0.0,0.0,0.0,0.0,0.0,0.0,0.0,0.0,0.0,0.0,0.0,0.0,0.0,0.0,0.0,0.0,0.0,0.0,0.0,0.0,0.0,0.0,0.0,0.0,0.0,0.0,0.0,0.0,0.0,2.7521,2.7657,2.9075,2.961,2.9868,3.0607,3.0892,3.1033,3.1173,3.119,3.119,3.119,3.0735,3.0264,3.0124,2.8642,0.0,2.7913,2.6928,2.6219,2.6962,2.7606,2.8727,3.1016,3.2023,3.3466,3.6219,3.6586,3.6806,3.7432,3.8278,3.8802,3.8802,3.958,4.0286,4.075,4.0706,4.0356,3.9634,3.9118,3.8684,3.8374,3.8376,3.8258,3.8032,3.8032,3.8267,3.8707,3.8707,3.8707,3.8707,3.8707,3.8707,3.8707,3.8707,0.0,3.8707,3.8707,3.8707,3.8707,3.8707,3.8707,3.8707,3.8707,3.8707,3.8707,0.0,0.0,0.0,0.0,0.0,0.0,0.0,1.8741,1.9587,1.9951,2.0703,2.1465,2.2226,2.231,2.231,0.0,0.0,0.0,0.0,0.0,0.0,0.0,0.0,0.0,0.0,0.0,0.0,0.0,0.0,0.0,0.0,0.0,0.0,0.0,0.0,0.0,0.0,0.0,0.0,0.0,0.0,0.0,0.0,0.0,0.0,0.0,0.0,0.0,0.0,0.0,2.7486,2.8129,3.0068,3.0677,3.0734,3.1082,3.119,3.119,3.119,3.119,3.119,3.119,3.0667,2.9878,2.9073,0.0,0.0,2.6664,2.6111,2.5849,2.6556,2.7317,2.8406,3.0319,3.125,3.2763,3.578,3.618,3.6603,3.777,3.8548,3.8988,3.8988,3.9648,4.0204,4.0449,4.0497,4.0375,4.0185,3.9441,3.8989,3.8881,3.8863,3.861,3.8131,3.8113,3.8026,3.7913,3.7913,3.7913,3.7913,3.7913,3.805,3.83,3.83,3.8433,3.8707,3.8707,3.8707,3.8707,3.8707,3.8707,3.8676,3.8382,3.83,3.83,0.0,0.0,0.0,0.0,0.0,0.0,0.0,1.8437,1.9164,1.99,2.0703,2.1465,2.2226,2.231,2.231,0.0,0.0,0.0,0.0,0.0,0.0,0.0,0.0,0.0,0.0,0.0,0.0,0.0,0.0,0.0,0.0,0.0,0.0,0.0,0.0,0.0,0.0,0.0,0.0,0.0,0.0,0.0,0.0,0.0,0.0,0.0,0.0,0.0,0.0,0.0,2.7213,2.795,3.007,3.0852,3.0982,3.0982,3.1067,3.119,3.119,3.119,3.119,3.119,3.0544,2.9492,2.81,2.6993,0.0,2.5478,2.5258,2.5397,2.6286,2.6945,2.793,2.9826,3.0578,3.2118,3.5408,3.5876,3.6485,3.8176,3.887,3.9225,3.9225,3.9732,4.007,4.007,4.007,4.0209,4.0473,3.9904,3.9501,3.9343,3.9283,3.9017,3.8368,3.8192,3.7884,3.7421,3.7261,3.719,3.719,3.719,3.7396,3.7755,3.7755,3.7998,3.8368,3.8368,3.8368,3.8368,3.8368,3.8433,3.8465,3.8065,3.7893,3.7893,0.0,0.0,0.0,0.0,0.0,0.0,0.0,1.8437,1.9164,1.99,2.0703,2.1465,2.2226,2.231,2.231,0.0,0.0,0.0,0.0,0.0,0.0,0.0,0.0,0.0,0.0,0.0,0.0,0.0,2.2304,0.0,0.0,0.0,0.0,0.0,0.0,0.0,0.0,0.0,0.0,0.0,0.0,0.0,0.0,0.0,0.0,0.0,0.0,0.0,0.0,0.0,0.0,2.7097,2.8687,2.9656,3.0213,3.0213,0.0,0.0,3.119,3.119,3.119,3.119,3.0124,2.8887,2.8015,0.0,2.466,2.4614,2.4068,2.4033,2.543,2.5765,2.6758,2.9617,0.0,3.1707,3.6096,3.6671,3.7466,3.9614,3.9935,3.9969,3.9969,4.0037,4.007,4.007,4.007,4.0087,4.0152,4.0084,3.9744,3.9081,3.9064,3.8892,3.859,3.7914,3.7784,3.8196,3.7527,3.719,3.719,3.719,3.721,3.7248,3.7248,3.7285,0.0,3.734,3.734,3.734,3.734,3.7578,3.798,3.7911,3.7893,3.7893,0.0,0.0,0.0,0.0,0.0,0.0,1.776,1.8065,1.8504,1.9249,2.001,2.0771,2.1549,2.204,2.231,0.0,0.0,0.0,0.0,0.0,0.0,0.0,0.0,0.0,0.0,0.0,0.0,0.0,2.231,0.0,0.0,0.0,0.0,0.0,0.0,2.231,0.0,0.0,0.0,0.0,0.0,0.0,0.0,0.0,0.0,0.0,0.0,0.0,0.0,0.0,0.0,0.0,2.5564,2.6724,0.0,0.0,3.0297,3.0611,3.1067,3.119,3.119,3.119,3.009,2.866,2.7402,2.5785,2.451,2.451,2.4257,2.453,2.5993,2.626,2.6962,0.0,2.9445,3.066,3.4235,3.5154,3.6248,3.8497,3.9157,3.9597,4.0037,4.007,4.007,4.007,4.007,4.007,4.007,4.007,3.9952,3.9648,3.9648,3.9423,3.8879,3.8099,3.762,3.7404,3.6628,3.6249,3.6249,3.6249,3.6399,3.6724,3.6724,3.6921,0.0,3.719,3.719,3.719,3.719,3.7323,3.7433,3.7135,3.702,3.702,0.0,0.0,0.0,0.0,0.0,1.7304,1.7743,1.7811,1.8065,1.8792,1.9529,2.0314,2.1092,2.1854,2.231,2.231,0.0,0.0,0.0,0.0,0.0,0.0,0.0,0.0,0.0,0.0,0.0,0.0,0.0,2.231,0.0,0.0,2.231,2.231,0.0,0.0,0.0,0.0,0.0,0.0,0.0,0.0,0.0,0.0,0.0,0.0,0.0,0.0,0.0,0.0,0.0,0.0,0.0,0.0,0.0,0.0,2.9576,3.0213,3.0718,3.1033,3.119,3.119,3.009,2.8643,2.7334,2.587,2.4757,2.4527,2.4494,2.488,2.616,2.6358,2.686,0.0,2.8851,3.0034,3.2969,3.4015,3.5351,3.7635,3.8362,3.8954,3.9681,3.9952,4.007,4.007,4.007,4.007,4.007,4.007,4.007,4.007,4.007,3.9834,3.9326,3.8582,3.7855,3.711,3.6332,3.5842,3.5622,3.5622,3.5827,3.6182,3.6182,3.6374,0.0,3.6724,3.6724,3.6724,3.6724,3.6825,3.6921,3.6539,3.6374,3.6374,0.0,0.0,0.0,0.0,0.0,0.0,1.7591,1.7811,1.8065,1.8792,1.9529,2.0314,2.1092,2.1854,2.231,2.231,0.0,0.0,0.0,0.0,0.0,0.0,0.0,0.0,0.0,0.0,0.0,0.0,0.0,0.0,0.0,0.0,2.231,2.231,0.0,0.0,0.0,0.0,0.0,0.0,0.0,0.0,0.0,0.0,0.0,0.0,0.0,0.0,0.0,0.0,0.0,0.0,0.0,0.0,0.0,0.0,2.8306,3.0107,3.0107,3.0651,3.119,3.119,3.009,2.8782,2.7964,2.6657,2.5373,2.4642,2.4495,2.473,2.5464,2.5615,2.6101,2.7589,2.8488,3.0022,3.2964,3.4033,3.5351,3.7635,3.7922,3.821,3.8937,3.9648,4.007,4.007,4.007,4.007,4.007,4.007,4.007,4.007,4.007,4.007,4.007,3.9343,3.8616,3.7889,3.7127,3.6366,3.5622,3.5622,3.5622,3.5622,3.5622,3.5622,0.0,3.5622,3.5622,3.5622,3.5622,3.5941,3.6416,3.6374,3.6374,3.6374,0.0,0.0,0.0,0.0,0.0,0.0,0.0,1.7811,1.7873,1.8115,1.8792,1.9536,2.0314,2.1075,2.1752,2.226,0.0,0.0,0.0,0.0,0.0,0.0,0.0,0.0,0.0,0.0,0.0,0.0,0.0,0.0,0.0,0.0,0.0,0.0,2.231,0.0,0.0,0.0,0.0,0.0,0.0,0.0,0.0,0.0,0.0,0.0,0.0,0.0,0.0,0.0,0.0,0.0,0.0,0.0,0.0,2.4313,2.6029,2.7883,2.8395,2.8698,2.8771,2.825,2.7748,2.7235,2.6453,2.5947,2.5537,2.5304,2.5245,2.5481,2.6236,2.6371,2.6995,2.9057,0.0,0.0,3.3051,3.4455,3.5723,3.6992,3.8464,3.9478,3.9715,3.9935,4.007,4.007,4.007,4.007,4.007,4.007,4.007,4.007,4.007,4.007,4.007,3.936,3.8633,3.7905,3.7669,3.7144,3.6434,3.6941,3.6907,3.6417,3.6417,3.6113,3.5622,3.5622,3.5622,3.5622,3.5622,3.5694,3.5854,3.5854,3.5854,3.5854,0.0,0.0,0.0,0.0,0.0,0.0,0.0,1.7811,1.7811,1.7811,1.8437,1.9063,1.9536,2.0551,2.1363,2.1837,0.0,0.0,0.0,0.0,0.0,0.0,0.0,0.0,0.0,0.0,0.0,0.0,0.0,0.0,0.0,0.0,0.0,0.0,0.0,0.0,0.0,0.0,0.0,0.0,0.0,0.0,2.3663,0.0,0.0,0.0,0.0,0.0,0.0,0.0,0.0,0.0,0.0,0.0,0.0,0.0,2.4368,2.5676,2.6706,2.7164,2.7279,2.6803,2.6499,2.6164,2.5698,2.538,2.5263,2.5531,2.5615,2.5849,2.6556,2.6691,2.7182,2.8612,2.9286,0.0,3.2286,3.4064,3.569,3.7043,3.8667,3.9665,3.9665,3.9918,4.007,4.007,4.007,4.007,4.007,4.007,4.007,4.007,4.007,4.007,4.007,3.9631,3.8903,3.7905,3.8176,3.777,3.6806,3.7567,3.7499,3.6772,3.6772,3.6332,0.0,3.5622,3.5622,3.5622,3.5622,3.5622,3.5622,3.5622,3.5622,3.5622,0.0,0.0,0.0,0.0,0.0,0.0,0.0,0.0,1.7726,1.7726,1.8352,1.8843,1.8894,2.0238,2.1153,2.1204,0.0,0.0,0.0,0.0,0.0,0.0,0.0,0.0,0.0,0.0,0.0,0.0,2.231,2.231,0.0,0.0,0.0,0.0,0.0,0.0,0.0,0.0,0.0,0.0,2.231,2.231,0.0,0.0,0.0,0.0,0.0,0.0,0.0,0.0,0.0,0.0,0.0,0.0,0.0,0.0,0.0,0.0,0.0,2.5918,2.6455,2.6402,2.5904,2.5438,2.5459,2.4946,0.0,2.5363,2.5581,2.5849,2.6556,2.6691,2.6759,2.6979,2.8207,2.9674,3.1241,3.3313,3.5487,3.7719,3.8582,3.9005,3.9056,3.9681,4.007,4.007,4.007,4.007,4.007,4.007,4.007,4.007,4.007,4.007,4.007,4.002,3.9326,3.799,3.8667,3.8278,3.6958,3.7669,3.7601,3.6924,3.6823,3.6366,3.569,3.5639,3.5622,3.5622,3.5622,3.5622,3.5622,3.5622,3.5622,3.5622,0.0,0.0,0.0,0.0,0.0,0.0,0.0,0.0,0.0,0.0,1.7591,1.8268,1.8843,1.9739,2.0534,0.0,0.0,0.0,0.0,0.0,0.0,0.0,0.0,0.0,0.0,0.0,0.0,2.231,2.231,2.231,2.231,2.231,0.0,0.0,0.0,0.0,0.0,0.0,0.0,0.0,2.231,2.231,0.0,0.0,0.0,0.0,2.231,2.231,0.0,0.0,0.0,0.0,0.0,0.0,0.0,0.0,2.257,2.2626,2.2962,0.0,2.4035,2.3493,2.3624,2.3927,0.0,2.4211,2.4555,2.4722,2.5217,2.5849,2.6556,2.6691,2.7452,2.977,3.0426,3.1395,3.3432,3.5182,3.6874,3.8531,3.8886,3.9208,3.9766,3.9969,4.007,4.007,4.007,4.007,4.007,4.007,4.007,4.007,4.007,4.007,4.007,3.9529,3.9073,3.8734,3.8903,3.8802,3.8481,3.865,3.865,3.8413,3.728,3.6671,3.6468,3.5859,3.5622,3.5622,3.5622,3.5622,3.5622,3.5622,3.5622,3.5622,0.0,0.0,0.0,0.0,0.0,0.0,0.0,0.0,0.0,0.0,0.0,0.0,0.0,0.0,0.0,0.0,0.0,0.0,0.0,0.0,0.0,0.0,0.0,0.0,0.0,0.0,0.0,0.0,0.0,2.231,0.0,0.0,0.0,0.0,0.0,0.0,0.0,0.0,0.0,0.0,2.231,0.0,0.0,0.0,0.0,0.0,2.231,2.231,0.0,2.231,2.231,2.231,0.0,0.0,0.0,0.0,2.231,2.231,2.231,2.283,2.33,2.2909,2.3119,2.3397,2.3397,0.0,0.0,0.0,0.0,2.5334,2.605,2.6736,2.7724,2.9369,3.0521,3.2068,3.4641,3.6056,3.7195,3.8362,3.8785,3.9157,3.9546,3.9884,3.9935,3.9597,3.958,3.9428,3.9106,3.9394,3.958,3.958,3.958,3.9732,4.007,3.9681,3.9157,3.8497,3.9174,3.914,3.8514,3.8853,3.8819,3.843,3.728,3.6586,3.6214,3.5791,3.5622,3.5622,3.5622,3.5622,3.5622,3.5622,3.5622,3.5622,0.0,0.0,0.0,0.0,0.0,0.0,0.0,0.0,0.0,0.0,0.0,0.0,0.0,0.0,0.0,0.0,0.0,0.0,0.0,0.0,0.0,0.0,0.0,0.0,0.0,0.0,0.0,0.0,0.0,0.0,0.0,0.0,0.0,0.0,0.0,0.0,0.0,0.0,0.0,0.0,2.231,0.0,0.0,0.0,0.0,0.0,0.0,0.0,0.0,2.231,2.231,2.231,2.231,0.0,0.0,0.0,0.0,0.0,2.244,2.3022,2.35,2.3277,2.3396,2.3551,2.342,0.0,0.0,0.0,0.0,2.493,2.5764,2.7078,2.811,2.8438,3.0286,3.2603,3.5256,3.618,3.6874,3.7652,3.8278,3.87,3.8819,3.9394,3.9495,3.887,3.8819,3.8565,3.7939,3.8599,3.8937,3.8836,3.8937,3.9242,3.9732,3.9749,3.9242,3.8261,3.9377,3.9276,3.8091,3.8599,3.8481,3.7855,3.6975,0.0,3.5791,3.5673,3.5622,3.5622,3.5622,3.5622,3.5622,3.5622,3.5622,3.5622,0.0,0.0,0.0,0.0,0.0,0.0,0.0,0.0,0.0,0.0,0.0,0.0,0.0,0.0,0.0,0.0,0.0,0.0,0.0,0.0,0.0,0.0,0.0,0.0,0.0,0.0,0.0,0.0,0.0,0.0,2.231,2.231,2.231,0.0,0.0,0.0,0.0,0.0,0.0,2.231,2.231,0.0,0.0,0.0,0.0,0.0,0.0,0.0,0.0,2.231,2.231,2.231,2.231,0.0,0.0,0.0,0.0,0.0,2.3056,2.3773,2.403,2.2784,2.3424,2.4161,2.3522,0.0,0.0,0.0,0.0,0.0,0.0,2.8203,2.9413,3.1325,3.2959,3.4395,3.5425,3.5723,3.6096,3.6857,3.706,3.7364,3.8007,3.8176,3.8193,3.8091,3.8075,3.8024,3.7922,3.8599,3.87,3.8091,3.8667,3.8751,3.8244,3.8244,3.8751,3.9732,3.9343,3.9039,3.8802,3.8311,3.8024,3.7821,0.0,3.6096,3.6552,3.5893,3.5622,3.5622,3.5622,3.5622,3.5622,3.5622,3.5622,3.5622,0.0,0.0,0.0,0.0,0.0,0.0,0.0,0.0,0.0,0.0,0.0,0.0,0.0,0.0,0.0,0.0,0.0,0.0,0.0,0.0,0.0,0.0,0.0,0.0,0.0,0.0,0.0,0.0,0.0,2.231,2.231,2.231,2.231,2.231,0.0,0.0,0.0,0.0,0.0,2.231,0.0,0.0,0.0,0.0,0.0,0.0,0.0,0.0,0.0,0.0,2.231,2.231,2.231,0.0,0.0,0.0,0.0,0.0,2.27,2.3346,2.376,2.3063,2.4014,2.5002,2.4661,0.0,0.0,0.0,0.0,0.0,0.0,2.9125,3.0921,3.3143,3.4051,3.4745,3.5493,3.5622,3.5757,3.6113,3.6535,3.6907,3.7263,3.7669,3.7736,3.733,3.7297,3.7127,3.6688,3.7381,3.7652,3.7313,3.7618,3.7838,3.7905,3.7499,3.7635,3.8294,3.8768,3.8565,3.7787,3.7449,3.7297,3.7229,0.0,3.5825,3.6129,3.5774,3.5622,3.5622,3.5622,3.5622,3.5622,3.5622,3.5622,3.5622,0.0,0.0,0.0,0.0,0.0,0.0,0.0,0.0,0.0,0.0,0.0,0.0,0.0,0.0,0.0,0.0,0.0,0.0,0.0,0.0,0.0,0.0,0.0,0.0,0.0,0.0,0.0,2.231,2.231,2.231,2.231,2.231,2.231,0.0,0.0,0.0,0.0,0.0,0.0,2.231,0.0,0.0,0.0,0.0,0.0,0.0,0.0,0.0,0.0,0.0,0.0,0.0,0.0,0.0,0.0,2.231,2.231,2.2344,2.2491,2.2956,2.3456,2.3604,2.4509,2.5438,2.5781,0.0,0.0,0.0,0.0,0.0,0.0,3.0192,3.2328,3.4208,3.4628,3.4953,3.5509,3.5622,3.5622,3.5622,3.6146,3.6502,3.6502,3.7026,3.7127,3.6552,3.6502,3.6248,3.5656,3.6349,3.6688,3.6502,3.6688,3.6975,3.7364,3.6975,3.6874,3.706,3.8193,3.8058,3.6772,3.6772,3.6688,3.6468,3.5876,3.5622,3.5622,3.5622,3.5622,3.5622,3.5622,3.5622,3.5622,3.5622,3.5622,3.5622,0.0,0.0,0.0,0.0,0.0,0.0,0.0,0.0,0.0,0.0,0.0,0.0,0.0,0.0,0.0,0.0,0.0,0.0,0.0,0.0,0.0,0.0,0.0,0.0,0.0,2.231,2.231,2.231,2.231,2.231,2.231,2.231,2.231,0.0,0.0,0.0,0.0,0.0,0.0,2.231,2.231,0.0,0.0,0.0,0.0,0.0,0.0,0.0,0.0,0.0,0.0,0.0,0.0,0.0,2.231,2.231,2.231,2.2457,2.3136,2.3357,2.3574,2.4248,2.4509,0.0,2.632,2.664,0.0,2.8477,0.0,0.0,0.0,3.1742,3.3517,3.4382,3.5082,3.5526,3.556,3.5622,3.5622,3.5622,3.5673,3.5707,3.5707,3.574,3.5757,3.5707,3.5707,3.5673,3.5622,3.6349,3.6451,3.5723,3.64,3.6468,3.5791,3.6451,3.7127,3.7821,3.7939,3.7567,3.6772,3.6772,3.6383,3.569,3.5639,3.5622,3.5622,3.5622,3.5622,3.5622,3.5622,3.5622,3.5622,3.5622,3.5622,3.5622,0.0,0.0,0.0,0.0,0.0,0.0,0.0,0.0,0.0,0.0,0.0,0.0,0.0,0.0,0.0,0.0,0.0,0.0,0.0,0.0,0.0,0.0,0.0,2.231,2.231,2.231,2.231,2.231,2.231,2.231,2.231,2.231,0.0,0.0,0.0,0.0,0.0,0.0,0.0,0.0,2.231,2.231,0.0,0.0,0.0,0.0,0.0,0.0,0.0,0.0,2.231,2.231,0.0,2.231,2.231,2.231,2.231,2.2361,2.2649,2.3232,2.3887,2.4378,2.4682,0.0,0.0,2.742,2.849,2.9766,3.0578,0.0,0.0,3.2824,3.3639,3.4399,3.5133,3.5622,3.5622,3.5622,3.5622,3.5622,3.5622,3.5622,3.5622,3.5622,3.5622,3.5622,3.5622,3.5622,3.5622,3.5893,3.5926,3.5622,3.591,3.591,3.5622,3.591,3.6197,3.6485,3.6975,3.6806,3.6062,3.6062,3.5893,3.5622,3.5622,3.5622,3.5622,3.5622,3.5622,3.5622,3.5622,3.5622,3.5622,3.5622,3.5622,3.5622,0.0,0.0,0.0,0.0,0.0,0.0,0.0,0.0,0.0,0.0,0.0,0.0,0.0,0.0,0.0,0.0,0.0,0.0,0.0,0.0,0.0,0.0,0.0,2.2073,2.231,2.231,2.231,2.231,2.231,2.231,2.231,0.0,0.0,0.0,0.0,0.0,0.0,0.0,0.0,0.0,2.231,2.231,0.0,0.0,0.0,0.0,0.0,0.0,0.0,0.0,2.231,0.0,0.0,0.0,0.0,2.231,2.2361,2.244,2.244,2.3056,2.3874,2.4365,0.0,0.0,2.7173,2.8168,2.9254,3.0735,3.151,3.2256,3.3208,0.0,3.3664,3.4365,3.5133,3.5622,3.5622,3.5622,3.5622,3.5622,3.5622,3.5622,3.5622,3.5622,3.5622,3.5622,3.5622,3.5622,3.5622,3.5622,3.5622,3.5622,3.5622,3.5622,3.5622,3.5622,3.5622,3.5622,3.6163,3.6129,3.5622,3.5622,3.5622,3.5622,3.5622,3.5622,3.5622,3.5622,3.5622,3.5622,3.5622,3.5622,3.5622,3.5622,3.5622,3.5622,0.0,0.0,0.0,0.0,0.0,0.0,0.0,0.0,0.0,0.0,0.0,0.0,0.0,0.0,0.0,0.0,0.0,0.0,0.0,0.0,0.0,0.0,0.0,2.1515,2.2276,2.231,2.231,2.231,2.231,2.231,2.231,0.0,0.0,0.0,0.0,0.0,0.0,0.0,0.0,0.0,0.0,2.231,2.231,0.0,0.0,0.0,0.0,0.0,0.0,0.0,2.231,2.231,0.0,0.0,0.0,2.231,2.2474,2.27,2.2711,2.2954,2.3409,0.0,0.0,0.0,2.8766,2.8803,2.9154,3.1348,3.1499,3.1671,3.3106,3.339,3.3659,3.437,3.5133,3.5622,3.5622,3.5622,3.5622,3.5622,3.5622,3.5622,3.5622,3.5622,3.5622,3.5622,3.5622,3.5622,3.5622,3.5622,3.5622,3.5622,3.5622,3.5622,3.5622,3.5622,3.5622,3.5622,3.5622,3.5622,3.5622,3.5622,3.5622,3.5622,3.5622,3.5622,3.5622,3.5622,3.5622,3.5622,3.5622,3.5622,3.5622,3.5622,3.5622,3.5622,0.0,0.0,0.0,0.0,0.0,0.0,0.0,0.0,0.0,0.0,0.0,0.0,0.0,0.0,0.0,0.0,0.0,0.0,0.0,0.0,0.0,0.0,0.0,0.0,0.0,0.0,2.231,2.231,2.231,2.231,0.0,0.0,0.0,2.1532,0.0,0.0,0.0,0.0,0.0,0.0,0.0,2.231,2.231,0.0,0.0,0.0,0.0,0.0,0.0,0.0,0.0,0.0,0.0,0.0,0.0,2.231,2.2361,2.248,2.264,2.3772,0.0,2.5134,0.0,0.0,0.0,3.0446,0.0,0.0,3.2774,3.2967,3.3357,3.3802,3.4267,3.446,3.5459,3.6034,3.5656,3.5904,3.6034,3.5656,3.5622,3.5622,3.5622,3.5622,3.5622,3.5622,3.5622,3.5622,3.5622,3.5622,3.5622,3.5622,3.5622,3.5622,3.5622,3.5622,3.5622,3.5622,3.5622,3.5622,3.5622,3.5622,3.5622,3.5622,3.5622,3.5622,3.5622,3.5622,3.5622,3.5622,3.5622,3.5622,3.5622,3.5622,3.5622,3.5622,0.0,0.0,0.0,0.0,0.0,0.0,0.0,0.0,0.0,0.0,0.0,0.0,0.0,0.0,0.0,0.0,0.0,0.0,0.0,0.0,0.0,0.0,0.0,0.0,0.0,2.1921,2.231,0.0,0.0,0.0,0.0,0.0,0.0,2.0737,0.0,0.0,0.0,0.0,0.0,0.0,0.0,2.1854,2.1887,0.0,0.0,0.0,0.0,0.0,0.0,0.0,0.0,0.0,0.0,0.0,0.0,2.244,2.2553,2.2781,2.3425,2.4514,0.0,2.627,2.8147,3.0215,3.1725,0.0,0.0,0.0,3.3051,3.3001,3.3354,3.3758,3.4236,3.4757,3.5707,3.6293,3.5976,3.6174,3.6214,3.5673,3.5622,3.5622,3.5622,3.5622,3.5622,3.5622,3.5622,3.5622,3.5622,3.5622,3.5622,3.5622,3.5622,3.5622,3.5622,3.5622,3.5622,3.5622,3.5622,3.5622,3.5622,3.5622,3.5622,3.5622,3.5622,3.5622,3.5622,3.5622,3.5622,3.5622,3.5622,3.5622,3.5622,3.5622,3.5622,3.5622,0.0,0.0,1.5392,1.4733,0.0,0.0,0.0,0.0,0.0,0.0,0.0,1.7811,0.0,0.0,0.0,1.7811,0.0,0.0,0.0,0.0,0.0,0.0,0.0,0.0,0.0,0.0,0.0,0.0,0.0,0.0,0.0,0.0,1.9951,1.99,0.0,1.9951,0.0,0.0,0.0,0.0,2.0788,2.1075,2.1143,2.1837,0.0,0.0,0.0,0.0,0.0,0.0,0.0,0.0,2.231,2.231,2.2344,2.2587,2.2907,2.3409,2.4555,2.5141,2.5847,2.7419,2.9067,0.0,3.3283,3.3523,3.3313,3.3486,3.2661,3.2178,3.3111,3.3367,3.379,3.4987,3.5851,3.6365,3.6345,3.6422,3.6265,3.5723,3.5639,3.5622,3.5622,3.5622,3.5622,3.5622,3.5622,3.5622,3.5622,3.5622,3.5622,3.5622,3.5622,3.5622,3.5622,3.5622,3.5622,3.5622,3.5622,3.5622,3.5622,3.5622,3.5622,3.5622,3.5622,3.5622,3.5622,3.5622,3.5622,3.5622,3.5622,3.5622,3.5622,3.5622,3.5622,3.5605,0.0,0.0,1.5544,1.5392,0.0,0.0,0.0,0.0,0.0,1.6936,1.7439,1.7811,1.7811,1.7811,0.0,1.7811,1.7811,0.0,0.0,0.0,0.0,0.0,0.0,0.0,0.0,0.0,0.0,0.0,0.0,0.0,0.0,0.0,0.0,1.9164,0.0,1.9664,0.0,0.0,0.0,0.0,2.017,2.0255,2.0272,2.0424,2.0491,0.0,0.0,0.0,0.0,0.0,0.0,0.0,2.231,2.231,2.231,2.2361,2.2586,2.3073,2.4218,2.5205,0.0,2.7479,2.9491,3.1616,3.3395,3.3733,3.3505,3.2875,3.2732,3.2696,3.2547,3.3002,3.3607,3.4259,3.5339,3.6077,3.6017,3.6601,3.6825,3.6282,3.5853,3.5622,3.5622,3.5622,3.5622,3.5622,3.5622,3.5622,3.5622,3.5622,3.5622,3.5622,3.5622,3.5622,3.5622,3.5622,3.5622,3.5622,3.5622,3.5622,3.5622,3.5622,3.5622,3.5622,3.5622,3.5622,3.5622,3.5622,3.5622,3.5622,3.5622,3.5622,3.5622,3.5622,3.5622,3.5537,0.0,0.0,0.0,0.0,0.0,0.0,0.0,0.0,1.6834,1.7168,1.7557,1.7676,1.7304,1.727,0.0,0.0,1.7067,1.727,0.0,0.0,0.0,0.0,0.0,0.0,0.0,0.0,0.0,0.0,0.0,0.0,0.0,0.0,0.0,1.891,0.0,1.9266,0.0,0.0,0.0,1.8971,1.9326,1.9486,1.9519,1.9866,2.0002,2.0052,2.0483,0.0,0.0,0.0,0.0,0.0,0.0,0.0,2.2327,2.2457,2.2704,2.3275,2.4811,0.0,0.0,2.8975,0.0,3.1828,3.3423,3.3633,3.3368,3.293,3.2785,3.2684,3.2439,3.2826,3.3425,3.4125,3.51,3.5736,3.5721,3.622,3.6404,3.5902,3.569,3.5622,3.5622,3.5622,3.5622,3.5622,3.5622,3.5622,3.5622,3.5622,3.5622,3.5622,3.5622,3.5622,3.5622,3.5622,3.5622,3.5622,3.5622,3.5622,3.5622,3.5622,3.5622,3.5622,3.5622,3.5622,3.5622,3.5622,3.5622,3.5622,3.5622,3.5622,3.5622,3.5622,3.5622,3.5504,0.0,0.0,0.0,0.0,0.0,0.0,0.0,0.0,0.0,1.754,1.7726,1.7523,1.6783,1.6699,1.6411,0.0,0.0,0.0,1.6699,0.0,0.0,0.0,0.0,0.0,0.0,0.0,0.0,0.0,0.0,0.0,0.0,0.0,0.0,1.8894,0.0,0.0,0.0,0.0,0.0,1.7862,1.8454,1.8707,1.8775,1.9376,1.9613,1.963,1.9748,2.0228,2.0826,2.1106,0.0,0.0,0.0,0.0,2.2198,2.2536,2.2909,2.3596,2.5335,0.0,2.7492,3.0443,3.1304,0.0,3.3276,3.3423,3.3313,3.3313,3.2891,3.251,3.2479,3.271,3.3202,3.4067,3.4821,3.5312,3.5399,3.5599,3.5572,3.5152,3.5178,3.5273,3.5425,3.5408,3.547,3.5605,3.5622,3.5622,3.5622,3.5622,3.5622,3.5622,3.5622,3.5622,3.5622,3.5622,3.5622,3.5622,3.5622,3.5622,3.5622,3.5622,3.5622,3.5622,3.5622,3.5622,3.5622,3.5622,3.5622,3.5622,3.5622,3.5622,3.5622,3.5622,3.5537,3.5318,0.0,0.0,0.0,0.0,0.0,0.0,0.0,0.0,0.0,0.0,1.7405,1.7523,1.6783,1.6699,1.6411,1.5663,1.568,1.6018,0.0,0.0,0.0,0.0,0.0,0.0,0.0,0.0,0.0,0.0,0.0,0.0,0.0,0.0,0.0,0.0,0.0,0.0,0.0,0.0,0.0,1.7811,1.7912,1.7963,1.7963,1.8065,1.8099,1.8183,1.8826,1.9124,1.941,2.0736,2.081,0.0,0.0,0.0,2.1479,2.2153,2.2762,2.3404,2.4372,0.0,2.8095,0.0,3.0869,3.1637,3.2547,3.3276,3.3733,3.3733,3.3076,3.2504,3.2504,3.2555,3.2744,3.3284,3.4019,3.4678,3.5027,3.5,3.492,3.488,3.4179,3.396,3.4578,3.4655,3.4912,3.5571,3.5622,3.5622,3.5622,3.5622,3.5622,3.5622,3.5622,3.5622,3.5622,3.5622,3.5622,3.5622,3.5622,3.5622,3.5622,3.5622,3.5622,3.5622,3.5622,3.5622,3.5622,3.5622,3.5622,3.5622,3.5622,3.5622,3.5622,3.5622,3.5199,3.4539,0.0,0.0,0.0,0.0,0.0,0.0,0.0,0.0,0.0,0.0,0.0,1.7523,1.6783,1.6343,1.5781,1.5054,1.4986,0.0,0.0,0.0,0.0,0.0,0.0,0.0,0.0,0.0,0.0,0.0,0.0,0.0,0.0,1.9536,1.9756,0.0,0.0,0.0,0.0,0.0,0.0,1.7811,1.7811,1.8065,0.0,0.0,1.8065,1.8403,0.0,0.0,1.9011,1.9687,1.9937,2.0108,2.079,0.0,0.0,0.0,2.2536,2.3552,2.5186,2.6707,2.8187,0.0,3.0796,3.1604,3.2436,3.3213,3.3807,3.3807,3.3505,3.3213,3.3212,3.3038,3.3048,3.3486,3.3825,3.4109,3.4301,3.4209,3.4147,3.4117,3.3724,3.3539,3.3863,3.4269,3.4455,3.4387,3.5148,3.5436,3.5013,3.4979,3.5182,3.5605,3.481,3.4573,3.4979,3.4979,3.5199,3.5622,3.5622,3.5622,3.5622,3.5622,3.5622,3.5622,3.5622,3.5622,3.5622,3.5622,3.5622,3.5622,3.5622,3.5368,3.4979,3.4979,3.4523,3.3778,0.0,0.0,0.0,0.0,0.0,0.0,0.0,0.0,0.0,0.0,0.0,1.7304,1.6766,0.0,0.0,0.0,1.4344,0.0,0.0,0.0,0.0,0.0,0.0,0.0,0.0,0.0,0.0,0.0,0.0,0.0,2.0002,2.0002,2.0534,0.0,2.067,0.0,0.0,0.0,0.0,1.8082,1.8082,1.8403,1.886,1.8504,1.8707,1.908,0.0,0.0,0.0,0.0,1.9134,1.9498,1.9891,2.033,0.0,0.0,0.0,2.3513,2.5695,0.0,2.783,2.9242,3.0351,3.1291,3.2125,3.2912,3.3505,3.3505,3.3505,3.3505,3.3505,3.3405,3.3441,3.3752,3.3807,3.3807,3.3807,3.3615,3.346,3.3343,3.3127,3.3009,3.3104,3.3626,3.3778,3.344,3.4438,3.481,3.4252,3.4218,3.4472,3.503,3.3981,3.366,3.4218,3.4404,3.4878,3.5622,3.5622,3.5622,3.5622,3.5622,3.552,3.5334,3.5334,3.5334,3.5318,3.5131,3.5165,3.5334,3.5334,3.4979,3.4489,3.4489,3.3914,3.3034,0.0,0.0,0.0,0.0,0.0,0.0,0.0,0.0,0.0,0.0,0.0,1.6749,1.6699,1.6035,1.5308,1.4562,1.3853,0.0,0.0,0.0,0.0,0.0,0.0,0.0,0.0,0.0,0.0,0.0,0.0,0.0,2.0002,2.0002,2.0795,2.2226,2.1465,2.0314,1.8944,0.0,0.0,0.0,1.8843,1.886,1.8961,1.9613,1.9917,1.9849,0.0,0.0,0.0,0.0,0.0,1.8177,1.957,1.9716,1.9532,0.0,0.0,0.0,2.4928,2.6054,2.6877,2.772,2.9108,3.0483,3.1289,3.2074,3.2665,3.2665,3.2665,3.2665,3.2665,3.3276,3.3788,3.3807,3.3807,3.3807,3.3807,3.3486,3.3076,3.262,3.2156,3.2015,3.2349,3.2394,3.2679,3.3355,3.3474,3.3508,3.3457,3.3457,3.3474,3.3525,3.344,3.3423,3.3457,3.415,3.4878,3.5622,3.5622,3.5622,3.5622,3.5622,3.5233,3.4556,3.4556,3.4556,3.4489,3.3795,3.3931,3.4556,3.4556,3.4523,3.4489,3.4489,3.3575,3.2364,0.0,0.0,0.0,0.0,0.0,0.0,0.0,0.0,0.0,0.0,0.0,0.0,0.0,1.6035,1.5308,1.4562,0.0,0.0,0.0,0.0,0.0,0.0,0.0,0.0,0.0,0.0,0.0,0.0,0.0,1.8318,1.9299,1.9299,1.9858,2.0795,2.0568,2.0416,2.0264,1.8809,0.0,0.0,1.9096,1.9486,0.0,2.0111,2.0331,2.067,0.0,0.0,0.0,0.0,0.0,1.8597,1.9143,1.9172,1.9307,2.0746,2.1817,2.2938,2.4633,2.5441,2.6038,2.6813,2.8223,2.9494,2.9783,3.0878,3.1828,3.1828,3.1829,3.1839,3.1839,3.2485,3.3195,3.3733,3.3807,3.3807,3.3807,3.3441,3.3021,3.2563,3.2088,3.1771,3.1613,3.2026,3.219,3.1985,3.2865,3.3186,3.2713,3.2679,3.2899,3.3389,3.2476,3.2222,3.2679,3.2949,3.3457,3.4201,3.4201,3.4201,3.4201,3.4201,3.4049,3.3778,3.3288,3.3355,3.3778,3.3508,3.3558,3.3795,3.3795,3.3491,3.3068,3.3068,3.2442,3.1579,0.0,0.0,0.0,1.7811,0.0,1.7388,1.6153,1.6394,0.0,0.0,0.0,0.0,0.0,0.0,0.0,0.0,0.0,0.0,0.0,0.0,0.0,0.0,0.0,0.0,0.0,0.0,0.0,0.0,0.0,0.0,0.0,0.0,1.9164,1.9613,1.9613,2.023,0.0,0.0,0.0,2.0365,0.0,0.0,2.1187,0.0,2.1109,2.1465,0.0,0.0,0.0,0.0,0.0,0.0,1.899,1.8785,1.9013,2.0843,2.176,2.2539,2.4074,0.0,2.5556,2.6234,2.7306,2.8368,2.9058,2.993,3.0677,3.094,3.0993,3.0993,3.0993,3.1648,3.2467,3.3258,3.3615,3.3807,3.3807,3.3441,3.3048,3.2547,3.209,3.1647,3.1224,3.1647,3.1715,3.1224,3.2104,3.2442,3.1952,3.1918,3.2154,3.2645,3.1715,3.1546,3.2273,3.2313,3.2662,3.3406,3.3406,3.3406,3.3406,3.3406,3.3271,3.3,3.2493,3.256,3.3,3.2763,3.2814,3.3034,3.3034,3.2713,3.2313,3.2313,3.1816,3.119,1.8724,1.8302,1.7811,1.7811,1.7811,1.7557,1.6817,1.6699,1.6699,0.0,0.0,0.0,0.0,0.0,0.0,0.0,0.0,0.0,0.0,0.0,0.0,0.0,0.0,0.0,0.0,0.0,0.0,0.0,0.0,0.0,0.0,0.0,1.8843,0.0,1.886,1.9705,2.117,0.0,2.1153,2.1204,0.0,2.1204,2.1322,0.0,0.0,0.0,2.1481,2.1237,0.0,2.0331,0.0,0.0,1.9177,1.862,1.8603,2.0406,2.1139,2.1742,0.0,0.0,0.0,2.5818,2.6225,2.7056,2.8993,2.9187,2.9145,2.9955,3.0125,3.0143,3.0162,3.084,3.1666,3.2436,3.3276,3.3807,3.3807,3.3468,3.304,3.2575,3.2091,3.1664,3.1224,3.119,3.119,3.119,3.119,3.119,3.119,3.119,3.119,3.119,3.119,3.1529,3.2239,3.2297,3.2611,3.3339,3.3339,3.3339,3.3339,3.3339,3.2933,3.2297,3.2297,3.2297,3.2188,3.1495,3.1613,3.2297,3.2297,3.2297,3.2297,3.2297,3.1799,3.119,1.8065,1.7946,1.7811,1.7811,1.7811,1.7557,1.6817,1.6699,0.0,0.0,0.0,0.0,0.0,0.0,0.0,0.0,0.0,0.0,0.0,0.0,0.0,0.0,0.0,0.0,0.0,0.0,0.0,0.0,0.0,0.0,0.0,0.0,0.0,0.0,1.8115,1.8944,2.0264,1.9198,0.0,0.0,2.0568,2.1008,0.0,0.0,0.0,0.0,0.0,2.2006,2.1983,0.0,2.1473,2.0711,0.0,1.9625,1.971,2.0788,2.1326,2.1742,2.2731,0.0,0.0,0.0,0.0,0.0,2.5725,2.6374,2.7118,2.7944,2.8301,2.8659,2.92,3.0485,3.1457,3.1699,3.2893,3.3807,3.3807,3.3715,3.3361,3.2599,3.238,3.1998,3.128,3.119,3.119,3.119,3.119,3.119,3.119,3.119,3.119,3.119,3.119,3.1292,3.1495,3.1495,3.1596,3.1799,3.1799,3.1799,3.1799,3.1799,3.1698,3.1495,3.1495,3.1495,3.1478,3.1275,3.1309,3.1495,3.1495,3.1495,3.1495,3.1495,3.1376,3.119,1.8268,1.8521,1.8616,1.8318,1.8268,1.8014,1.727,1.7151,1.7151,0.0,0.0,0.0,0.0,0.0,0.0,0.0,0.0,0.0,0.0,0.0,1.468,1.5122,1.5443,0.0,0.0,0.0,0.0,0.0,0.0,0.0,0.0,0.0,0.0,0.0,0.0,1.8115,1.8589,1.8031,0.0,0.0,2.1025,0.0,0.0,2.231,2.231,0.0,0.0,0.0,2.2321,2.2473,2.1939,0.0,0.0,2.0365,2.0144,2.0958,2.1385,2.1752,2.2487,2.2939,0.0,2.344,0.0,0.0,2.4699,2.5512,2.635,2.7321,2.793,2.8429,2.892,3.0051,3.1004,3.1354,3.2474,3.3405,3.3752,3.3505,3.3081,3.2557,3.2182,3.1771,3.1224,3.119,3.119,3.119,3.119,3.119,3.119,3.119,3.119,3.119,3.119,3.119,3.119,3.119,3.119,3.119,3.119,3.119,3.119,3.119,3.119,3.119,3.119,3.119,3.119,3.119,3.119,3.119,3.119,3.119,3.119,3.119,3.119,3.119,0.0,1.9384,1.9647,1.891,1.891,1.8775,1.8031,1.7929,1.7941,0.0,0.0,0.0,0.0,0.0,0.0,0.0,0.0,0.0,0.0,0.0,1.4613,1.4613,1.5257,1.59,0.0,0.0,0.0,0.0,0.0,0.0,0.0,0.0,0.0,0.0,1.6931,1.7236,1.6766,1.7659,1.9215,2.1109,2.1786,2.2158,0.0,0.0,2.231,2.231,2.231,2.231,2.231,2.231,2.1888,0.0,2.1619,2.1033,2.0416,2.1128,2.1479,0.0,2.2474,2.2875,0.0,2.3624,2.3476,0.0,2.4871,2.5512,2.616,2.7161,2.7969,2.8544,2.8714,2.9407,3.0215,3.1008,3.1909,3.2838,3.3697,3.3121,3.263,3.2573,3.183,3.1331,3.128,3.1224,3.119,3.119,3.119,3.119,3.119,3.119,3.119,3.119,3.119,3.119,3.119,3.119,3.119,3.119,3.119,3.119,3.119,3.119,3.119,3.119,3.119,3.119,3.119,3.119,3.119,3.119,3.119,3.119,3.119,3.119,3.119,3.119,1.8014,1.8606,1.8877,1.8149,1.8988,1.9529,1.8792,1.8691,1.891,0.0,0.0,0.0,0.0,0.0,0.0,0.0,0.0,0.0,0.0,0.0,1.5392,1.5392,1.5511,1.5663,1.5798,0.0,0.0,0.0,0.0,0.0,0.0,0.0,0.0,0.0,1.5646,1.6272,1.6834,1.8758,1.9816,2.0238,2.039,0.0,2.231,2.231,2.231,2.231,2.231,2.231,2.231,2.231,2.2341,2.2365,2.2214,2.2023,2.1877,2.204,2.2119,2.2198,2.2344,2.244,2.2491,2.2587,2.3005,0.0,2.3005,2.3647,2.4399,2.4689,2.5041,2.57,2.6986,2.7908,2.8672,2.9423,3.1038,3.2565,3.3633,3.3633,3.3441,3.3106,3.2603,3.2105,3.1698,3.1382,3.119,3.119,3.119,3.119,3.119,3.119,3.119,3.119,3.119,3.119,3.119,3.119,3.119,3.119,3.119,3.119,3.119,3.119,3.119,3.119,3.119,3.119,3.119,3.119,3.119,3.119,3.119,3.119,3.119,3.119,3.119,3.119,1.8352,1.9266,1.979,1.9022,1.9858,2.0348,1.9587,1.9452,0.0,0.0,0.0,0.0,0.0,0.0,0.0,0.0,0.0,0.0,0.0,0.0,1.5815,1.5088,1.5409,1.5595,1.5595,1.6678,0.0,0.0,0.0,0.0,0.0,0.0,0.0,0.0,0.0,1.6559,1.732,1.8414,1.9326,2.0069,2.0829,0.0,2.231,2.231,2.231,2.231,2.231,2.231,2.2321,2.2436,2.25,0.0,2.298,2.2966,2.284,2.2852,2.283,2.2779,2.2406,2.231,2.2378,2.2762,2.283,0.0,0.0,2.3532,2.4093,2.4643,2.489,2.5356,2.6576,2.6809,2.7201,2.8355,2.9538,3.0695,3.1883,3.2893,3.332,3.2912,3.2446,3.1969,3.1533,3.1331,3.119,3.119,3.119,3.119,3.119,3.119,3.119,3.119,3.119,3.119,3.119,3.119,3.119,3.119,3.119,3.119,3.119,3.119,3.119,3.119,3.119,3.119,3.119,3.119,3.119,3.119,3.119,3.119,3.119,3.119,3.119,3.119,1.8691,1.9908,2.072,1.9917,2.0686,2.1126,2.0339,2.0221,0.0,0.0,0.0,0.0,0.0,0.0,0.0,0.0,0.0,0.0,0.0,0.0,1.6373,1.5187,1.5578,1.5798,1.5798,1.6525,1.7117,0.0,0.0,0.0,0.0,0.0,0.0,0.0,0.0,0.0,0.0,0.0,0.0,2.0322,0.0,2.2175,2.231,2.231,2.231,2.231,2.231,2.231,2.2321,2.2563,2.249,2.2468,2.3309,2.3392,2.3228,2.3351,2.3392,2.3295,2.2841,2.2716,2.2813,2.33,2.3073,2.2865,0.0,0.0,0.0,2.4757,2.4913,2.5219,2.5991,2.563,2.5661,2.7074,2.7859,2.8627,2.9584,3.142,3.2556,3.2319,3.1999,3.1679,3.1329,3.1111,3.1043,3.119,3.1072,3.1055,3.119,3.119,3.119,3.119,3.119,3.119,3.119,3.119,3.119,3.119,3.119,3.119,3.119,3.119,3.119,3.119,3.119,3.119,3.119,3.119,3.119,3.119,3.119,3.119,3.119,3.119,3.119,3.119,1.7929,1.9106,1.9883,1.9164,2.0771,2.1921,2.116,2.1042,0.0,0.0,0.0,0.0,0.0,0.0,0.0,0.0,0.0,0.0,1.8691,0.0,0.0,1.7417,1.6881,1.658,1.658,1.7304,1.7405,0.0,0.0,0.0,0.0,0.0,1.5984,1.4851,1.6813,0.0,0.0,0.0,2.0264,0.0,2.1245,2.1718,0.0,2.231,2.231,2.231,2.231,2.231,2.231,0.0,2.2338,2.2327,0.0,2.2474,2.2564,2.3219,2.341,2.3528,2.4088,2.4245,2.4113,2.3557,2.3829,2.3933,2.2757,0.0,2.33,2.2779,0.0,2.2898,2.3647,0.0,0.0,2.4764,2.6402,2.7563,2.7725,2.9401,3.0836,3.1438,3.17,3.1777,3.1737,3.0844,3.05,3.1123,3.0598,3.0514,3.1157,3.119,3.119,3.119,3.119,3.119,3.119,3.119,3.119,3.119,3.119,3.119,3.119,3.119,3.119,3.119,3.119,3.119,3.119,3.119,3.119,3.119,3.119,3.119,3.119,3.119,3.119,3.119,1.7811,1.8988,1.9765,1.9029,2.0788,2.2057,2.1322,2.1549,0.0,0.0,0.0,0.0,0.0,0.0,0.0,0.0,0.0,1.9866,0.0,0.0,0.0,1.8454,1.7726,1.7337,1.7337,1.7219,1.7219,1.7337,1.7659,0.0,0.0,0.0,1.6834,1.7067,1.7591,0.0,1.9773,0.0,2.0187,0.0,0.0,2.138,0.0,2.2141,2.231,2.231,2.231,2.2581,2.2936,0.0,2.2936,0.0,0.0,2.363,2.3088,2.3816,2.4052,2.4019,2.3892,2.4359,2.4734,2.4154,2.4122,2.3981,2.3119,2.283,2.2796,2.2909,0.0,0.0,0.0,0.0,0.0,0.0,2.4739,2.5489,2.568,2.698,2.8544,3.0144,3.0435,3.0594,3.0808,3.0391,3.0411,3.1127,3.0513,3.0415,3.1157,3.119,3.119,3.119,3.119,3.119,3.119,3.119,3.119,3.119,3.119,3.119,3.119,3.119,3.119,3.119,3.119,3.119,3.119,3.119,3.119,3.119,3.119,3.119,3.119,3.119,3.119,3.119,1.8099,1.8978,1.9579,1.9266,2.0754,2.1887,2.1532,2.1955,2.231,0.0,0.0,0.0,2.231,2.182,0.0,0.0,2.0974,2.0525,0.0,0.0,2.0094,1.9536,1.8809,1.8397,1.8397,1.7676,1.7456,1.7811,1.7811,0.0,0.0,0.0,0.0,1.8302,0.0,1.9333,2.0839,0.0,2.0441,2.066,2.1042,2.1312,2.1549,2.2107,2.231,2.231,2.231,2.2784,2.3393,2.3393,2.3528,0.0,2.4966,2.456,2.3849,2.4577,2.478,2.4712,2.4391,2.4923,2.5377,2.4675,2.4298,2.395,2.3255,2.283,2.2762,2.3283,2.3136,0.0,0.0,0.0,2.3022,0.0,0.0,2.4149,2.4191,2.509,2.6488,2.8565,2.9194,2.953,2.9761,2.9621,2.9888,3.0818,3.0236,3.0229,3.1157,3.119,3.119,3.119,3.119,3.119,3.119,3.119,3.119,3.119,3.119,3.119,3.119,3.119,3.119,3.119,3.119,3.119,3.119,3.119,3.119,3.119,3.119,3.119,3.119,3.119,3.119,3.119,1.886,1.8894,0.0,0.0,2.067,2.1465,2.2175,2.2293,2.231,2.231,0.0,0.0,0.0,0.0,0.0,0.0,0.0,2.1921,2.1221,0.0,2.1153,2.1136,2.0365,1.9934,1.9934,1.9215,1.8488,1.7811,1.7811,0.0,0.0,0.0,0.0,0.0,0.0,1.9968,2.0086,2.0839,2.1566,2.2175,2.1465,2.1617,2.2276,0.0,2.231,2.231,2.231,0.0,0.0,2.3393,2.3866,0.0,0.0,0.0,0.0,2.5355,2.5575,2.5727,0.0,0.0,0.0,2.4849,0.0,0.0,2.266,2.2875,2.338,2.3397,2.3966,2.443,2.4475,0.0,0.0,0.0,0.0,0.0,0.0,2.4076,2.5094,2.6606,2.81,2.9005,2.9021,2.8355,2.8486,3.0023,2.9451,2.9668,3.1106,3.119,3.119,3.119,3.119,3.119,3.119,3.119,3.119,3.119,3.119,3.119,3.119,3.119,3.119,3.119,3.119,3.119,3.119,3.119,3.119,3.119,3.119,3.119,3.119,3.119,3.119,3.119,0.0,0.0,0.0,0.0,0.0,2.2023,2.2276,2.231,2.2496,0.0,2.2615,0.0,0.0,2.2598,2.231,0.0,0.0,2.2192,2.1938,2.1921,0.0,2.1921,2.1194,2.0788,0.0,2.0044,1.9283,1.8538,1.8538,1.8403,0.0,0.0,0.0,0.0,0.0,2.0289,0.0,0.0,0.0,0.0,0.0,2.2378,2.297,0.0,2.2615,2.3038,2.3038,2.3816,0.0,2.4864,2.5017,2.5304,2.5795,2.5302,2.4659,2.5389,2.5609,2.5659,0.0,0.0,2.6794,2.5558,0.0,0.0,0.0,0.0,2.3393,2.3401,2.3998,2.449,2.449,0.0,0.0,0.0,0.0,2.3676,0.0,2.3624,2.3967,2.4454,2.6277,2.7487,2.7498,2.7666,2.8458,2.9987,2.9423,2.9621,3.1123,3.119,3.119,3.119,3.119,3.119,3.119,3.119,3.119,3.119,3.119,3.119,3.119,3.119,3.119,3.119,3.119,3.119,3.119,3.119,3.119,3.119,3.119,3.119,3.119,3.119,3.119,3.119,2.0433,0.0,0.0,0.0,0.0,2.231,2.231,2.253,0.0,0.0,2.3207,0.0,2.3731,0.0,2.3088,0.0,2.2852,2.2699,2.2699,2.2462,0.0,2.231,2.1837,2.1465,0.0,2.0686,2.0061,1.9299,1.9299,1.9299,0.0,0.0,0.0,0.0,0.0,2.0297,2.0839,2.187,2.2175,0.0,0.0,2.3359,0.0,0.0,2.3376,2.3782,0.0,2.456,2.5609,2.5609,2.5778,2.6065,2.6539,2.6031,2.5372,2.5845,2.5998,2.5998,2.5998,2.6516,0.0,2.5842,2.5439,0.0,2.4041,0.0,2.4194,2.4191,2.476,2.528,2.528,0.0,0.0,0.0,0.0,0.0,0.0,2.3022,2.3022,2.3022,2.4726,2.6026,2.6286,2.6505,2.7351,2.9143,2.8844,2.9237,3.0718,3.105,3.119,3.119,3.119,3.119,3.119,3.119,3.119,3.119,3.119,3.119,3.119,3.119,3.119,3.119,3.119,3.119,3.119,3.119,3.119,3.119,3.119,3.119,3.119,3.119,3.119,3.119,2.1254,2.1854,0.0,0.0,2.1837,0.0,0.0,0.0,2.341,0.0,2.4052,2.4523,2.4557,2.4523,2.4506,2.4506,2.3849,2.3444,2.3444,2.2801,0.0,0.0,2.2361,2.2006,2.1271,2.1254,2.0856,2.0052,2.0052,2.0052,0.0,0.0,0.0,0.0,1.9756,0.0,2.0154,2.164,2.2733,2.346,2.4222,2.4557,2.4574,2.4608,2.4625,2.4608,2.4574,2.5017,2.5659,2.5659,2.6116,2.6691,2.6691,2.6691,2.6691,2.6691,2.6691,2.6691,2.6691,2.6691,2.6522,2.5845,2.5642,0.0,0.0,0.0,2.5605,0.0,2.6179,2.6691,2.6691,0.0,0.0,0.0,0.0,0.0,2.2473,2.2344,2.2344,2.2344,2.3545,2.4675,2.5413,2.493,2.5447,2.7571,2.7801,2.8483,3.0001,3.0752,3.1157,3.119,3.1157,3.1157,3.119,3.1157,3.1157,3.119,3.119,3.119,3.119,3.119,3.119,3.119,3.119,3.119,3.119,3.119,3.119,3.119,3.119,3.119,3.119,3.119,3.119,3.1095,2.2023,2.2615,2.2885,0.0,2.2175,2.231,0.0,0.0,0.0,0.0,2.4388,2.4726,2.5253,2.4814,2.4506,2.4506,2.4337,0.0,0.0,0.0,0.0,2.3139,2.3122,2.2767,2.204,2.2023,2.1651,2.0889,2.0889,0.0,2.0873,0.0,0.0,0.0,0.0,0.0,2.094,2.1904,2.2733,2.3511,2.4797,2.5321,2.5372,0.0,2.6133,2.6048,2.5507,2.5795,2.642,2.642,2.6539,2.6691,2.6691,2.6691,2.6691,2.6691,2.6691,2.6691,2.6691,2.6691,2.664,2.6454,2.6015,2.5558,0.0,0.0,0.0,0.0,0.0,0.0,0.0,0.0,0.0,2.6152,2.5505,2.4584,2.3289,2.3136,2.3136,2.3136,2.296,2.3136,2.3884,2.479,2.5778,2.6899,2.75,2.848,3.0007,3.0281,3.0611,3.1173,3.0666,3.0649,3.119,3.0666,3.0666,3.119,3.119,3.119,3.119,3.119,3.119,3.119,3.119,3.119,3.119,3.119,3.119,3.119,3.119,3.119,3.119,3.119,3.119,3.1095,2.2733,2.3376,0.0,2.3325,0.0,0.0,2.2835,2.3122,0.0,2.4421,2.4763,0.0,2.5558,2.5507,2.5439,2.5439,2.5169,0.0,2.4983,0.0,0.0,2.3883,2.3866,2.3528,2.2801,2.2784,0.0,2.1684,0.0,0.0,2.1651,0.0,0.0,0.0,0.0,2.1204,2.1305,2.2665,2.3494,2.4002,2.549,2.6082,0.0,2.6539,2.6691,2.664,2.6234,2.6353,2.6691,2.6691,2.6691,2.6691,2.6691,2.6691,2.6691,2.6691,2.6691,2.6691,2.6691,2.6691,2.6691,2.6691,2.6387,2.6082,2.6082,2.6082,2.6065,0.0,2.642,2.6691,0.0,0.0,2.6116,2.5788,2.5381,2.4717,2.355,2.3401,2.3283,2.2943,2.2858,2.2819,2.2915,2.3684,2.4611,2.5665,2.6415,2.7368,2.8541,2.9559,3.0281,3.0718,3.0328,3.0451,3.119,3.048,3.048,3.119,3.119,3.119,3.119,3.119,3.119,3.119,3.119,3.119,3.119,3.119,3.119,3.119,3.119,3.119,3.119,3.119,3.119,3.1095,2.341,0.0,0.0,0.0,0.0,0.0,0.0,2.368,0.0,2.4543,0.0,2.5744,2.5744,2.6319,2.6691,2.6691,2.6116,2.5744,2.5744,2.5135,2.476,2.4659,2.4659,2.4289,2.3562,2.3444,2.3088,2.2446,2.2361,0.0,0.0,0.0,0.0,0.0,0.0,0.0,0.0,2.3659,2.4574,2.4746,2.6133,2.6691,2.6691,2.6691,2.6691,2.6691,2.6691,2.6691,2.6691,2.6691,2.6691,2.6691,2.6691,2.6691,2.6691,2.6691,2.6691,2.6691,2.6691,2.6691,2.6691,2.6691,2.6691,2.6691,2.6691,2.6691,2.6691,2.6691,2.6691,2.6691,2.6691,0.0,2.5531,2.4896,2.4779,2.453,2.3801,2.3695,2.3414,2.2683,2.3067,0.0,2.2521,2.2547,2.3068,2.4281,2.5112,2.5916,2.6657,2.8763,3.0,3.009,3.0104,3.0455,3.1179,3.0484,3.0463,3.119,3.119,3.119,3.119,3.119,3.119,3.119,3.119,3.119,3.119,3.119,3.119,3.119,3.119,3.119,3.119,3.119,3.119,3.1095,2.4286,0.0,0.0,0.0,0.0,2.5372,2.5236,2.522,2.527,2.5389,2.6048,2.6505,2.6505,2.6623,2.6691,2.6691,2.6573,0.0,0.0,0.0,0.0,2.5439,2.5423,2.505,2.4337,2.3697,2.3342,2.3207,2.2598,2.231,0.0,0.0,0.0,0.0,0.0,0.0,2.3071,2.41,0.0,2.549,2.6336,2.6691,2.6691,2.6691,2.6691,2.6691,2.6691,2.6691,2.6691,2.6691,2.6691,2.6691,2.6691,2.6691,2.6691,2.6691,2.6691,2.6691,2.6691,2.6691,2.6691,2.6691,2.6691,2.6691,2.6691,2.6691,2.6691,2.6691,2.6691,2.6691,2.6691,0.0,0.0,2.632,2.6303,2.6051,2.533,2.5197,2.4941,2.4212,2.371,2.3358,2.321,2.3765,2.3979,2.3624,2.4844,2.5928,2.6674,2.8288,2.9481,0.0,3.0096,3.0441,0.0,0.0,3.0489,3.119,3.119,3.119,3.119,3.119,3.119,3.119,3.119,3.119,3.119,3.119,3.119,3.119,3.119,3.119,3.119,3.119,3.119,3.1095,2.6218,0.0,0.0,0.0,0.0,0.0,0.0,2.7351,2.6945,2.5761,2.5913,2.6133,2.6133,2.6471,2.6691,2.6691,2.6691,2.6691,2.6691,2.6691,2.6539,2.6184,2.6167,2.5828,2.5084,2.4712,2.4171,2.3393,2.3038,2.2682,0.0,0.0,0.0,2.2327,0.0,2.3071,0.0,0.0,0.0,2.5676,2.6404,2.6691,2.6691,2.6691,2.6691,2.6691,2.6691,2.6691,2.6691,2.6691,2.6691,2.6691,2.6691,2.6691,2.6691,2.6691,2.6691,2.6691,2.6691,2.6691,2.6691,2.6691,2.6691,2.6691,2.6691,2.6691,2.6691,2.6691,2.6691,2.6691,2.6691,2.6691,0.0,0.0,2.6691,2.6303,2.5179,2.5007,2.4611,2.3491,2.3371,2.3243,2.2865,2.3498,2.3624,2.2892,2.3852,2.4765,2.5514,2.6979,2.8335,0.0,0.0,0.0,3.0605,0.0,2.9922,3.0632,3.1021,3.119,3.119,3.119,3.119,3.119,3.119,3.119,3.119,3.119,3.119,3.119,3.119,3.119,3.119,3.119,3.119,3.1151,0.0,2.8197,0.0,0.0,2.8484,2.8281,2.889,2.9011,2.8349,2.6556,2.6184,2.6082,2.6082,2.6454,2.6691,2.6691,2.6691,2.6691,2.6691,2.6691,2.6691,2.6691,2.6691,2.642,2.5845,2.5693,2.5033,2.3866,2.3545,2.3105,0.0,0.0,2.2395,2.2564,0.0,0.0,0.0,0.0,2.5693,2.5896,2.6471,2.6691,2.6691,2.6691,2.6691,2.6691,2.6691,2.6691,2.6691,2.6691,2.6691,2.6691,2.6691,2.6691,2.6691,2.6691,2.6691,2.6691,2.6691,2.6691,2.6691,2.6691,2.6691,2.6691,2.6691,2.6691,2.6691,2.6691,2.6691,2.6691,2.6691,2.6691,0.0,0.0,0.0,2.6169,2.473,2.463,2.4181,2.2704,2.3046,2.3119,2.2361,2.283,2.2926,2.2344,2.2988,2.3718,2.4477,2.5916,0.0,0.0,0.0,2.866,2.9856,0.0,2.9509,3.0099,3.0869,3.119,3.119,3.119,3.119,3.119,3.119,3.119,3.119,3.119,3.119,3.119,3.119,3.119,3.119,3.119,3.119,3.119,0.0,0.0,0.0,0.0,0.0,2.889,2.9011,2.9011,2.8907,2.8687,2.8044,2.757,2.757,2.7063,2.6691,2.6691,2.6691,2.6691,2.6691,2.6691,2.6691,2.6691,2.6691,2.6657,2.659,2.5947,2.5541,0.0,0.0,2.3359,0.0,2.2615,2.2665,2.3291,2.3359,0.0,0.0,2.5558,2.5998,2.659,2.6657,2.6691,2.6691,2.6691,2.6691,2.6691,2.6691,2.6691,2.6691,2.6691,2.6691,2.6691,2.6691,2.6691,2.6691,2.6691,2.6691,2.6691,2.6691,2.6691,2.6691,2.6691,2.6691,2.6691,2.6691,2.6691,2.6691,2.6691,2.6691,2.6691,2.6691,2.6691,2.6488,0.0,0.0,2.6169,2.473,2.5071,2.4959,2.3465,2.3357,2.3119,2.2361,2.2361,2.2361,2.231,2.2988,2.3727,2.4448,2.5904,2.7063,2.7896,2.8561,2.8955,2.911,2.9691,3.0014,3.013,3.0842,3.119,3.119,3.119,3.119,3.119,3.119,3.119,3.119,3.119,3.119,3.119,3.119,3.119,3.119,3.119,3.119,3.119,0.0,0.0,0.0,0.0,0.0,0.0,0.0,3.0311,3.0311,3.0311,2.9262,2.8518,2.8518,2.7841,2.7554,2.8027,2.7638,2.7368,2.7368,2.7368,2.7165,2.6708,2.6691,2.6691,2.6691,2.6404,2.6048,0.0,0.0,2.4492,2.4036,2.3748,2.3765,2.4069,0.0,2.505,2.5642,2.6065,2.642,2.6691,2.6691,2.6691,2.6691,2.6691,2.6691,2.6759,2.7199,2.7368,2.7435,2.7909,2.7452,2.6691,2.6691,2.6691,2.6691,2.6691,2.6691,2.6691,2.6691,2.6691,2.6691,2.6691,2.6691,2.6691,2.6691,2.6691,2.6691,2.6691,2.6691,2.6691,2.6691,2.6691,2.659,2.6303,0.0,2.6344,2.5297,2.5029,2.4545,2.3511,2.3022,2.2604,2.2327,2.231,2.2474,2.2926,2.3232,2.3721,2.4475,2.5484,2.6573,2.7759,0.0,2.7841,2.827,2.8562,2.8948,2.9463,3.0184,3.0768,3.119,3.119,3.119,3.119,3.119,3.119,3.119,3.119,3.119,3.119,3.119,3.119,3.119,3.119,3.119,3.119,3.119,0.0,3.0598,0.0,3.0768,3.0598,3.1123,3.119,3.119,3.119,3.0277,2.955,2.9347,2.8619,2.8383,2.8941,2.8484,2.8163,2.8163,2.8163,2.7926,2.7385,2.7148,0.0,2.7368,2.7148,2.6877,2.6607,2.615,2.5659,2.5118,2.4709,2.4625,0.0,2.5372,2.5727,2.5981,2.6708,2.7029,2.7046,2.7266,2.7368,2.7368,2.7368,2.7368,2.7435,2.7977,2.8163,2.8247,2.8789,2.8264,2.7368,2.7368,2.7368,2.7368,2.7368,2.7368,2.7317,2.7097,2.7029,2.6962,2.6742,2.6691,2.6691,2.6691,2.6691,2.6691,2.6691,2.6691,2.6691,2.6691,2.6691,2.664,2.6404,0.0,2.6385,2.543,2.4816,2.424,2.35,2.2762,2.231,2.231,2.2491,2.283,2.3363,2.3806,2.4254,2.4812,2.5324,0.0,0.0,0.0,0.0,2.747,2.7674,2.8185,2.8999,2.9749,3.0497,3.119,3.119,3.119,3.119,3.119,3.119,3.119,3.119,3.119,3.119,3.119,3.119,3.119,3.119,3.119,3.119,3.119,3.119,3.119,3.119,3.119,3.119,3.119,3.119,3.119,3.119,3.1173,3.0903,3.0176,2.9414,2.9011,2.9011,2.8975,2.9011,2.9011,2.9011,2.8958,0.0,0.0,2.8163,2.8941,2.8197,2.818,2.8941,0.0,0.0,2.664,2.52,2.4881,2.5592,2.5609,2.5998,2.6725,2.7486,2.7772,2.784,2.8636,2.8994,2.8994,2.8994,2.8994,2.8958,2.8958,2.9011,2.9011,2.9011,2.9011,2.8994,2.8994,2.8994,2.8994,2.8994,2.8994,2.8789,2.801,2.7772,2.7621,2.6877,2.6691,2.6691,2.6691,2.6691,2.6691,2.6691,2.6691,2.6691,2.6691,2.6691,2.6438,2.5732,0.0,0.0,2.473,2.4513,2.4229,2.3494,2.2762,2.231,2.231,2.2943,2.3397,2.3397,2.4751,2.5581,2.5581,2.5598,0.0,2.6691,2.6691,0.0,2.6708,2.7453,2.8185,2.8991,2.9753,3.0497,3.119,3.119,3.119,3.119,3.119,3.119,3.119,3.119,3.119,3.119,3.119,3.119,3.119,3.119,3.119,3.119,3.119,3.119,3.119,3.119,3.119,3.119,3.119,3.119,3.119,3.119,3.119,3.1106,3.0869,3.0192,2.9956,0.0,3.004,2.9753,0.0,2.9753,2.9516,2.9045,2.8738,2.8738,2.8975,2.8738,2.8738,2.9011,0.0,0.0,0.0,2.752,2.7402,2.7097,2.7672,2.8044,2.8264,2.8518,2.8619,2.8636,2.889,2.9011,2.9011,2.9011,2.9011,2.9096,2.9567,2.9753,2.9837,3.0328,3.0497,3.0497,3.0497,2.9803,2.9011,2.9011,2.9011,2.8924,2.8687,2.823,2.7722,2.752,2.708,2.6691,2.6691,2.6691,2.6691,2.6691,2.6691,2.6691,2.6691,2.6691,2.664,2.6387,2.6539,0.0,2.6051,2.5581,2.4975,2.4248,2.3921,2.3607,2.3119,2.3721,2.4367,2.4869,2.5346,2.5615,2.5615,0.0,0.0,0.0,2.6691,0.0,2.6691,2.6928,2.7708,2.9011,2.9239,2.9998,3.119,3.119,3.119,3.119,3.119,3.119,3.119,3.119,3.119,3.119,3.119,3.119,3.119,3.119,3.119,3.119,3.119,3.119,3.119,3.119,3.119,3.119,3.119,3.119,3.119,3.119,3.119,3.119,3.119,3.0784,0.0,3.1157,3.0784,3.0514,3.0514,3.0514,3.0311,2.9837,2.955,2.9533,2.9803,2.9533,0.0,2.982,2.9533,2.9008,2.8264,2.8755,2.8721,2.8281,2.8772,2.9011,2.9045,2.9296,2.9397,2.9431,2.9702,2.982,2.982,2.982,2.982,2.9871,3.0345,3.0514,3.0581,3.1038,3.119,3.119,3.119,3.0565,2.982,2.982,2.982,2.9753,2.9482,2.9059,2.8499,2.7924,2.7469,2.7046,2.6759,2.6691,2.6691,2.6691,2.6691,2.6691,2.6691,2.6691,2.6691,2.6691,2.6691,2.6691,2.6691,2.6051,2.5445,2.4965,2.4672,2.4333,2.3866,2.4479,2.5094,2.5581,2.5866,0.0,0.0,0.0,2.6691,2.6691,2.6691,2.6691,2.6691,2.6691,2.7453,2.9004,2.955,3.0302,3.119,3.119,3.119,3.119,3.119,3.119,3.119,3.119,3.119,3.119,3.119,3.119,3.119,3.119,3.119,3.119,3.119,3.119,3.119,0.0,3.119,0.0,3.119,3.119,3.119,3.119,3.119,3.119,3.119,3.119,3.119,3.119,0.0,0.0,3.119,3.119,3.119,3.119,3.0548,3.0497,3.119,3.0531,3.0514,3.119,3.0514,2.9803,2.9059,2.911,2.911,2.9059,2.911,2.9127,2.9178,2.9888,3.0192,3.0243,3.092,3.119,3.119,3.119,3.119,3.119,3.119,3.119,3.119,3.119,3.119,3.119,3.119,3.119,3.119,3.119,3.119,3.1055,3.0362,3.0142,2.977,2.8332,2.7857,2.7603,2.6928,2.6725,2.6691,2.6691,2.6691,2.6691,2.6691,2.6691,2.6691,2.6691,2.6691,2.6691,2.6691,2.6118,2.5648,2.5615,0.0,0.0,2.4564,2.5246,2.5665,0.0,2.6303,0.0,0.0,0.0,2.6691,2.6691,2.6691,2.6691,2.6691,2.6759,2.7555,2.9076,3.0534,3.119,3.119,3.119,3.119,3.119,3.119,3.119,3.119,3.119,3.119,3.119,3.119,3.119,3.119,3.119,3.119,3.119,0.0,0.0,3.119,3.119,3.119,3.119,3.119,3.119,3.119,3.119,3.119,3.119,3.119,3.119,3.119,3.119,3.119,3.119,3.119,3.119,3.119,3.119,3.1021,3.1021,3.119,3.1021,3.1021,3.119,3.1021,3.0565,2.9854,3.0412,3.0378,2.9871,3.0429,3.0666,3.0683,3.0869,3.0937,3.0954,3.1123,3.119,3.119,3.119,3.119,3.119,3.119,3.119,3.119,3.119,3.119,3.119,3.119,3.119,3.119,3.119,3.119,3.1157,3.0987,3.0531,3.0023,2.9651,2.8687,2.7739,2.7588,2.7114,2.6691,2.6691,2.6691,2.6691,2.6691,2.6691,2.6691,2.6691,2.6691,2.6691,2.6691,2.6539,2.6236,0.0,2.5931,2.5947,2.5397,2.6017,2.6438,0.0,0.0,2.6691,2.6691,2.6691,2.6691,2.6691,2.6691,2.6691,2.6691,2.725,2.8302,2.9846,3.0784,3.119,3.119,3.119,3.119,3.119,3.119,3.119,3.119,3.119,3.119,3.119,3.119,3.119,3.119,3.119,3.119,3.119,3.119,3.119,3.119,3.119,3.119,3.119,3.119,3.119,3.119,3.119,3.119,3.119,3.119,3.119,3.119,3.119,3.119,3.119,3.119,3.119,3.119,3.119,3.119,3.119,3.119,3.119,3.119,3.119,3.119,3.1004,3.0615,3.1004,3.0987,3.0615,3.1021,3.119,3.119,3.119,3.119,3.119,3.119,3.119,3.119,3.119,3.119,3.119,3.119,3.119,3.119,3.119,3.119,3.119,3.119,3.119,3.119,3.119,3.119,3.119,3.119,3.0903,3.0531,3.0192,2.9228,2.8264,2.7857,2.7503,2.7114,2.6759,2.6691,2.6691,2.6691,2.6691,2.6691,2.6691,2.6691,2.6691,2.6691,2.6691,2.6539,2.6152,2.6438,2.6539,2.6135,2.6438,2.6691,2.6691,2.6691,0.0,2.6691,2.6691,2.6691,2.6691,2.7046,2.7199,2.7199,2.8301,2.9272,3.0107,3.0858,3.119,3.119,3.119,3.119,3.119,3.119,3.119,3.119,3.119,3.119,3.119,3.119,3.119,3.119,3.119,3.119,3.119,3.1376,3.136,3.1326,3.1207,3.1275,3.136,3.136,3.1461,3.1478,3.1376,3.136,3.136,3.136,3.1258,3.1241,3.136,3.1258,3.119,3.119,3.119,3.119,3.119,3.119,3.119,3.119,3.119,3.119,3.119,3.119,3.119,3.119,3.119,3.119,3.119,3.119,3.119,3.119,3.119,3.119,3.119,3.119,3.119,3.119,3.119,3.119,3.119,3.119,3.119,3.119,3.119,3.119,3.119,3.119,3.119,3.119,3.119,3.119,3.119,3.119,3.119,3.1055,3.0429,2.9702,2.8975,2.8315,2.7958,2.7603,2.6996,2.6776,2.6691,2.6691,2.6691,2.6691,2.6691,2.6691,2.6691,2.6691,0.0,2.6691,2.6691,2.6691,2.6691,2.6691,2.6691,2.6691,2.6691,2.6691,2.6691,2.6691,2.6691,2.6691,2.6691,2.7317,2.7743,2.7998,2.9404,3.0141,3.0264,3.0892,3.119,3.119,3.119,3.119,3.119,3.119,3.119,3.119,3.119,3.119,3.119,3.119,3.119,3.119,3.119,3.119,3.119,3.2239,3.2121,3.1918,3.1309,3.1698,3.2121,3.2121,3.2645,3.2831,3.2188,3.2121,3.2121,3.2121,3.1562,3.1444,3.2053,3.1546,3.119,3.119,3.119,3.119,3.119,3.119,3.119,3.119,3.119,3.119,3.119,3.119,3.119,3.119,3.119,3.119,3.119,3.119,3.119,3.119,3.119,3.119,3.119,3.119,3.119,3.119,3.119,3.119,3.119,3.119,3.119,3.119,3.119,3.119,3.119,3.119,3.119,3.119,3.119,3.119,3.119,3.119,3.119,3.1173,3.1055,3.048,2.9905,2.9786,2.8755,2.7755,2.7637,2.7131,2.6691,2.6691,2.6691,2.6691,2.6691,2.6691,2.6691,2.6691,0.0,2.6691,2.6691,2.6691,2.6691,2.6691,2.6691,2.6691,2.6691,2.6691,2.6691,2.6691,2.6691,2.6691,2.6691,2.6809,2.75,2.8815,2.9683,3.0404,3.1033,3.1157,3.119,3.119,3.119,3.119,3.119,3.119,3.119,3.119,3.119,3.119,3.119,3.119,3.119,3.119,3.119,3.119,3.119,3.2949,3.2679,3.2493,3.2408,3.2459,3.2594,3.2848,3.3186,3.3288,3.2933,3.2882,3.2882,3.2882,3.2594,3.251,3.2848,3.2577,3.2374,3.2374,3.163,3.1376,3.1765,3.1782,3.1968,3.2374,3.2374,3.2188,3.1782,3.2188,3.1985,3.1207,3.1596,3.1562,3.119,3.119,3.141,3.1782,3.1782,3.2019,3.2374,3.2374,3.2374,3.2341,3.1935,3.1782,3.1732,3.1326,3.119,3.119,3.119,3.119,3.119,3.119,3.119,3.119,3.119,3.119,3.119,3.119,3.119,3.119,3.119,3.0937,3.048,2.9685,2.8958,2.8213,2.7385,2.6945,2.6691,2.6691,2.7012,2.73,2.7301,2.73,2.73,2.73,2.6945,2.6691,2.6691,2.6691,2.6691,2.6691,2.6691,2.6691,2.6691,2.6691,2.6691,2.6691,2.6691,2.6691,2.6691,2.708,2.7838,2.9015,2.9705,3.0264,3.0594,3.1016,3.119,3.119,3.119,3.119,3.119,3.119,3.119,3.119,3.119,3.119,3.119,3.119,3.119,3.119,3.119,3.119,3.119,3.3694,3.3372,3.3186,3.3372,3.3254,3.3237,3.3609,3.3812,3.3863,3.3677,3.366,3.366,3.366,3.3508,3.3474,3.3643,3.3508,3.3406,3.3406,3.2341,3.1952,3.251,3.2544,3.2814,3.3389,3.3406,3.3119,3.2544,3.3119,3.2831,3.1715,3.2273,3.2239,3.1715,3.1715,3.2019,3.2544,3.2544,3.2882,3.3406,3.3406,3.3406,3.3339,3.2763,3.2544,3.2459,3.1901,3.1596,3.1444,3.1444,3.1444,3.141,3.1241,3.1309,3.141,3.1241,3.119,3.119,3.119,3.119,3.119,3.119,3.119,3.0886,2.9753,2.9228,2.8636,2.7469,2.6945,2.6742,2.6911,2.7282,2.7587,2.7777,0.0,2.7521,2.7538,2.7063,2.6691,2.6691,2.6691,2.6691,2.6691,2.6691,2.6691,2.6691,2.6691,2.6691,2.6691,2.6691,2.6691,2.6691,2.7402,2.8098,2.8741,2.9656,3.0078,3.0107,3.0858,3.119,3.119,3.119,3.119,3.119,3.119,3.119,3.119,3.119,3.119,3.119,3.119,3.119,3.119,3.119,3.119,3.119,3.4539,3.4387,3.4167,3.3508,3.3931,3.437,3.4404,3.5013,3.5199,3.4506,3.4421,3.4421,3.4421,3.3812,3.3677,3.4353,3.3795,3.3406,3.3406,3.3305,3.3271,3.3322,3.3322,3.3339,3.3406,3.3406,3.3372,3.3322,3.3372,3.3355,3.3237,3.3288,3.3288,3.3237,3.3237,3.3271,3.3322,3.3322,3.3355,3.3406,3.3406,3.3406,3.3406,3.3339,3.3322,3.3322,3.3271,3.2797,3.2205,3.2205,3.2205,3.2087,3.141,3.1664,3.207,3.1393,3.119,3.119,3.119,3.119,3.119,3.119,3.119,3.1157,3.1055,2.9973,2.8994,2.8839,2.7672,2.6911,2.757,2.7215,2.6978,2.7687,0.0,0.0,2.6759,2.6708,2.6691,2.6691,2.6691,2.6691,2.6691,2.6691,2.6691,2.6691,2.6691,2.6691,2.6691,2.6691,2.6691,2.6691,2.7402,2.7844,2.7879,2.9351,3.0088,3.0107,3.0858,3.119,3.119,3.119,3.119,3.119,3.119,3.119,3.119,3.119,3.119,3.119,3.119,3.119,3.119,3.119,3.119,3.119,3.525,3.5182,3.5098,3.4827,3.5013,3.5182,3.5182,3.5436,3.552,3.5233,3.5182,3.5182,3.5182,3.4945,3.4895,3.5165,3.4945,3.4776,3.4776,3.4776,3.4573,3.41,3.4523,3.4776,3.4776,3.4776,3.4539,3.4083,3.4539,3.432,3.3423,3.388,3.3846,3.3406,3.3406,3.366,3.4083,3.4083,3.4353,3.4776,3.4776,3.4776,3.4726,3.4252,3.4083,3.4015,3.3558,3.322,3.2983,3.2983,3.2983,3.2933,3.2645,3.2425,3.2178,3.141,3.119,3.119,3.119,3.119,3.119,3.119,3.119,3.1072,3.0615,3.0074,2.955,2.9076,2.8129,2.7486,2.7739,2.7588,2.7487,2.7742,0.0,2.7379,2.7386,2.6979,2.6691,2.6691,2.6691,2.6691,2.6691,2.6691,2.6691,2.6691,2.6691,2.6691,2.6691,2.6691,2.6691,2.6691,2.6962,2.7114,2.7114,2.8646,2.9399,2.9409,3.0611,3.119,3.119,3.119,3.119,3.119,3.119,3.119,3.119,3.119,3.119,3.119,3.119,3.119,3.119,3.119,3.119,3.119,3.5622,3.5622,3.5622,3.5622,3.5622,3.5622,3.5622,3.5622,3.5622,3.5622,3.5622,3.5622,3.5622,3.5622,3.5622,3.5622,3.5622,3.5622,3.5622,3.5622,3.5385,3.4861,3.5351,3.5622,3.5622,3.5622,3.5368,3.4844,3.5368,3.5098,3.4117,3.4607,3.459,3.41,3.41,3.437,3.4844,3.4844,3.5148,3.5622,3.5622,3.5622,3.5554,3.5047,3.4844,3.4776,3.4286,3.3947,3.3744,3.3744,3.3744,3.3711,3.3474,3.3051,3.2493,3.1749,3.1546,3.1478,3.1258,3.119,3.119,3.119,3.119,3.1072,3.0565,3.0277,2.9888,2.9144,2.8366,2.7789,2.7789,2.7621,2.7538,2.7777,2.7605,2.7452,2.7453,2.7029,2.6691,2.6691,2.6691,2.6691,2.6691,2.6691,2.6691,2.6691,2.6691,2.6691,2.6691,2.6691,2.6691,2.6691,2.6691,2.6691,2.6691,2.7963,2.8745,2.8992,3.0264,3.0982,3.119,3.119,3.119,3.119,3.119,3.119,3.119,3.119,3.119,3.119,3.119,3.119,3.119,3.119,3.119,3.119,3.5622,3.5622,3.5622,3.5622,3.5622,3.5622,3.5622,3.5622,3.5622,3.5622,3.5622,3.5622,3.5622,3.5622,3.5622,3.5622,3.5622,3.5622,3.5622,3.5622,3.5622,3.5622,3.5622,3.5622,3.5622,3.5622,3.5622,3.5622,3.5622,3.5622,3.5622,3.5622,3.5622,3.5622,3.5622,3.5622,3.5622,3.5622,3.5622,3.5622,3.5622,3.5622,3.5622,3.5622,3.5622,3.5622,3.5622,3.5131,3.4506,3.4506,3.4506,3.437,3.3643,3.3406,3.3271,3.251,3.2313,3.2121,3.1393,3.119,3.119,3.119,3.119,3.119,3.119,3.0632,2.9905,2.9161,2.8383,2.7789,2.7789,2.7199,2.6945,2.7654,2.7182,2.6691,2.6691,2.6691,2.6691,2.6691,2.6691,2.6691,2.6691,2.6691,2.6691,2.6691,2.6691,2.6691,2.6691,2.6691,2.6691,2.6691,2.6691,2.6691,2.6691,2.7453,2.8213,2.9031,2.9761,3.051,3.119,3.119,3.119,3.119,3.119,3.119,3.119,3.119,3.119,3.119,3.119,3.119,3.119,3.119,3.119,3.1095,3.5622,3.5622,3.5622,3.5622,3.5622,3.5622,3.5622,3.5622,3.5622,3.5622,3.5622,3.5622,3.5622,3.5622,3.5622,3.5622,3.5622,3.5622,3.5622,3.5622,3.5622,3.5622,3.5622,3.5622,3.5622,3.5622,3.5622,3.5622,3.5622,3.5622,3.5622,3.5622,3.5622,3.5622,3.5622,3.5622,3.5622,3.5622,3.5622,3.5622,3.5622,3.5622,3.5622,3.5622,3.5622,3.5622,3.5622,3.547,3.5284,3.5284,3.5284,3.5148,3.4404,3.4167,3.3914,3.2645,3.2313,3.2121,3.1393,3.119,3.119,3.119,3.119,3.119,3.119,3.1021,3.0801,3.0581,2.9516,2.8636,2.8636,2.7571,2.6776,2.6996,2.6843,2.6691,2.6691,2.6691,2.6691,2.6691,2.6691,2.6691,2.6691,2.6691,2.6691,2.6691,2.6691,2.6691,2.6691,2.6691,2.6691,2.6691,2.6691,2.6691,2.6691,2.7981,2.8762,2.9006,3.0251,3.0999,3.119,3.119,3.119,3.119,3.119,3.119,3.119,3.119,3.119,3.119,3.119,3.119,3.119,3.119,3.119,3.1095,3.5622,3.5622,3.5622,3.5622,3.5622,3.5622,3.5622,3.5622,3.5622,3.5622,3.5622,3.5622,3.5622,3.5622,3.5622,3.5622,3.5622,3.5622,3.5622,3.5622,3.5622,3.5622,3.5622,3.5622,3.5622,3.5622,3.5622,3.5622,3.5622,3.5622,3.5622,3.5622,3.5622,3.5622,3.5622,3.5622,3.5622,3.5622,3.5622,3.5622,3.5622,3.5622,3.5622,3.5622,3.5622,3.5622,3.5622,3.5622,3.5622,3.5622,3.5622,3.5537,3.5081,3.4945,3.4658,3.3169,3.273,3.251,3.1478,3.119,3.119,3.119,3.119,3.119,3.119,3.119,3.1106,3.0835,3.0057,2.9347,2.9025,2.7977,2.7148,2.7148,2.6894,2.6691,2.6691,2.6691,2.6691,2.6691,2.6691,2.6691,2.6691,2.6691,2.6691,2.6691,2.6691,2.6691,2.6691,2.6691,2.6691,2.6691,2.6691,2.6691,2.6691,2.8216,2.9016,2.903,2.9884,3.0644,3.119,3.119,3.119,3.119,3.119,3.119,3.119,3.119,3.119,3.119,3.119,3.119,3.119,3.119,3.119,3.1095,3.5622,3.5622,3.5622,3.5622,3.5622,3.5622,3.5622,3.5622,3.5622,3.5622,3.5622,3.5622,3.5622,3.5622,3.5622,3.5622,3.5622,3.5622,3.5622,3.5622,3.5622,3.5622,3.5622,3.5622,3.5622,3.5622,3.5622,3.5622,3.5622,3.5622,3.5622,3.5622,3.5622,3.5622,3.5622,3.5622,3.5622,3.5622,3.5622,3.5622,3.5622,3.5622,3.5622,3.5622,3.5622,3.5622,3.5622,3.5622,3.5622,3.5622,3.5622,3.5622,3.5622,3.5622,3.5334,3.3914,3.3457,3.3102,3.1681,3.1241,3.119,3.119,3.119,3.119,3.119,3.119,3.1004,3.0345,3.0159,2.9888,2.9211,2.845,2.7926,2.7926,2.7283,2.6793,2.6793,2.6742,2.6691,2.6691,2.6691,2.6691,2.6691,2.6691,2.6691,2.6691,2.6691,2.6691,2.6691,2.6691,2.6691,2.6691,2.6691,2.6725,2.6793,2.818,2.8938,2.8996,2.9114,2.9914,3.119,3.119,3.119,3.119,3.119,3.119,3.119,3.119,3.119,3.119,3.119,3.119,3.119,3.119,3.119,3.1015,3.5622,3.5622,3.5622,3.5622,3.5622,3.5622,3.5622,3.5622,3.5622,3.5622,3.5622,3.5622,3.5622,3.5622,3.5622,3.5622,3.5622,3.5622,3.5622,3.5622,3.5622,3.5622,3.5622,3.5622,3.5622,3.5622,3.5622,3.5622,3.5622,3.5622,3.5622,3.5622,3.5622,3.5622,3.5622,3.5622,3.5622,3.5622,3.5622,3.5622,3.5622,3.5622,3.5622,3.5622,3.5622,3.5622,3.5622,3.5622,3.5622,3.5622,3.5622,3.5622,3.5622,3.5622,3.5436,3.4523,3.3846,3.3203,3.229,3.163,3.119,3.119,3.119,3.119,3.119,3.119,3.114,3.0987,3.0497,3.0057,2.9888,2.9245,2.8738,2.8738,2.8078,2.7571,2.7571,2.7063,2.6691,2.6691,2.6691,2.6691,2.6691,2.6691,2.6691,2.6691,2.6691,2.6691,2.6691,2.6691,2.6691,2.6691,2.6691,2.6979,2.7571,2.7909,2.8399,2.9025,3.0154,3.0903,3.119,3.119,3.119,3.119,3.119,3.119,3.119,3.119,3.119,3.119,3.119,3.119,3.119,3.119,3.119,3.1015,3.5667,3.5622,3.5622,3.5622,3.5622,3.5622,3.5622,3.5622,3.5622,3.5622,3.5622,3.5622,3.5622,3.5622,3.5622,3.5622,3.5622,3.5622,3.5622,3.5622,3.5622,3.5622,3.5622,3.5622,3.5622,3.5622,3.5622,3.5622,3.5622,3.5622,3.5622,3.5622,3.5622,3.5622,3.5622,3.5622,3.5622,3.5622,3.5622,3.5622,3.5622,3.5622,3.5622,3.5622,3.5622,3.5622,3.5622,3.5622,3.5622,3.5622,3.5622,3.5622,3.5622,3.5622,3.547,3.4726,3.3981,3.3237,3.2493,3.1749,3.119,3.119,3.119,3.119,3.119,3.119,3.119,3.119,3.0886,3.0632,3.0632,3.0023,2.9516,2.9516,2.8873,2.8247,2.784,2.7486,2.7097,2.6742,2.6691,2.6691,2.6691,2.6691,2.6691,2.6691,2.6691,2.6691,2.6691,2.6691,2.6691,2.6691,2.7046,2.7402,2.7788,2.8518,2.9113,2.9533,3.0311,3.0852,3.119,3.119,3.119,3.119,3.119,3.119,3.119,3.119,3.119,3.119,3.119,3.119,3.119,3.119,3.1015,3.0658,3.5854,3.5739,3.5694,3.5622,3.5622,3.5622,3.5622,3.5622,3.5622,3.5622,3.5622,3.5622,3.5622,3.5622,3.5622,3.5622,3.5622,3.5622,3.5622,3.5622,3.5622,3.5622,3.5622,3.5622,3.5622,3.5622,3.5622,3.5622,3.5622,3.5622,3.5622,3.5622,3.5622,3.5622,3.5622,3.5622,3.5622,3.5622,3.5622,3.5622,3.5622,3.5622,3.5622,3.5622,3.5622,3.5622,3.5622,3.5622,3.5622,3.5622,3.5622,3.5622,3.5622,3.5622,3.5504,3.4861,3.4167,3.3457,3.2831,3.2036,3.1376,3.1376,3.1275,3.119,3.119,3.119,3.119,3.119,3.119,3.119,3.119,3.07,3.0294,3.0294,2.9668,2.8958,2.8298,2.8095,2.774,2.6979,2.6776,2.6691,2.6691,2.6691,2.6742,2.6894,2.6776,2.6809,2.708,2.6962,2.6945,2.708,2.7674,2.8066,2.8193,2.9471,3.0166,3.0294,3.0294,3.0615,3.119,3.119,3.119,3.119,3.119,3.119,3.119,3.119,3.119,3.119,3.119,3.119,3.119,3.119,3.0838,3.0208,3.6416,3.6308,3.6139,3.5694,3.5622,3.5622,3.5622,3.5622,3.5622,3.5622,3.5622,3.5622,3.5622,3.5622,3.5622,3.5622,3.5622,3.5622,3.5622,3.5622,3.5622,3.5622,3.5622,3.5622,3.5622,3.5622,3.5622,3.5622,3.5622,3.5622,3.5622,3.5622,3.5622,3.5622,3.5622,3.5622,3.5622,3.5622,3.5622,3.5622,3.5622,3.5622,3.5622,3.5622,3.5622,3.5622,3.5622,3.5622,3.5622,3.5622,3.5622,3.5622,3.5622,3.5622,3.5605,3.5504,3.4928,3.432,3.4218,3.3186,3.2138,3.2138,3.1664,3.119,3.119,3.119,3.119,3.119,3.119,3.119,3.119,3.1123,3.1055,3.1055,3.0429,2.9922,2.9803,2.9228,2.8535,2.7757,2.7097,2.6691,2.6691,2.6691,2.6945,2.7584,2.7063,2.7267,2.8629,2.8031,2.7963,2.8663,2.88,2.9145,2.9759,3.0,3.0421,3.1055,3.1055,3.1106,3.119,3.119,3.119,3.119,3.119,3.119,3.119,3.119,3.119,3.119,3.119,3.119,3.119,3.119,3.0838,3.0208,3.6943,3.662,3.635,3.6097,3.5827,3.5622,3.5622,3.5622,3.5622,3.5622,3.5622,3.5622,3.5622,3.5622,3.5622,3.5622,3.5622,3.5622,3.5622,3.5622,3.5622,3.5622,3.5622,3.5622,3.5622,3.5622,3.5622,3.5622,3.5622,3.5622,3.5622,3.5622,3.5622,3.5622,3.5622,3.5622,3.5622,3.5622,3.5622,3.5622,3.5622,3.5622,3.5622,3.5622,3.5622,3.5622,3.5622,3.5622,3.5622,3.5622,3.5622,3.5622,3.5622,3.5622,3.5622,3.5622,3.5081,3.4489,3.4489,3.3406,3.2313,3.2313,3.1732,3.119,3.119,3.119,3.119,3.119,3.119,3.119,3.119,3.119,3.119,3.119,3.092,3.0581,3.0176,2.982,2.933,2.8569,2.7791,2.7486,2.7926,2.7571,2.7621,2.842,2.8161,2.8268,2.8972,2.8676,2.8626,2.9006,2.9384,2.9773,3.0078,3.0497,3.0874,3.119,3.119,3.119,3.119,3.119,3.119,3.119,3.119,3.119,3.119,3.119,3.119,3.119,3.119,3.119,3.1151,3.0838,3.0518,3.0166]},{"header":{"parameterUnit":"m.s-1","parameterCategory":1,"la1":30.6,"la2":28.766,"lo1":-90.7593,"lo2":-88.6598,"dy":0.0162,"dx":0.0183,"nx":116,"ny":114,"refTime":"2024-06-27T06:00:00:Z","depth":0,"parameterNumber":3,"parameterNumberName":"V-component_of_WINDS"},"data":[0.0,0.0,0.0,0.0,0.0,0.0,0.0,0.0,0.0,0.0,0.0,0.0,0.0,0.0,0.0,0.0,0.0,0.0,0.0,0.0,0.0,0.0,0.0,0.0,0.0,0.0,0.0,0.0,0.0,0.0,0.0,0.0,0.0,0.0,0.0,0.0,0.0,0.0,0.0,0.0,0.0,0.0,0.0,0.0,0.0,0.0,0.0,0.0,0.0,0.0,0.0,0.0,0.0,0.0,0.0,0.0,0.0,0.0,0.0,0.0,0.0,0.0,0.0,0.0,0.0,0.0,0.0,0.0,0.0,0.0,0.0,0.0,0.0,0.0,0.0,0.0,0.0,0.0,0.0,0.0,0.0,0.0,0.0,0.0,0.0,0.0,0.0,0.0,0.0,0.0,0.0,0.0,0.0,0.0,0.0,0.0,0.0,0.0,0.0,0.0,0.0,0.0,0.0,0.0,0.0,0.0,0.0,0.0,0.0,0.0,0.0,0.0,0.0,0.0,0.0,0.0,0.0,0.0,0.0,0.0,0.0,0.0,0.0,0.0,0.0,0.0,0.0,0.0,0.0,0.0,0.0,0.0,0.0,0.0,0.0,0.0,0.0,0.0,0.0,0.0,0.0,0.0,0.0,0.0,0.0,0.0,0.0,0.0,0.0,0.0,0.0,0.0,0.0,0.0,0.0,0.0,0.0,0.0,0.0,0.0,0.0,0.0,0.0,0.0,0.0,0.0,0.0,0.0,0.0,0.0,0.0,0.0,0.0,0.0,0.0,0.0,0.0,0.0,0.0,0.0,0.0,0.0,0.0,0.0,0.0,0.0,0.0,0.0,0.0,0.0,0.0,0.0,0.0,0.0,0.0,0.0,0.0,0.0,0.0,0.0,0.0,0.0,0.0,0.0,0.0,0.0,0.0,0.0,0.0,0.0,0.0,0.0,0.0,0.0,0.0,0.0,0.0,0.0,0.0,0.0,0.0,0.0,0.0,0.0,0.0,0.0,0.0,0.0,0.0,0.0,0.0,0.0,0.0,0.0,0.0,0.0,0.0,0.0,0.0,0.0,0.0,0.0,0.0,0.0,0.0,0.0,0.0,0.0,0.0,0.0,0.0,0.0,0.0,0.0,0.0,0.0,0.0,0.0,0.0,0.0,0.0,0.0,0.0,0.0,0.0,0.0,0.0,0.0,0.0,0.0,0.0,0.0,0.0,0.0,0.0,0.0,0.0,0.0,0.0,0.0,0.0,0.0,0.0,0.0,0.0,0.0,0.0,0.0,0.0,0.0,0.0,0.0,0.0,0.0,0.0,0.0,0.0,0.0,0.0,0.0,0.0,0.0,0.0,0.0,0.0,0.0,0.0,0.0,0.0,0.0,0.0,0.0,0.0,0.0,0.0,0.0,0.0,0.0,0.0,0.0,0.0,0.0,0.0,0.0,0.0,0.0,0.0,0.0,0.0,0.0,0.0,0.0,0.0,0.0,0.0,0.0,0.0,0.0,0.0,0.0,0.0,0.0,0.0,0.0,0.0,0.0,0.0,0.0,0.0,0.0,0.0,0.0,0.0,0.0,0.0,0.0,0.0,0.0,0.0,0.0,0.0,0.0,0.0,0.0,0.0,0.0,0.0,0.0,0.0,0.0,0.0,0.0,0.0,0.0,0.0,0.0,0.0,0.0,0.0,0.0,0.0,0.0,0.0,0.0,0.0,0.0,0.0,0.0,0.0,0.0,0.0,0.0,0.0,0.0,0.0,0.0,0.0,0.0,0.0,0.0,0.0,0.0,0.0,0.0,0.0,0.0,0.0,0.0,0.0,0.0,0.0,0.0,0.0,0.0,0.0,0.0,0.0,0.0,0.0,0.0,0.0,0.0,0.0,0.0,0.0,0.0,0.0,0.0,0.0,0.0,0.0,0.0,0.0,0.0,0.0,0.0,0.0,0.0,0.0,0.0,0.0,0.0,0.0,0.0,0.0,0.0,0.0,0.0,0.0,0.0,0.0,0.0,0.0,0.0,0.0,0.0,0.0,0.0,0.0,0.0,0.0,0.0,0.0,0.0,0.0,0.0,0.0,0.0,0.0,0.0,0.0,0.0,0.0,0.0,0.0,0.0,0.0,0.0,0.0,0.0,0.0,0.0,0.0,0.0,0.0,0.0,0.0,0.0,0.0,0.0,0.0,0.0,0.0,0.0,0.0,0.0,0.0,0.0,0.0,0.0,0.0,0.0,0.0,0.0,0.0,0.0,0.0,0.0,0.0,0.0,0.0,0.0,0.0,0.0,0.0,0.0,0.0,0.0,0.0,0.0,0.0,0.0,0.0,0.0,0.0,0.0,0.0,0.0,0.0,0.0,0.0,0.0,0.0,0.0,0.0,0.0,0.0,0.0,0.0,0.0,0.0,0.0,0.0,0.0,0.0,0.0,0.0,0.0,0.0,0.0,0.0,0.0,0.0,0.0,0.0,0.0,0.0,0.0,0.0,0.0,0.0,0.0,0.0,0.0,0.0,0.0,0.0,0.0,0.0,0.0,0.0,0.0,0.0,0.0,0.0,0.0,0.0,0.0,0.0,0.0,0.0,0.0,0.0,0.0,0.0,0.0,0.0,0.0,0.0,0.0,0.0,0.0,0.0,0.0,0.0,0.0,0.0,0.0,0.0,0.0,0.0,0.0,0.0,0.0,0.0,0.0,0.0,0.0,0.0,0.0,0.0,0.0,0.0,0.0,0.0,0.0,0.0,0.0,0.0,0.0,0.0,0.0,0.0,0.0,0.0,0.0,0.0,0.0,0.0,0.0,0.0,0.0,0.0,0.0,0.0,0.0,0.0,0.0,0.0,0.0,0.0,0.0,0.0,0.0,0.0,0.0,0.0,0.0,0.0,0.0,0.0,0.0,0.0,0.0,0.0,0.0,0.0,0.0,0.0,0.0,0.0,0.0,0.0,0.0,0.0,0.0,0.0,0.0,0.0,0.0,0.0,0.0,0.0,0.0,0.0,0.0,0.0,0.0,0.0,0.0,0.0,0.0,0.0,0.0,0.0,0.0,0.0,0.0,0.0,0.0,0.0,0.0,0.0,0.0,0.0,0.0,0.0,0.0,0.0,0.0,0.0,0.0,0.0,0.0,0.0,0.0,0.0,0.0,0.0,0.0,0.0,0.0,0.0,0.0,0.0,0.0,0.0,0.0,0.0,0.0,0.0,0.0,0.0,0.0,0.0,0.0,0.0,0.0,0.0,0.0,0.0,0.0,0.0,0.0,0.0,0.0,0.0,0.0,0.0,0.0,0.0,0.0,0.0,0.0,0.0,0.0,0.0,0.0,0.0,0.0,0.0,0.0,0.0,0.0,0.0,0.0,0.0,0.0,0.0,0.0,0.0,0.0,0.0,0.0,0.0,0.0,0.0,0.0,0.0,0.0,0.0,0.0,0.0,0.0,0.0,0.0,0.0,0.0,0.0,0.0,0.0,0.0,0.0,0.0,0.0,0.0,0.0,0.0,0.0,0.0,0.0,0.0,0.0,0.0,0.0,0.0,0.0,0.0,0.0,0.0,0.0,0.0,0.0,0.0,0.0,0.0,0.0,0.0,0.0,0.0,0.0,0.0,0.0,0.0,0.0,0.0,0.0,0.0,0.0,0.0,0.0,0.0,0.0,0.0,0.0,0.0,0.0,0.0,0.0,0.0,0.0,0.0,0.0,0.0,0.0,0.0,0.0,0.0,0.0,0.0,0.0,0.0,0.0,0.0,0.0,0.0,0.0,0.0,0.0,0.0,0.0,0.0,0.0,0.0,0.0,0.0,0.0,0.0,0.0,0.0,0.0,0.0,0.0,0.0,0.0,0.0,0.0,0.0,0.0,0.0,0.0,0.0,0.0,0.0,0.0,0.0,0.0,0.0,0.0,0.0,0.0,0.0,0.0,0.0,0.0,0.0,0.0,0.0,0.0,0.0,0.0,0.0,0.0,0.0,0.0,0.0,0.0,0.0,0.0,0.0,0.0,0.0,0.0,0.0,0.0,0.0,0.0,0.0,0.0,0.0,0.0,0.0,0.0,0.0,0.0,0.0,0.0,0.0,0.0,0.0,0.0,0.0,0.0,0.0,0.0,0.0,0.0,0.0,0.0,0.0,0.0,0.0,0.0,0.0,0.0,0.0,0.0,0.0,0.0,0.0,0.0,0.0,0.0,0.0,0.0,0.0,0.0,0.0,0.0,0.0,0.0,0.0,0.0,0.0,0.0,0.0,0.0,0.0,0.0,0.0,0.0,0.0,0.0,0.0,0.0,0.0,0.0,0.0,0.0,0.0,0.0,0.0,0.0,0.0,0.0,0.0,0.0,0.0,0.0,0.0,0.0,0.0,0.0,0.0,0.0,0.0,0.0,0.0,0.0,0.0,0.0,0.0,0.0,0.0,0.0,0.0,0.0,0.0,0.0,0.0,0.0,0.0,0.0,0.0,0.0,0.0,0.0,0.0,0.0,0.0,0.0,0.0,0.0,0.0,0.0,0.0,0.0,0.0,0.0,0.0,0.0,0.0,0.0,0.0,0.0,0.0,0.0,0.0,0.0,0.0,0.0,0.0,0.0,0.0,0.0,0.0,0.0,0.0,0.0,0.0,0.0,0.0,0.0,0.0,0.0,0.0,0.0,0.0,0.0,0.0,0.0,0.0,0.0,0.0,0.0,0.0,0.0,0.0,0.0,0.0,0.0,0.0,0.0,0.0,0.0,0.0,0.0,0.0,0.0,0.0,0.0,0.0,0.0,0.0,0.0,0.0,0.0,0.0,0.0,0.0,0.0,0.0,0.0,0.0,0.0,0.0,0.0,0.0,0.0,0.0,0.0,0.0,0.0,0.0,0.0,0.0,0.0,0.0,0.0,0.0,0.0,0.0,0.0,0.0,0.0,0.0,0.0,0.0,0.0,0.0,0.0,0.0,0.0,0.0,0.0,0.0,0.0,0.0,0.0,0.0,0.0,0.0,0.0,0.0,0.0,0.0,0.0,0.0,0.0,0.0,0.0,0.0,0.0,0.0,0.0,0.0,0.0,0.0,0.0,0.0,0.0,0.0,0.0,0.0,0.0,0.0,0.0,0.0,0.0,0.0,0.0,0.0,0.0,0.0,0.0,0.0,0.0,0.0,0.0,0.0,0.0,0.0,0.0,0.0,0.0,0.0,0.0,0.0,0.0,0.0,0.0,0.0,0.0,0.0,0.0,0.0,0.0,0.0,0.0,0.0,0.0,0.0,0.0,0.0,0.0,0.0,0.0,0.0,0.0,0.0,0.0,0.0,0.0,0.0,0.0,0.0,0.0,0.0,0.0,0.0,0.0,0.0,0.0,0.0,0.0,0.0,0.0,0.0,0.0,0.0,0.0,0.0,0.0,0.0,0.0,0.0,0.0,0.0,0.0,0.0,0.0,0.0,0.0,0.0,0.0,0.0,0.0,0.0,0.0,0.0,0.0,0.0,0.0,0.0,0.0,0.0,0.0,0.0,0.0,0.0,0.0,0.0,0.0,0.0,0.0,0.0,0.0,0.0,0.0,0.0,0.0,0.0,0.0,0.0,0.0,0.0,0.0,0.0,0.0,0.0,0.0,0.0,0.0,0.0,0.0,0.0,0.0,0.0,0.0,0.0,0.0,0.0,0.0,0.0,0.0,0.0,0.0,0.0,0.0,0.0,0.0,0.0,0.0,0.0,0.0,0.0,0.0,0.0,0.0,0.0,0.0,0.0,0.0,0.0,0.0,0.0,0.0,0.0,0.0,0.0,0.0,0.0,0.0,0.0,0.0,0.0,0.0,0.0,0.0,0.0,0.0,0.0,0.0,0.0,0.0,0.0,0.0,0.0,0.0,0.0,0.0,0.0,0.0,0.0,0.0,0.0,0.0,0.0,0.0,0.0,0.0,0.0,0.0,0.0,0.0,0.0,0.0,0.0,0.0,0.0,0.0,0.0,0.0,0.0,0.0,0.0,0.0,0.0,0.0,0.0,0.0,0.0,0.0,0.0,0.0,0.0,0.0,0.0,0.0,0.0,0.0,0.0,0.0,0.0,0.0,0.0,0.0,0.0,0.0,0.0,0.0,0.0,0.0,0.0,0.0,0.0,0.0,0.0,0.0,0.0,-0.4207,-0.4175,0.0,0.0,0.0,0.0,0.0,0.0,0.0,0.0,0.0,0.0,0.0,0.0,0.0,0.0,0.0,0.0,0.0,0.0,0.0,0.0,0.0,0.0,0.0,-0.8564,-0.8936,-0.9534,-0.9824,-1.0039,-1.0264,0.0,0.0,0.0,0.0,0.0,-0.9014,-0.9004,-0.9004,-0.9004,-0.9004,-0.9004,-0.8994,-0.8555,-0.8308,-0.8308,0.0,0.0,0.0,0.0,0.0,0.0,0.0,0.0,0.0,0.0,0.0,0.0,0.0,0.0,0.0,0.0,0.0,0.0,0.0,0.0,0.0,0.0,0.0,0.0,0.0,0.0,0.0,0.0,0.0,0.0,0.0,0.0,0.0,0.0,0.0,0.0,0.0,0.0,0.0,0.0,0.0,0.0,0.0,0.0,0.0,0.0,0.0,0.0,0.0,0.0,0.0,0.0,0.0,0.0,0.0,0.0,0.0,0.0,0.0,0.0,0.0,0.0,0.0,0.0,0.0,0.0,0.0,0.0,0.0,0.0,-0.4383,-0.4344,0.0,0.0,0.0,0.0,0.0,0.0,0.0,0.0,0.0,0.0,0.0,0.0,0.0,0.0,0.0,0.0,0.0,0.0,0.0,0.0,0.0,-0.7031,-0.8371,-0.8799,-0.9209,-0.967,-1.0078,-1.0283,-1.0283,0.0,0.0,0.0,0.0,-0.958,-0.9238,-0.9228,-0.9228,-0.9228,-0.9297,-0.9336,-0.9336,-0.9336,0.0,0.0,-0.918,0.0,0.0,0.0,0.0,0.0,0.0,0.0,0.0,0.0,0.0,0.0,0.0,0.0,0.0,0.0,0.0,0.0,0.0,0.0,0.0,0.0,0.0,0.0,0.0,0.0,0.0,0.0,0.0,0.0,0.0,0.0,0.0,0.0,0.0,0.0,0.0,0.0,0.0,0.0,0.0,0.0,0.0,0.0,0.0,0.0,0.0,0.0,0.0,0.0,0.0,0.0,0.0,0.0,0.0,0.0,0.0,0.0,0.0,0.0,0.0,0.0,0.0,0.0,-0.4731,-0.4796,-0.4914,-0.4789,-0.4799,-0.4897,-0.4472,-0.4416,-0.4549,-0.4375,0.0,0.0,0.0,0.0,0.0,0.0,0.0,0.0,0.0,0.0,0.0,0.0,0.0,0.0,0.0,0.0,0.0,0.0,0.0,-0.75,-0.8779,-0.8975,-0.9326,-1.0127,-1.0244,-1.0283,-1.0283,0.0,0.0,0.0,-1.0195,-1.0166,-1.0117,-1.0117,-1.0117,-1.0117,-1.0478,-1.0654,-1.0654,0.0,0.0,0.0,-0.9845,-0.9515,0.0,0.0,0.0,0.0,0.0,0.0,0.0,0.0,0.0,0.0,0.0,0.0,0.0,0.0,0.0,0.0,0.0,0.0,0.0,0.0,0.0,0.0,0.0,0.0,0.0,0.0,0.0,0.0,0.0,0.0,0.0,0.0,0.0,0.0,0.0,0.0,0.0,0.0,0.0,0.0,0.0,0.0,-0.6318,-0.6783,0.0,0.0,0.0,0.0,0.0,0.0,0.0,0.0,0.0,0.0,0.0,0.0,0.0,-0.485,-0.483,-0.487,-0.4891,-0.4891,-0.4891,-0.4901,-0.4918,-0.4897,-0.4901,-0.4914,-0.4857,0.0,-0.466,-0.464,0.0,0.0,0.0,0.0,0.0,0.0,0.0,0.0,0.0,0.0,0.0,0.0,0.0,0.0,0.0,0.0,0.0,0.0,0.0,0.0,0.0,-0.9004,-0.9346,-1.0205,-1.0283,0.0,0.0,0.0,0.0,-1.0283,-1.0283,-1.0283,-1.0283,-1.0518,-1.0752,-1.1047,-1.1224,0.0,0.0,0.0,0.0,0.0,0.0,0.0,0.0,0.0,0.0,0.0,0.0,0.0,0.0,0.0,0.0,0.0,0.0,0.0,0.0,0.0,0.0,0.0,0.0,0.0,0.0,0.0,0.0,0.0,0.0,0.0,0.0,0.0,0.0,0.0,0.0,0.0,0.0,0.0,0.0,0.0,0.0,0.0,0.0,0.0,0.0,0.0,0.0,-0.6743,-0.6919,-0.7197,-0.6662,-0.6207,0.0,0.0,0.0,0.0,0.0,0.0,0.0,0.0,0.0,-0.5285,-0.5062,-0.4918,-0.4918,-0.5084,-0.5125,-0.504,-0.5213,-0.525,-0.5169,-0.5169,-0.5169,-0.5169,-0.5169,-0.5081,-0.4931,-0.4853,-0.4779,-0.4718,0.0,0.0,0.0,0.0,-0.4569,-0.4559,0.0,0.0,0.0,0.0,0.0,0.0,0.0,0.0,0.0,0.0,0.0,0.0,-0.8887,-0.9102,-0.9463,-1.0215,0.0,0.0,0.0,0.0,0.0,-1.0283,-1.0428,-1.0428,-1.0283,-1.0693,-1.1182,0.0,0.0,0.0,0.0,0.0,0.0,0.0,0.0,0.0,0.0,0.0,0.0,0.0,0.0,0.0,0.0,0.0,0.0,0.0,0.0,0.0,0.0,0.0,0.0,0.0,0.0,0.0,0.0,0.0,0.0,0.0,0.0,0.0,0.0,0.0,0.0,0.0,0.0,0.0,0.0,0.0,0.0,0.0,0.0,0.0,0.0,0.0,0.0,0.0,0.0,-0.7471,-0.7698,-0.7698,-0.7442,-0.712,0.0,0.0,0.0,0.0,0.0,0.0,-0.6578,-0.645,-0.6075,-0.5402,-0.5188,-0.5145,-0.5145,-0.5365,-0.5416,-0.5304,-0.5498,-0.5532,-0.542,-0.5446,-0.5428,-0.5428,-0.5428,-0.5294,-0.5179,-0.5033,-0.4952,-0.4918,-0.4918,-0.4918,-0.4918,-0.4918,-0.4918,-0.4918,0.0,0.0,0.0,0.0,0.0,0.0,0.0,0.0,0.0,0.0,0.0,0.0,0.0,0.0,0.0,0.0,0.0,0.0,0.0,0.0,0.0,-1.0283,-1.0725,-1.0764,-1.0322,-1.0693,0.0,0.0,0.0,0.0,0.0,0.0,0.0,0.0,0.0,0.0,0.0,0.0,0.0,0.0,0.0,0.0,0.0,0.0,0.0,0.0,0.0,0.0,0.0,0.0,0.0,0.0,0.0,0.0,0.0,0.0,0.0,0.0,0.0,0.0,0.0,0.0,0.0,0.0,0.0,0.0,0.0,0.0,0.0,0.0,0.0,0.0,0.0,0.0,0.0,0.0,0.0,0.0,0.0,-0.8732,-0.9223,0.0,0.0,0.0,0.0,-0.75,-0.777,-0.7778,-0.7422,-0.717,-0.6903,-0.6635,-0.6032,-0.5755,-0.5755,-0.5772,-0.5776,-0.5766,-0.5647,-0.5586,-0.5576,-0.543,-0.5428,-0.5428,-0.5428,-0.5425,-0.5338,-0.5182,-0.504,-0.4918,-0.4918,-0.4918,-0.4918,-0.4918,-0.4918,-0.4918,0.0,0.0,0.0,-0.6776,-0.7092,-0.7346,-0.7126,-0.71,-0.7353,-0.8057,-0.8281,0.0,0.0,0.0,0.0,0.0,0.0,0.0,0.0,0.0,0.0,-1.1252,-1.1391,-1.147,-1.1523,-1.1635,0.0,0.0,0.0,0.0,0.0,0.0,0.0,0.0,0.0,0.0,0.0,0.0,0.0,0.0,0.0,0.0,0.0,0.0,0.0,0.0,0.0,0.0,0.0,0.0,0.0,0.0,0.0,0.0,0.0,0.0,0.0,0.0,0.0,0.0,0.0,0.0,0.0,0.0,0.0,0.0,0.0,0.0,0.0,0.0,0.0,0.0,0.0,0.0,0.0,0.0,0.0,0.0,0.0,-0.9345,-0.9559,0.0,-0.9189,-0.9427,-0.9544,-0.9476,-0.9742,-0.9705,-0.9209,-0.9111,-0.8715,-0.8087,-0.7878,-0.7703,-0.7703,-0.7834,-0.7551,-0.6789,-0.6773,-0.6459,-0.5725,-0.5671,-0.5596,-0.5508,-0.5508,-0.5454,-0.5432,-0.541,-0.5338,-0.5203,-0.5203,-0.5203,-0.5203,-0.5203,-0.5203,-0.5203,-0.7228,-0.7623,0.0,-0.702,-0.7421,-0.7721,-0.736,-0.7432,-0.7734,-0.8332,0.0,0.0,0.0,0.0,0.0,0.0,0.0,0.0,0.0,0.0,0.0,-1.1821,-1.1899,-1.2151,0.0,0.0,0.0,0.0,0.0,0.0,0.0,0.0,0.0,0.0,0.0,0.0,0.0,0.0,0.0,0.0,0.0,0.0,-1.1309,0.0,0.0,0.0,0.0,0.0,0.0,0.0,0.0,0.0,0.0,0.0,0.0,0.0,0.0,0.0,0.0,0.0,0.0,0.0,0.0,0.0,0.0,0.0,0.0,0.0,0.0,0.0,0.0,0.0,0.0,0.0,0.0,0.0,0.0,-0.9225,-0.9573,-0.9673,-0.9947,-1.0087,-0.9987,-1.0327,-1.0641,-1.0835,-1.1122,-1.0953,-1.0219,-1.0308,-0.9927,-0.899,-0.899,-0.899,-0.899,-0.9071,-0.8778,-0.7984,-0.8047,-0.7647,-0.6877,-0.6463,-0.6447,-0.6626,-0.5937,-0.5811,-0.6056,-0.5755,-0.5599,-0.5508,-0.5508,-0.545,-0.5435,-0.542,-0.5473,-0.5428,-0.6509,-0.7154,-0.7587,-0.717,-0.7766,-0.8176,-0.7754,-0.8096,-0.842,-0.843,0.0,0.0,0.0,0.0,0.0,0.0,0.0,0.0,0.0,0.0,-1.1226,-1.1903,-1.2319,-1.2699,0.0,0.0,0.0,0.0,0.0,0.0,0.0,0.0,0.0,0.0,0.0,0.0,0.0,0.0,0.0,0.0,0.0,0.0,-1.2178,0.0,0.0,0.0,0.0,0.0,0.0,0.0,0.0,0.0,0.0,0.0,0.0,0.0,0.0,0.0,0.0,0.0,0.0,0.0,0.0,0.0,0.0,0.0,0.0,0.0,0.0,0.0,0.0,0.0,0.0,0.0,0.0,0.0,-0.8851,-0.9593,-1.0027,-0.9753,-1.0481,-1.0895,-1.0678,-1.1102,-1.1443,-1.1443,-1.171,-1.1514,-1.0491,-1.0722,-1.0415,-0.9448,-0.9372,-0.9372,-0.9372,-0.9372,-0.9372,-0.9296,-0.9148,-0.9046,-0.8963,-0.7812,-0.7788,-0.8624,-0.6655,-0.6373,-0.7212,-0.623,-0.5803,-0.58,-0.58,-0.5627,-0.5459,-0.5542,-0.5566,-0.5435,-0.6535,-0.727,-0.7796,-0.7384,-0.7866,-0.8176,-0.7754,-0.8096,-0.8518,0.0,0.0,0.0,0.0,0.0,0.0,0.0,0.0,0.0,0.0,0.0,-1.1903,-1.2658,-1.3181,0.0,0.0,0.0,0.0,0.0,0.0,0.0,0.0,0.0,0.0,0.0,0.0,0.0,0.0,0.0,0.0,0.0,0.0,0.0,-1.2171,0.0,0.0,0.0,0.0,0.0,0.0,0.0,0.0,0.0,0.0,0.0,0.0,0.0,0.0,0.0,0.0,0.0,0.0,0.0,0.0,0.0,0.0,0.0,0.0,0.0,0.0,0.0,0.0,0.0,0.0,0.0,-0.9535,-1.0093,-1.0093,-1.0289,-1.0488,-1.0621,-1.1029,-1.1276,-1.1196,-1.153,-1.175,-1.175,-1.2017,-1.2105,-1.1806,-1.1877,-1.1774,-1.1471,-1.1477,-1.1477,-1.1477,-1.1477,-1.0726,-0.9296,-0.9236,-0.8454,-0.7026,-0.6753,-0.6663,-0.6764,-0.6184,-0.6047,-0.6233,-0.5991,-0.5901,-0.58,-0.58,-0.5752,-0.5684,-0.5728,-0.6062,-0.6459,-0.7313,-0.7817,-0.8119,-0.7829,-0.8074,-0.8176,-0.7754,-0.8252,-0.873,0.0,0.0,0.0,0.0,0.0,0.0,0.0,0.0,0.0,-1.1368,0.0,0.0,0.0,0.0,0.0,0.0,0.0,0.0,0.0,0.0,0.0,0.0,0.0,0.0,0.0,0.0,0.0,0.0,0.0,0.0,0.0,0.0,0.0,-1.25,-1.25,-1.2344,-1.2135,-1.1904,-1.1965,-1.199,-1.1145,0.0,0.0,0.0,0.0,0.0,0.0,0.0,0.0,0.0,0.0,0.0,0.0,0.0,0.0,0.0,0.0,0.0,0.0,0.0,0.0,0.0,0.0,0.0,0.0,-1.0116,-1.065,-1.0911,-1.0816,-1.0848,-1.1142,-1.143,-1.161,-1.161,-1.1877,-1.2051,-1.2051,-1.2204,-1.2305,-1.2305,-1.2305,-1.2305,-1.2305,-1.2305,-1.2305,-1.2305,-1.2305,-1.17,-1.0571,-1.0571,-0.997,-0.8832,-0.838,-0.8312,-0.857,-0.7759,-0.755,-0.781,-0.7049,-0.6738,0.0,0.0,0.0,0.0,0.0,-0.6097,-0.6433,-0.8358,-0.851,-0.847,-0.8318,-0.829,-0.8197,-0.7822,-0.8486,-0.9023,-0.9072,0.0,0.0,0.0,0.0,0.0,0.0,0.0,0.0,0.0,0.0,0.0,0.0,0.0,0.0,0.0,0.0,0.0,0.0,0.0,0.0,0.0,0.0,0.0,0.0,0.0,0.0,0.0,0.0,0.0,0.0,0.0,0.0,-1.2881,-1.2881,-1.2881,-1.2832,-1.2441,-1.256,-1.2801,-1.2009,0.0,0.0,0.0,0.0,0.0,0.0,0.0,0.0,0.0,0.0,0.0,0.0,0.0,0.0,0.0,0.0,0.0,0.0,0.0,0.0,0.0,0.0,0.0,0.0,-1.092,-1.1238,-1.1458,-1.1249,-1.1189,-1.1443,-1.1737,-1.1917,-1.1917,-1.2151,-1.2305,-1.2305,-1.2331,-1.2351,-1.2351,-1.2385,0.0,0.0,0.0,-1.2385,-1.2351,-1.2351,-1.2257,-1.215,-1.215,-1.207,-1.1929,-1.1019,-1.1093,-1.1848,-1.0051,-0.982,-1.0484,-0.8685,-0.7931,-0.7859,-0.6718,-0.617,-0.5995,-0.5995,-0.6126,-0.6323,-0.8328,-0.8506,-0.865,-0.8354,-0.829,-0.8301,-0.8265,-0.8682,-0.9121,-0.9427,0.0,0.0,0.0,0.0,0.0,0.0,0.0,0.0,0.0,0.0,0.0,0.0,0.0,0.0,0.0,0.0,0.0,0.0,0.0,0.0,0.0,0.0,0.0,0.0,0.0,0.0,0.0,0.0,0.0,0.0,0.0,0.0,-1.2881,-1.2881,-1.2881,-1.2871,-1.2783,-1.2822,-1.287,-1.2714,-1.2762,-1.2848,-1.2483,0.0,0.0,0.0,0.0,0.0,0.0,0.0,0.0,0.0,0.0,0.0,0.0,0.0,0.0,0.0,0.0,0.0,0.0,0.0,0.0,-1.1056,-1.2657,-1.3826,-1.2333,-1.1877,-1.1717,-1.1777,-1.2044,-1.2218,-1.2218,-1.2271,-1.2305,-1.2305,-1.2525,-1.2735,-1.2735,-1.2899,-1.3039,-1.3039,-1.3039,-1.2913,-1.2735,-1.2735,-1.2149,-1.1087,-1.1087,0.0,-0.99,-0.9674,-0.9669,-0.9825,-0.9448,-0.9448,-0.9593,-0.9145,-0.8998,-0.8846,-0.7022,-0.6754,-0.7446,-0.7446,-0.831,-0.9531,-0.9056,-0.9074,-0.9127,-0.9238,-0.888,-0.8693,-0.8991,-0.9416,-0.9667,-0.96,0.0,0.0,0.0,0.0,0.0,0.0,0.0,0.0,0.0,0.0,0.0,0.0,0.0,0.0,0.0,0.0,0.0,0.0,0.0,0.0,0.0,0.0,0.0,0.0,0.0,0.0,0.0,0.0,0.0,0.0,0.0,0.0,-1.2881,-1.2881,-1.2881,-1.2881,-1.2881,-1.2881,-1.2881,-1.2881,-1.2918,-1.2885,-1.2885,-1.2896,-1.2894,0.0,0.0,0.0,0.0,0.0,0.0,0.0,0.0,0.0,0.0,0.0,0.0,0.0,0.0,-1.3742,-1.2368,0.0,-1.456,-1.1862,-1.2727,-1.3723,-1.3723,-1.2764,-1.2083,-1.2078,-1.2218,-1.2305,-1.2305,-1.2438,-1.2525,-1.2525,-1.2806,-1.2979,-1.2979,-1.3126,-1.3213,-1.3213,-1.3213,-1.3133,-1.2979,-1.2979,-1.2667,-1.1972,-1.1972,-1.1661,-1.1071,-1.1071,-1.0924,-1.0801,-1.0801,-1.0801,-1.0726,-1.0265,-0.9744,-0.9226,-0.8161,-0.8084,-0.8542,-0.8542,-0.907,-0.9865,-0.9818,-0.9772,-0.9764,-1.014,-0.9634,-0.934,-0.9906,-1.0209,-1.0272,-0.992,-1.0528,-1.0829,-1.0351,-1.0725,0.0,0.0,0.0,0.0,0.0,0.0,0.0,0.0,0.0,0.0,0.0,0.0,0.0,0.0,0.0,0.0,0.0,0.0,0.0,0.0,0.0,0.0,0.0,0.0,0.0,0.0,0.0,0.0,-1.3115,-1.3037,-1.2949,-1.2881,-1.2881,-1.2881,-1.2881,-1.2881,-1.2881,-1.2881,-1.2881,-1.2881,-1.2881,-1.2881,-1.2881,0.0,0.0,0.0,0.0,0.0,0.0,0.0,0.0,0.0,-1.5391,-1.5369,-1.5422,-1.5517,-1.5871,-1.5923,-1.534,-1.3647,-1.3413,-1.3816,-1.5027,-1.3746,-1.2583,-1.2365,-1.2305,-1.2325,-1.2385,-1.2605,-1.2849,-1.2909,-1.312,-1.3293,-1.3293,-1.3347,-1.338,-1.338,-1.338,-1.3353,-1.3293,-1.3293,-1.3267,-1.3213,-1.3213,-1.308,-1.2916,-1.2916,-1.2705,-1.2478,-1.2418,-1.2351,-1.2224,-1.1465,-1.064,-0.99,-0.99,-0.99,-0.9825,-0.9669,-0.975,-0.99,-0.9893,-1.0241,-1.0479,-1.0228,-1.0171,-1.0309,-1.0867,-1.0621,-1.0519,-1.0808,-1.0939,-1.0829,-1.0351,-1.0725,-1.1305,0.0,0.0,0.0,0.0,0.0,0.0,0.0,0.0,0.0,0.0,0.0,0.0,0.0,0.0,0.0,0.0,0.0,0.0,0.0,0.0,0.0,0.0,0.0,0.0,0.0,0.0,0.0,-1.3955,-1.3584,-1.3203,-1.2881,-1.2881,-1.2881,-1.2881,-1.2881,-1.2881,-1.2881,-1.2881,-1.2881,-1.2881,-1.2881,0.0,-1.289,-1.2881,-1.2898,-1.324,-1.4722,-1.4139,-1.3113,0.0,0.0,-1.5381,-1.5383,-1.5374,-1.5898,-1.7427,-1.7676,-1.7627,-1.7407,-1.7353,-1.6893,-1.5402,-1.4533,-1.355,-1.2459,-1.2305,-1.2405,-1.2748,-1.2802,-1.2936,-1.314,-1.3427,-1.3594,-1.3594,-1.3848,-1.3988,-1.3988,-1.3988,-1.3861,-1.3594,-1.3594,-1.3467,-1.3213,-1.3213,-1.3193,-1.316,-1.316,-1.314,-1.3093,-1.2819,-1.2545,-1.2298,-1.215,-1.2077,-1.1929,-1.1929,-1.1929,-1.1848,-1.0938,-1.1168,-1.1929,-0.9905,-1.0608,-1.1165,-1.1048,-1.1077,-1.1304,-1.185,-1.1532,-1.1176,-1.1025,-1.1019,-1.0943,-1.0725,-1.1116,-1.1916,-1.3141,0.0,0.0,0.0,0.0,0.0,0.0,0.0,0.0,0.0,0.0,0.0,0.0,0.0,0.0,0.0,0.0,0.0,0.0,0.0,0.0,0.0,0.0,0.0,0.0,0.0,0.0,-1.4038,-1.3662,-1.3398,-1.3213,-1.2969,-1.2881,0.0,0.0,-1.2881,-1.2881,-1.2881,-1.2881,-1.2881,-1.2881,-1.2909,0.0,-1.4108,-1.3652,-1.3299,-1.5001,-1.4884,-1.4346,-1.4332,-1.5663,-1.694,-1.6941,-1.6934,-1.7119,-1.789,-1.7989,-1.7988,-1.7988,-1.7967,-1.7311,-1.5452,-1.5271,-1.4999,-1.4099,-1.3616,-1.3276,-1.2808,-1.2913,-1.314,-1.344,-1.3734,-1.3901,-1.3901,-1.4021,-1.4088,-1.4088,-1.4088,-1.4028,-1.3901,-1.3901,-1.3841,-1.3721,-1.3721,-1.3627,-1.346,-1.346,-1.3367,-1.32,-1.3073,-1.2946,-1.2819,-1.2639,-1.2559,-1.2545,-1.2371,-1.2305,-1.2224,-1.1848,-1.1922,-1.2305,-0.9905,-1.06,-1.1251,-1.1357,-1.1475,-1.18,-1.2566,-1.2174,-1.1664,-1.1282,-1.1094,-1.1099,-1.1426,-1.1588,-1.2257,-1.3761,-1.3006,-1.2549,0.0,0.0,0.0,0.0,0.0,0.0,0.0,0.0,0.0,0.0,0.0,0.0,0.0,0.0,0.0,0.0,0.0,0.0,0.0,0.0,0.0,0.0,0.0,0.0,-1.4424,-1.3887,-1.3682,-1.3613,-1.3076,-1.2881,0.0,0.0,-1.2881,-1.2881,-1.2881,-1.2881,-1.29,-1.289,-1.3219,-1.373,-1.4495,-1.4141,-1.3886,-1.5121,-1.5409,-1.5537,-1.5999,-1.7093,-1.7999,-1.8032,-1.8036,-1.7999,-1.7999,-1.7986,-1.7969,-1.7988,-1.7977,-1.7565,-1.6156,-1.6333,-1.6192,-1.5033,-1.4533,-1.3867,-1.3135,-1.32,-1.3447,-1.3741,-1.3968,-1.4088,-1.4088,-1.4088,-1.4088,-1.4088,-1.4088,-1.4088,-1.4088,-1.4088,-1.4088,-1.4088,-1.4088,-1.3975,-1.3768,-1.3768,-1.3607,-1.3327,-1.3327,-1.3287,-1.3193,-1.2966,-1.2872,-1.2852,-1.2639,-1.2498,-1.2425,-1.2425,-1.2371,-1.2305,-0.9905,-1.0086,-1.0362,-1.077,-1.0996,-1.1583,-1.2973,-1.2401,-1.1774,-1.1774,-1.1319,-1.1416,-1.2435,-1.1975,-1.2226,-1.3751,-1.3294,-1.2871,-1.2881,0.0,0.0,0.0,0.0,0.0,0.0,0.0,0.0,0.0,0.0,0.0,0.0,0.0,0.0,0.0,0.0,0.0,0.0,0.0,0.0,0.0,0.0,0.0,-1.5283,-1.4434,-1.4058,-1.3951,-1.3174,0.0,0.0,0.0,-1.2881,-1.2881,-1.2881,-1.2881,0.0,-1.29,-1.4066,0.0,-1.342,-1.4131,-1.5361,-1.5371,-1.54,-1.5831,-1.7531,-1.7978,-1.7995,-1.7978,-1.7988,-1.7998,-1.7998,-1.7998,-1.7968,-1.8008,-1.8005,-1.7984,-1.7893,-1.7897,-1.7011,-1.4546,-1.4238,-1.4041,-1.3642,-1.3546,-1.3754,-1.4048,-1.4082,-1.4088,-1.4088,-1.4088,-1.4088,-1.4088,-1.4088,-1.4088,-1.4088,-1.4088,-1.4088,-1.4088,-1.4088,-1.4082,-1.4075,-1.4075,-1.3908,-1.3627,-1.3627,-1.3467,-1.3213,-1.32,-1.32,-1.32,-1.3186,-1.2999,-1.2808,-1.2808,-1.2552,-1.2305,-1.0355,-1.0512,-1.0758,-1.129,-1.1469,-1.1727,-1.2187,-1.1689,-1.1282,-1.1282,-1.1369,0.0,0.0,0.0,0.0,0.0,-1.3243,-1.2881,-1.2881,-1.2881,0.0,0.0,0.0,0.0,0.0,0.0,0.0,0.0,0.0,0.0,0.0,0.0,0.0,0.0,0.0,0.0,0.0,0.0,0.0,0.0,0.0,0.0,-1.5752,-1.4893,-1.4385,-1.4009,0.0,0.0,0.0,0.0,0.0,0.0,-1.2881,0.0,0.0,-1.4212,-1.4178,-1.3594,-1.3033,-1.4118,-1.5388,-1.5378,-1.5374,-1.5872,-1.7571,-1.8015,-1.8016,-1.7988,-1.8008,-1.8008,-1.8008,-1.8008,-1.7978,-1.8018,-1.9002,-1.9747,-1.9743,-1.9258,-1.8276,-1.6836,-1.6817,-1.6594,-1.5889,-1.4427,-1.3768,-1.4062,-1.4088,-1.4088,-1.4088,-1.4088,-1.4088,-1.4088,-1.4088,-1.4088,-1.4088,-1.4088,-1.4088,-1.4088,-1.4088,-1.4088,-1.4088,-1.4088,-1.4035,-1.3941,-1.3941,-1.3881,-1.3774,-1.3581,-1.35,-1.348,-1.3287,-1.3146,-1.3053,-1.3053,-1.2859,-1.2565,-1.0423,-1.0528,-1.0732,-1.1115,-1.108,0.0,0.0,0.0,0.0,0.0,0.0,0.0,0.0,0.0,0.0,0.0,0.0,-1.2881,-1.2881,0.0,0.0,0.0,0.0,0.0,0.0,0.0,0.0,0.0,0.0,0.0,0.0,0.0,0.0,0.0,0.0,0.0,0.0,0.0,0.0,0.0,0.0,0.0,-1.5752,-1.5049,-1.4609,0.0,0.0,0.0,0.0,0.0,0.0,0.0,0.0,0.0,0.0,-1.4192,-1.4154,-1.3923,-1.4543,-1.5495,-1.6323,-1.6302,-1.6307,-1.66,-1.7734,-1.7984,-1.8008,-1.8008,-1.7988,-1.8006,-1.7988,-1.7978,-1.8018,-1.801,-1.9453,-2.0596,-2.0635,-1.9915,-1.9123,-1.8143,-1.8335,-1.8223,-1.7393,-1.616,-1.5325,-1.5228,-1.4901,-1.465,-1.465,-1.4334,-1.4088,-1.4088,-1.4088,-1.4088,-1.4088,-1.4088,-1.4088,-1.4088,-1.4088,-1.4088,-1.4088,-1.4088,-1.4088,-1.4088,-1.4088,-1.4088,-1.4075,-1.3881,-1.3801,-1.3781,-1.3594,-1.346,-1.3367,-1.3367,-1.3173,-1.2872,-1.0137,-1.0198,-1.0322,0.0,0.0,0.0,0.0,0.0,0.0,0.0,0.0,0.0,0.0,0.0,0.0,0.0,0.0,0.0,0.0,0.0,0.0,0.0,0.0,0.0,0.0,0.0,0.0,0.0,0.0,0.0,0.0,0.0,0.0,0.0,0.0,0.0,0.0,0.0,0.0,0.0,0.0,0.0,-1.5371,-1.4971,0.0,0.0,0.0,0.0,0.0,0.0,0.0,0.0,0.0,0.0,-1.2923,-1.2977,-1.4232,-1.589,-1.757,-1.7983,-1.8017,-1.7987,-1.7985,-1.8021,-1.8021,-1.7984,-1.7988,-1.7988,-1.8002,-1.7995,-1.7881,-1.7915,-1.8054,-1.8103,-1.9555,-2.0624,-2.0597,-2.0141,-1.9449,-1.8543,-1.8828,-1.8896,-1.8271,-1.8549,-1.838,-1.7523,-1.6394,-1.5809,-1.5726,-1.4741,-1.4166,-1.4088,-1.4088,-1.4088,-1.4088,-1.4088,-1.4088,-1.4088,-1.4088,-1.4088,-1.4088,-1.4088,-1.4088,-1.4088,-1.4088,-1.4088,-1.4088,-1.4088,-1.4088,-1.4088,-1.4088,-1.3915,-1.3667,-1.3667,-1.348,-1.3186,0.0,0.0,0.0,0.0,0.0,0.0,0.0,0.0,0.0,0.0,0.0,0.0,0.0,0.0,0.0,0.0,0.0,0.0,0.0,0.0,0.0,0.0,0.0,0.0,0.0,0.0,0.0,0.0,0.0,0.0,0.0,0.0,0.0,0.0,0.0,0.0,0.0,0.0,0.0,0.0,0.0,0.0,-1.54,0.0,0.0,0.0,0.0,0.0,0.0,0.0,0.0,0.0,0.0,-1.2887,-1.3155,-1.4387,-1.5967,-1.7429,-1.7877,-1.7976,-1.7989,-1.8012,-1.8034,-1.8026,-1.8026,-1.7965,-1.7989,-1.7989,-1.7991,-1.7624,-1.6288,-1.7142,-1.8419,-1.9707,-2.0339,-2.0632,-2.0602,-2.0487,-2.0313,-2.0082,-2.0387,-2.0533,-2.0386,-2.0771,-2.0569,-1.9415,-1.8138,-1.7072,-1.6224,-1.5587,-1.4894,-1.4173,-1.4088,-1.4088,-1.4088,-1.4088,-1.4088,-1.4088,-1.4088,-1.4088,-1.4088,-1.4088,-1.4088,-1.4088,-1.4088,-1.4088,-1.4088,-1.4088,-1.4088,-1.4088,-1.4088,-1.4041,-1.3975,-1.3975,-1.3788,-1.352,0.0,0.0,0.0,0.0,0.0,0.0,0.0,0.0,0.0,0.0,0.0,0.0,0.0,0.0,0.0,0.0,0.0,0.0,0.0,0.0,0.0,0.0,0.0,0.0,0.0,0.0,0.0,0.0,0.0,0.0,0.0,0.0,0.0,0.0,0.0,0.0,0.0,0.0,0.0,0.0,0.0,0.0,0.0,0.0,0.0,0.0,0.0,0.0,0.0,0.0,0.0,-1.4279,-1.3605,-1.369,-1.4326,-1.6062,0.0,-1.7985,-1.7989,-1.8006,-1.8008,-1.8008,-1.8008,-1.7978,-1.7967,-1.7999,-1.777,-1.7045,-1.6841,-1.6576,-1.5549,-1.6185,-1.7698,-2.0198,-2.0576,-2.0589,-2.0633,-2.0566,-2.0566,-2.0566,-2.1133,-2.1523,-2.1523,-2.207,-2.2158,-2.1437,-1.9349,-1.7621,-1.6274,-1.551,-1.4874,-1.4088,-1.4088,-1.4088,-1.4088,-1.4088,-1.4088,-1.4088,-1.4088,-1.4088,-1.4088,-1.4088,-1.4088,-1.4088,-1.4088,-1.4088,-1.4088,-1.4088,-1.4088,-1.4088,-1.4088,-1.4088,-1.4088,-1.4088,-1.3981,-1.3841,0.0,0.0,0.0,0.0,0.0,0.0,0.0,0.0,0.0,-1.1557,-1.1953,-1.2393,-1.2832,-1.2881,0.0,0.0,0.0,0.0,0.0,0.0,0.0,0.0,0.0,0.0,0.0,0.0,0.0,0.0,0.0,0.0,0.0,0.0,0.0,0.0,0.0,0.0,0.0,0.0,0.0,0.0,0.0,0.0,0.0,0.0,0.0,0.0,0.0,0.0,0.0,0.0,-1.5244,-1.481,-1.4526,-1.4898,-1.5742,-1.7473,-1.7971,-1.7989,-1.8007,-1.8008,-1.8008,-1.8008,-1.7978,-1.8006,-1.7995,-1.7851,-1.7209,-1.5713,-1.5425,-1.5387,-1.5417,-1.5385,-1.6484,-1.9872,-2.0493,-2.0632,-2.0702,-2.0654,-2.0674,-2.0732,-2.1465,-2.1973,-2.1973,-2.2676,-2.3047,-2.2862,-2.0323,-1.8218,-1.6838,-1.5778,-1.5033,-1.4649,-1.4642,-1.4537,-1.4328,-1.4328,-1.425,-1.4088,-1.4088,-1.4088,-1.4088,-1.4088,-1.4088,-1.4088,-1.4088,-1.4088,-1.4088,-1.4088,-1.4088,-1.4088,-1.4088,-1.4088,-1.4088,-1.4088,-1.4088,-1.4088,0.0,0.0,0.0,0.0,0.0,0.0,0.0,-1.0989,-1.1518,-1.1596,-1.1953,-1.2393,-1.2832,-1.2881,0.0,0.0,0.0,0.0,0.0,0.0,0.0,0.0,0.0,0.0,0.0,0.0,0.0,0.0,0.0,0.0,0.0,0.0,0.0,0.0,0.0,0.0,0.0,0.0,0.0,0.0,0.0,0.0,0.0,0.0,0.0,0.0,0.0,0.0,0.0,0.0,-1.565,-1.5409,-1.6034,-1.5827,-1.5714,-1.7494,-1.8016,-1.8007,-1.7998,-1.8008,-1.8008,-1.8008,-1.8014,-1.8005,-1.8011,-1.6872,0.0,-1.5472,-1.539,-1.5367,-1.541,-1.5381,-1.6336,-1.91,-2.0107,-2.0709,-2.1017,-2.1123,-2.125,-2.1611,-2.21,-2.2402,-2.2402,-2.2852,-2.2677,-2.1667,-2.1078,-2.0563,-2.0086,-1.9504,-1.8659,-1.7387,-1.7287,-1.6734,-1.5462,-1.5462,-1.4977,-1.4088,-1.4088,-1.4088,-1.4088,-1.4088,-1.4088,-1.4088,-1.4088,0.0,-1.4088,-1.4088,-1.4088,-1.4088,-1.4088,-1.4088,-1.4088,-1.4088,-1.4088,-1.4088,0.0,0.0,0.0,0.0,0.0,0.0,0.0,-1.082,-1.1309,-1.1577,-1.1953,-1.2393,-1.2832,-1.2881,-1.2881,0.0,0.0,0.0,0.0,0.0,0.0,0.0,0.0,0.0,0.0,0.0,0.0,0.0,0.0,0.0,0.0,0.0,0.0,0.0,0.0,0.0,0.0,0.0,0.0,0.0,0.0,0.0,0.0,0.0,0.0,0.0,0.0,0.0,0.0,0.0,-1.5869,-1.624,-1.7098,-1.7092,-1.6949,-1.7765,-1.8008,-1.8008,-1.8008,-1.8008,-1.8008,-1.8008,-1.7974,-1.7775,-1.687,0.0,0.0,-1.4252,-1.4773,-1.5379,-1.5409,-1.5377,-1.599,-1.7681,-1.9056,-2.0175,-2.0762,-2.0889,-2.1133,-2.1807,-2.2256,-2.251,-2.251,-2.2891,-2.2862,-2.2306,-2.2217,-2.1581,-2.0035,-1.9557,-1.9016,-1.8337,-1.8329,-1.7902,-1.6877,-1.687,-1.6534,-1.5801,-1.5801,-1.5801,-1.5801,-1.5801,-1.547,-1.4894,-1.4894,-1.4657,-1.4088,-1.4088,-1.4088,-1.4088,-1.4088,-1.4088,-1.4173,-1.4734,-1.4894,-1.4894,0.0,0.0,0.0,0.0,0.0,0.0,0.0,-1.0645,-1.1064,-1.1547,-1.1953,-1.2393,-1.2832,-1.2881,-1.2881,0.0,0.0,0.0,0.0,0.0,0.0,0.0,0.0,0.0,0.0,0.0,0.0,0.0,0.0,0.0,0.0,0.0,0.0,0.0,0.0,0.0,0.0,0.0,0.0,0.0,0.0,0.0,0.0,0.0,0.0,0.0,0.0,0.0,0.0,0.0,-1.595,-1.6546,-1.7448,-1.7812,-1.7978,-1.7978,-1.8027,-1.8008,-1.8008,-1.8008,-1.8008,-1.8008,-1.7992,-1.7546,-1.5817,-1.5117,0.0,-1.3193,-1.4217,-1.5411,-1.5407,-1.54,-1.5722,-1.6533,-1.8012,-1.9394,-2.0546,-2.0713,-2.1064,-2.2041,-2.2441,-2.2646,-2.2646,-2.2939,-2.3135,-2.3135,-2.3135,-2.2174,-2.0069,-1.9678,-1.948,-1.9402,-1.9479,-1.9135,-1.8506,-1.8421,-1.807,-1.7449,-1.7375,-1.7342,-1.7342,-1.7342,-1.6846,-1.6026,-1.6026,-1.5545,-1.4824,-1.4824,-1.4824,-1.4824,-1.4824,-1.4657,-1.4573,-1.5379,-1.5696,-1.5696,0.0,0.0,0.0,0.0,0.0,0.0,0.0,-1.0645,-1.1064,-1.1547,-1.1953,-1.2393,-1.2832,-1.2881,-1.2881,0.0,0.0,0.0,0.0,0.0,0.0,0.0,0.0,0.0,0.0,0.0,0.0,0.0,-1.3008,0.0,0.0,0.0,0.0,0.0,0.0,0.0,0.0,0.0,0.0,0.0,0.0,0.0,0.0,0.0,0.0,0.0,0.0,0.0,0.0,0.0,0.0,-1.5644,-1.6562,-1.7382,-1.7975,-1.7975,0.0,0.0,-1.8008,-1.8008,-1.8008,-1.8008,-1.8011,-1.7529,-1.577,0.0,-1.3112,-1.295,-1.4248,-1.5384,-1.5431,-1.5405,-1.5683,-1.6586,0.0,-1.8864,-2.084,-2.1172,-2.1631,-2.2871,-2.3057,-2.3076,-2.3076,-2.3115,-2.3135,-2.3135,-2.3135,-2.3028,-2.2717,-2.2678,-2.2486,-2.2111,-2.2101,-2.1448,-1.9982,-1.9632,-1.8941,-1.7913,-1.7499,-1.7342,-1.7342,-1.7342,-1.7253,-1.7172,-1.7172,-1.709,0.0,-1.7017,-1.7017,-1.7017,-1.7017,-1.6437,-1.5538,-1.5703,-1.5696,-1.5696,0.0,0.0,0.0,0.0,0.0,0.0,-1.0254,-1.043,-1.0684,-1.1113,-1.1553,-1.1992,-1.2441,-1.2725,-1.2881,0.0,0.0,0.0,0.0,0.0,0.0,0.0,0.0,0.0,0.0,0.0,0.0,0.0,-1.2881,0.0,0.0,0.0,0.0,0.0,0.0,-1.2881,0.0,0.0,0.0,0.0,0.0,0.0,0.0,0.0,0.0,0.0,0.0,0.0,0.0,0.0,0.0,0.0,-1.5209,-1.5742,0.0,0.0,-1.8025,-1.8031,-1.8027,-1.8008,-1.8008,-1.8008,-1.7991,-1.7563,-1.582,-1.4073,-1.2895,-1.2895,-1.3446,-1.3878,-1.3893,-1.4706,-1.5488,0.0,-1.7086,-1.8332,-1.9173,-1.9889,-2.0928,-2.2227,-2.2607,-2.2861,-2.3115,-2.3135,-2.3135,-2.3135,-2.3135,-2.3135,-2.3135,-2.3135,-2.3066,-2.2891,-2.2891,-2.2418,-2.1551,-2.1227,-2.0639,-1.9888,-1.9476,-1.9274,-1.9274,-1.9274,-1.8948,-1.831,-1.831,-1.7908,0.0,-1.7342,-1.7342,-1.7342,-1.7342,-1.7009,-1.6764,-1.7415,-1.7658,-1.7658,0.0,0.0,0.0,0.0,0.0,-0.999,-1.0244,-1.0283,-1.043,-1.085,-1.1332,-1.1728,-1.2178,-1.2617,-1.2881,-1.2881,0.0,0.0,0.0,0.0,0.0,0.0,0.0,0.0,0.0,0.0,0.0,0.0,0.0,-1.2881,0.0,0.0,-1.2881,-1.2881,0.0,0.0,0.0,0.0,0.0,0.0,0.0,0.0,0.0,0.0,0.0,0.0,0.0,0.0,0.0,0.0,0.0,0.0,0.0,0.0,0.0,0.0,-1.7596,-1.7975,-1.8004,-1.8007,-1.8008,-1.8008,-1.7991,-1.7553,-1.5781,-1.412,-1.2887,-1.2904,-1.3299,-1.365,-1.3618,-1.4611,-1.543,0.0,-1.6825,-1.8046,-1.8275,-1.9245,-2.041,-2.1728,-2.2148,-2.249,-2.291,-2.3066,-2.3135,-2.3135,-2.3135,-2.3135,-2.3135,-2.3135,-2.3135,-2.3135,-2.3135,-2.2998,-2.2705,-2.2275,-2.1855,-2.1426,-2.0977,-2.0693,-2.0566,-2.0566,-2.0167,-1.9441,-1.9441,-1.9036,0.0,-1.831,-1.831,-1.831,-1.831,-1.806,-1.7908,-1.8718,-1.9036,-1.9036,0.0,0.0,0.0,0.0,0.0,0.0,-1.0156,-1.0283,-1.043,-1.085,-1.1332,-1.1728,-1.2178,-1.2617,-1.2881,-1.2881,0.0,0.0,0.0,0.0,0.0,0.0,0.0,0.0,0.0,0.0,0.0,0.0,0.0,0.0,0.0,0.0,-1.2881,-1.2881,0.0,0.0,0.0,0.0,0.0,0.0,0.0,0.0,0.0,0.0,0.0,0.0,0.0,0.0,0.0,0.0,0.0,0.0,0.0,0.0,0.0,0.0,-1.6673,-1.8001,-1.8001,-1.7965,-1.8008,-1.8008,-1.7991,-1.7551,-1.5821,-1.4099,-1.2928,-1.2896,-1.4214,-1.5378,-1.5376,-1.5391,-1.5375,-1.5371,-1.6864,-1.8218,-1.8841,-1.9451,-2.041,-2.1728,-2.1894,-2.206,-2.248,-2.2891,-2.3135,-2.3135,-2.3135,-2.3135,-2.3135,-2.3135,-2.3135,-2.3135,-2.3135,-2.3135,-2.3135,-2.2715,-2.2295,-2.1875,-2.1435,-2.0996,-2.0566,-2.0566,-2.0566,-2.0566,-2.0566,-2.0566,0.0,-2.0566,-2.0566,-2.0566,-2.0566,-1.9923,-1.8957,-1.9036,-1.9036,-1.9036,0.0,0.0,0.0,0.0,0.0,0.0,0.0,-1.0283,-1.0371,-1.0459,-1.085,-1.1279,-1.1728,-1.2168,-1.2559,-1.2852,0.0,0.0,0.0,0.0,0.0,0.0,0.0,0.0,0.0,0.0,0.0,0.0,0.0,0.0,0.0,0.0,0.0,0.0,-1.2881,0.0,0.0,0.0,0.0,0.0,0.0,0.0,0.0,0.0,0.0,0.0,0.0,0.0,0.0,0.0,0.0,0.0,0.0,0.0,0.0,-1.3546,-1.4877,-1.6506,-1.7657,-1.802,-1.7978,-1.7997,-1.802,-1.7518,-1.5816,-1.498,-1.4596,-1.4609,-1.5019,-1.5386,-1.5377,-1.5379,-1.5429,-1.5369,0.0,0.0,-1.9082,-1.9893,-2.0625,-2.1357,-2.2207,-2.2793,-2.293,-2.3057,-2.3135,-2.3135,-2.3135,-2.3135,-2.3135,-2.3135,-2.3135,-2.3135,-2.3135,-2.3135,-2.3135,-2.2725,-2.2305,-2.1885,-2.1748,-2.1445,-2.1035,-2.1328,-2.1309,-2.1025,-2.1025,-2.085,-2.0566,-2.0566,-2.0566,-2.0566,-2.0566,-2.0401,-2.0079,-2.0079,-2.0079,-2.0079,0.0,0.0,0.0,0.0,0.0,0.0,0.0,-1.0283,-1.0283,-1.0283,-1.0645,-1.1006,-1.1279,-1.1865,-1.2334,-1.2607,0.0,0.0,0.0,0.0,0.0,0.0,0.0,0.0,0.0,0.0,0.0,0.0,0.0,0.0,0.0,0.0,0.0,0.0,0.0,0.0,0.0,0.0,0.0,0.0,0.0,0.0,-1.3662,0.0,0.0,0.0,0.0,0.0,0.0,0.0,0.0,0.0,0.0,0.0,0.0,0.0,-1.3647,-1.4824,-1.6526,-1.6565,-1.6069,-1.6105,-1.608,-1.5955,-1.5517,-1.5401,-1.5406,-1.5416,-1.5391,-1.5379,-1.5409,-1.541,-1.5379,-1.5374,-1.7165,0.0,-1.9113,-1.9866,-2.0605,-2.1387,-2.2324,-2.29,-2.29,-2.3047,-2.3135,-2.3135,-2.3135,-2.3135,-2.3135,-2.3135,-2.3135,-2.3135,-2.3135,-2.3135,-2.3135,-2.2881,-2.2461,-2.1885,-2.2041,-2.1807,-2.125,-2.1689,-2.165,-2.123,-2.123,-2.0977,0.0,-2.0566,-2.0566,-2.0566,-2.0566,-2.0566,-2.0566,-2.0566,-2.0566,-2.0566,0.0,0.0,0.0,0.0,0.0,0.0,0.0,0.0,-1.0234,-1.0234,-1.0596,-1.0879,-1.0908,-1.1626,-1.2151,-1.218,0.0,0.0,0.0,0.0,0.0,0.0,0.0,0.0,0.0,0.0,0.0,0.0,-1.2881,-1.2881,0.0,0.0,0.0,0.0,0.0,0.0,0.0,0.0,0.0,0.0,-1.2881,-1.2881,0.0,0.0,0.0,0.0,0.0,0.0,0.0,0.0,0.0,0.0,0.0,0.0,0.0,0.0,0.0,0.0,0.0,-1.4072,-1.2903,-1.2877,-1.2915,-1.3313,-1.4848,-1.5212,0.0,-1.524,-1.5295,-1.5379,-1.5409,-1.541,-1.5449,-1.5576,-1.7626,-1.9178,-1.8957,-1.9525,-2.0488,-2.1777,-2.2275,-2.2519,-2.2549,-2.291,-2.3135,-2.3135,-2.3135,-2.3135,-2.3135,-2.3135,-2.3135,-2.3135,-2.3135,-2.3135,-2.3135,-2.3105,-2.2705,-2.1934,-2.2324,-2.21,-2.1338,-2.1748,-2.1709,-2.1318,-2.126,-2.0996,-2.0605,-2.0576,-2.0566,-2.0566,-2.0566,-2.0566,-2.0566,-2.0566,-2.0566,-2.0566,0.0,0.0,0.0,0.0,0.0,0.0,0.0,0.0,0.0,0.0,-1.0156,-1.0547,-1.0879,-1.1396,-1.1855,0.0,0.0,0.0,0.0,0.0,0.0,0.0,0.0,0.0,0.0,0.0,0.0,-1.2881,-1.2881,-1.2881,-1.2881,-1.2881,0.0,0.0,0.0,0.0,0.0,0.0,0.0,0.0,-1.2881,-1.2881,0.0,0.0,0.0,0.0,-1.2881,-1.2881,0.0,0.0,0.0,0.0,0.0,0.0,0.0,0.0,-1.29,-1.2998,-1.3391,0.0,-1.2915,-1.2889,-1.2894,-1.2991,0.0,-1.3489,-1.3471,-1.3493,-1.4486,-1.5379,-1.5409,-1.541,-1.585,-1.7187,-1.7922,-1.8586,-1.9399,-2.0312,-2.1289,-2.2246,-2.2451,-2.2637,-2.2959,-2.3076,-2.3135,-2.3135,-2.3135,-2.3135,-2.3135,-2.3135,-2.3135,-2.3135,-2.3135,-2.3135,-2.3135,-2.2822,-2.2559,-2.2363,-2.2461,-2.2402,-2.2217,-2.2314,-2.2314,-2.2178,-2.1523,-2.1172,-2.1055,-2.0703,-2.0566,-2.0566,-2.0566,-2.0566,-2.0566,-2.0566,-2.0566,-2.0566,0.0,0.0,0.0,0.0,0.0,0.0,0.0,0.0,0.0,0.0,0.0,0.0,0.0,0.0,0.0,0.0,0.0,0.0,0.0,0.0,0.0,0.0,0.0,0.0,0.0,0.0,0.0,0.0,0.0,-1.2881,0.0,0.0,0.0,0.0,0.0,0.0,0.0,0.0,0.0,0.0,-1.2881,0.0,0.0,0.0,0.0,0.0,-1.2881,-1.2881,0.0,-1.2881,-1.2881,-1.2881,0.0,0.0,0.0,0.0,-1.2881,-1.2881,-1.2881,-1.2916,-1.2916,-1.2895,-1.2881,-1.2902,-1.2902,0.0,0.0,0.0,0.0,-1.4479,-1.5268,-1.6065,-1.6658,-1.6786,-1.7799,-1.8984,-2.0,-2.0712,-2.1475,-2.2148,-2.2393,-2.2607,-2.2832,-2.3027,-2.3057,-2.2861,-2.2852,-2.2764,-2.2578,-2.2744,-2.2852,-2.2852,-2.2852,-2.2939,-2.3135,-2.291,-2.2607,-2.2227,-2.2617,-2.2598,-2.2236,-2.2432,-2.2412,-2.2187,-2.1523,-2.1123,-2.0908,-2.0664,-2.0566,-2.0566,-2.0566,-2.0566,-2.0566,-2.0566,-2.0566,-2.0566,0.0,0.0,0.0,0.0,0.0,0.0,0.0,0.0,0.0,0.0,0.0,0.0,0.0,0.0,0.0,0.0,0.0,0.0,0.0,0.0,0.0,0.0,0.0,0.0,0.0,0.0,0.0,0.0,0.0,0.0,0.0,0.0,0.0,0.0,0.0,0.0,0.0,0.0,0.0,0.0,-1.2881,0.0,0.0,0.0,0.0,0.0,0.0,0.0,0.0,-1.2881,-1.2881,-1.2881,-1.2881,0.0,0.0,0.0,0.0,0.0,-1.289,-1.2893,-1.2959,-1.3237,-1.3304,-1.3189,-1.2982,0.0,0.0,0.0,0.0,-1.3395,-1.5101,-1.6593,-1.7226,-1.6172,-1.7929,-1.9687,-2.0458,-2.0889,-2.1289,-2.1738,-2.21,-2.2344,-2.2412,-2.2744,-2.2803,-2.2441,-2.2412,-2.2266,-2.1904,-2.2285,-2.248,-2.2422,-2.248,-2.2656,-2.2939,-2.2949,-2.2656,-2.209,-2.2734,-2.2676,-2.1992,-2.2285,-2.2217,-2.1855,-2.1348,0.0,-2.0664,-2.0596,-2.0566,-2.0566,-2.0566,-2.0566,-2.0566,-2.0566,-2.0566,-2.0566,0.0,0.0,0.0,0.0,0.0,0.0,0.0,0.0,0.0,0.0,0.0,0.0,0.0,0.0,0.0,0.0,0.0,0.0,0.0,0.0,0.0,0.0,0.0,0.0,0.0,0.0,0.0,0.0,0.0,0.0,-1.2881,-1.2881,-1.2881,0.0,0.0,0.0,0.0,0.0,0.0,-1.2881,-1.2881,0.0,0.0,0.0,0.0,0.0,0.0,0.0,0.0,-1.2881,-1.2881,-1.2881,-1.2881,0.0,0.0,0.0,0.0,0.0,-1.2912,-1.2907,-1.3251,-1.4655,-1.4995,-1.4661,-1.324,0.0,0.0,0.0,0.0,0.0,0.0,-1.5633,-1.6472,-1.836,-1.9318,-1.9958,-2.0556,-2.0625,-2.084,-2.1279,-2.1396,-2.1572,-2.1943,-2.2041,-2.2051,-2.1992,-2.1982,-2.1953,-2.1894,-2.2285,-2.2344,-2.1992,-2.2324,-2.2373,-2.208,-2.208,-2.2373,-2.2939,-2.2715,-2.2539,-2.2402,-2.2119,-2.1953,-2.1836,0.0,-2.084,-2.1103,-2.0723,-2.0566,-2.0566,-2.0566,-2.0566,-2.0566,-2.0566,-2.0566,-2.0566,0.0,0.0,0.0,0.0,0.0,0.0,0.0,0.0,0.0,0.0,0.0,0.0,0.0,0.0,0.0,0.0,0.0,0.0,0.0,0.0,0.0,0.0,0.0,0.0,0.0,0.0,0.0,0.0,0.0,-1.2881,-1.2881,-1.2881,-1.2881,-1.2881,0.0,0.0,0.0,0.0,0.0,-1.2881,0.0,0.0,0.0,0.0,0.0,0.0,0.0,0.0,0.0,0.0,-1.2881,-1.2881,-1.2881,0.0,0.0,0.0,0.0,0.0,-1.2908,-1.3547,-1.4418,-1.5193,-1.4716,-1.4074,-1.4238,0.0,0.0,0.0,0.0,0.0,0.0,-1.6145,-1.7494,-1.962,-2.0158,-2.0365,-2.0595,-2.0566,-2.0644,-2.085,-2.1094,-2.1309,-2.1514,-2.1748,-2.1787,-2.1553,-2.1533,-2.1435,-2.1182,-2.1582,-2.1738,-2.1543,-2.1719,-2.1846,-2.1885,-2.165,-2.1728,-2.2109,-2.2383,-2.2266,-2.1816,-2.1621,-2.1533,-2.1494,0.0,-2.0684,-2.0859,-2.0654,-2.0566,-2.0566,-2.0566,-2.0566,-2.0566,-2.0566,-2.0566,-2.0566,0.0,0.0,0.0,0.0,0.0,0.0,0.0,0.0,0.0,0.0,0.0,0.0,0.0,0.0,0.0,0.0,0.0,0.0,0.0,0.0,0.0,0.0,0.0,0.0,0.0,0.0,0.0,-1.2881,-1.2881,-1.2881,-1.2881,-1.2881,-1.2881,0.0,0.0,0.0,0.0,0.0,0.0,-1.2881,0.0,0.0,0.0,0.0,0.0,0.0,0.0,0.0,0.0,0.0,0.0,0.0,0.0,0.0,0.0,-1.2881,-1.2881,-1.29,-1.292,-1.3862,-1.4799,-1.4821,-1.415,-1.3811,-1.511,0.0,0.0,0.0,0.0,0.0,0.0,-1.7432,-1.9043,-2.0352,-2.0601,-2.0589,-2.0605,-2.0566,-2.0566,-2.0566,-2.0869,-2.1074,-2.1074,-2.1377,-2.1435,-2.1103,-2.1074,-2.0928,-2.0586,-2.0986,-2.1182,-2.1074,-2.1182,-2.1348,-2.1572,-2.1348,-2.1289,-2.1396,-2.2051,-2.1973,-2.123,-2.123,-2.1182,-2.1055,-2.0713,-2.0566,-2.0566,-2.0566,-2.0566,-2.0566,-2.0566,-2.0566,-2.0566,-2.0566,-2.0566,-2.0566,0.0,0.0,0.0,0.0,0.0,0.0,0.0,0.0,0.0,0.0,0.0,0.0,0.0,0.0,0.0,0.0,0.0,0.0,0.0,0.0,0.0,0.0,0.0,0.0,0.0,-1.2881,-1.2881,-1.2881,-1.2881,-1.2881,-1.2881,-1.2881,-1.2881,0.0,0.0,0.0,0.0,0.0,0.0,-1.2881,-1.2881,0.0,0.0,0.0,0.0,0.0,0.0,0.0,0.0,0.0,0.0,0.0,0.0,0.0,-1.2881,-1.2881,-1.2881,-1.29,-1.289,-1.3014,-1.3067,-1.3097,-1.415,0.0,-1.5349,-1.5381,0.0,-1.7451,0.0,0.0,0.0,-1.9261,-2.0439,-2.0557,-2.0562,-2.0615,-2.0634,-2.0566,-2.0566,-2.0566,-2.0596,-2.0615,-2.0615,-2.0635,-2.0644,-2.0615,-2.0615,-2.0596,-2.0566,-2.0986,-2.1045,-2.0625,-2.1016,-2.1055,-2.0664,-2.1045,-2.1435,-2.1836,-2.1904,-2.1689,-2.123,-2.123,-2.1006,-2.0605,-2.0576,-2.0566,-2.0566,-2.0566,-2.0566,-2.0566,-2.0566,-2.0566,-2.0566,-2.0566,-2.0566,-2.0566,0.0,0.0,0.0,0.0,0.0,0.0,0.0,0.0,0.0,0.0,0.0,0.0,0.0,0.0,0.0,0.0,0.0,0.0,0.0,0.0,0.0,0.0,0.0,-1.2881,-1.2881,-1.2881,-1.2881,-1.2881,-1.2881,-1.2881,-1.2881,-1.2881,0.0,0.0,0.0,0.0,0.0,0.0,0.0,0.0,-1.2881,-1.2881,0.0,0.0,0.0,0.0,0.0,0.0,0.0,0.0,-1.2881,-1.2881,0.0,-1.2881,-1.2881,-1.2881,-1.2881,-1.291,-1.2879,-1.2878,-1.2902,-1.2894,-1.3401,0.0,0.0,-1.5513,-1.7203,-1.7885,-1.8012,0.0,0.0,-1.9431,-2.0614,-2.0567,-2.0592,-2.0566,-2.0566,-2.0566,-2.0566,-2.0566,-2.0566,-2.0566,-2.0566,-2.0566,-2.0566,-2.0566,-2.0566,-2.0566,-2.0566,-2.0723,-2.0742,-2.0566,-2.0732,-2.0732,-2.0566,-2.0732,-2.0898,-2.1064,-2.1348,-2.125,-2.082,-2.082,-2.0723,-2.0566,-2.0566,-2.0566,-2.0566,-2.0566,-2.0566,-2.0566,-2.0566,-2.0566,-2.0566,-2.0566,-2.0566,-2.0566,0.0,0.0,0.0,0.0,0.0,0.0,0.0,0.0,0.0,0.0,0.0,0.0,0.0,0.0,0.0,0.0,0.0,0.0,0.0,0.0,0.0,0.0,0.0,-1.2744,-1.2881,-1.2881,-1.2881,-1.2881,-1.2881,-1.2881,-1.2881,0.0,0.0,0.0,0.0,0.0,0.0,0.0,0.0,0.0,-1.2881,-1.2881,0.0,0.0,0.0,0.0,0.0,0.0,0.0,0.0,-1.2881,0.0,0.0,0.0,0.0,-1.2881,-1.291,-1.289,-1.289,-1.2912,-1.2761,-1.2281,0.0,0.0,-1.3696,-1.5936,-1.8015,-1.8014,-1.8468,-1.8623,-1.8124,0.0,-1.9929,-2.0547,-2.0592,-2.0566,-2.0566,-2.0566,-2.0566,-2.0566,-2.0566,-2.0566,-2.0566,-2.0566,-2.0566,-2.0566,-2.0566,-2.0566,-2.0566,-2.0566,-2.0566,-2.0566,-2.0566,-2.0566,-2.0566,-2.0566,-2.0566,-2.0566,-2.0879,-2.0859,-2.0566,-2.0566,-2.0566,-2.0566,-2.0566,-2.0566,-2.0566,-2.0566,-2.0566,-2.0566,-2.0566,-2.0566,-2.0566,-2.0566,-2.0566,-2.0566,0.0,0.0,0.0,0.0,0.0,0.0,0.0,0.0,0.0,0.0,0.0,0.0,0.0,0.0,0.0,0.0,0.0,0.0,0.0,0.0,0.0,0.0,0.0,-1.2422,-1.2861,-1.2881,-1.2881,-1.2881,-1.2881,-1.2881,-1.2881,0.0,0.0,0.0,0.0,0.0,0.0,0.0,0.0,0.0,0.0,-1.2881,-1.2881,0.0,0.0,0.0,0.0,0.0,0.0,0.0,-1.2881,-1.2881,0.0,0.0,0.0,-1.2881,-1.291,-1.2908,-1.2849,-1.2855,-1.2512,0.0,0.0,0.0,-1.5376,-1.6713,-1.7953,-1.8008,-1.9397,-2.008,-1.8351,-1.8035,-1.8561,-2.0347,-2.0592,-2.0566,-2.0566,-2.0566,-2.0566,-2.0566,-2.0566,-2.0566,-2.0566,-2.0566,-2.0566,-2.0566,-2.0566,-2.0566,-2.0566,-2.0566,-2.0566,-2.0566,-2.0566,-2.0566,-2.0566,-2.0566,-2.0566,-2.0566,-2.0566,-2.0566,-2.0566,-2.0566,-2.0566,-2.0566,-2.0566,-2.0566,-2.0566,-2.0566,-2.0566,-2.0566,-2.0566,-2.0566,-2.0566,-2.0566,-2.0566,-2.0566,0.0,0.0,0.0,0.0,0.0,0.0,0.0,0.0,0.0,0.0,0.0,0.0,0.0,0.0,0.0,0.0,0.0,0.0,0.0,0.0,0.0,0.0,0.0,0.0,0.0,0.0,-1.2881,-1.2881,-1.2881,-1.2881,0.0,0.0,0.0,-1.2432,0.0,0.0,0.0,0.0,0.0,0.0,0.0,-1.2881,-1.2881,0.0,0.0,0.0,0.0,0.0,0.0,0.0,0.0,0.0,0.0,0.0,0.0,-1.2881,-1.291,-1.2461,-1.0557,-1.0029,0.0,-0.946,0.0,0.0,0.0,-1.3635,0.0,0.0,-1.9402,-2.0103,-1.83,-1.9027,-1.9984,-2.0502,-2.0575,-2.0595,-2.0586,-2.0625,-2.0595,-2.0586,-2.0566,-2.0566,-2.0566,-2.0566,-2.0566,-2.0566,-2.0566,-2.0566,-2.0566,-2.0566,-2.0566,-2.0566,-2.0566,-2.0566,-2.0566,-2.0566,-2.0566,-2.0566,-2.0566,-2.0566,-2.0566,-2.0566,-2.0566,-2.0566,-2.0566,-2.0566,-2.0566,-2.0566,-2.0566,-2.0566,-2.0566,-2.0566,-2.0566,-2.0566,-2.0566,-2.0566,0.0,0.0,0.0,0.0,0.0,0.0,0.0,0.0,0.0,0.0,0.0,0.0,0.0,0.0,0.0,0.0,0.0,0.0,0.0,0.0,0.0,0.0,0.0,0.0,0.0,-1.2656,-1.2881,0.0,0.0,0.0,0.0,0.0,0.0,-1.1973,0.0,0.0,0.0,0.0,0.0,0.0,0.0,-1.2617,-1.2637,0.0,0.0,0.0,0.0,0.0,0.0,0.0,0.0,0.0,0.0,0.0,0.0,-1.289,-1.289,-1.2563,-1.0861,-0.9656,0.0,-0.9367,-1.0036,-1.0923,-1.202,0.0,0.0,0.0,-1.7759,-1.9439,-1.9064,-1.9885,-2.0571,-2.0576,-2.0615,-2.0014,-1.8232,-1.9539,-2.0593,-2.0596,-2.0566,-2.0566,-2.0566,-2.0566,-2.0566,-2.0566,-2.0566,-2.0566,-2.0566,-2.0566,-2.0566,-2.0566,-2.0566,-2.0566,-2.0566,-2.0566,-2.0566,-2.0566,-2.0566,-2.0566,-2.0566,-2.0566,-2.0566,-2.0566,-2.0566,-2.0566,-2.0566,-2.0566,-2.0566,-2.0566,-2.0566,-2.0566,-2.0566,-2.0566,-2.0566,-2.0566,0.0,0.0,-0.8887,-0.8506,0.0,0.0,0.0,0.0,0.0,0.0,0.0,-1.0283,0.0,0.0,0.0,-1.0283,0.0,0.0,0.0,0.0,0.0,0.0,0.0,0.0,0.0,0.0,0.0,0.0,0.0,0.0,0.0,0.0,-1.1577,-1.1547,0.0,-1.1577,0.0,0.0,0.0,0.0,-1.2002,-1.2168,-1.2207,-1.2607,0.0,0.0,0.0,0.0,0.0,0.0,0.0,0.0,-1.2881,-1.2881,-1.29,-1.2909,-1.2698,-1.2512,-1.2511,-1.0801,-0.9217,-1.032,-1.0651,0.0,-1.2032,-1.2284,-1.229,-1.2271,-1.5317,-1.8484,-2.0092,-2.0348,-2.0404,-2.0609,-2.0284,-1.8629,-1.4684,-1.7863,-2.0622,-2.0625,-2.0576,-2.0566,-2.0566,-2.0566,-2.0566,-2.0566,-2.0566,-2.0566,-2.0566,-2.0566,-2.0566,-2.0566,-2.0566,-2.0566,-2.0566,-2.0566,-2.0566,-2.0566,-2.0566,-2.0566,-2.0566,-2.0566,-2.0566,-2.0566,-2.0566,-2.0566,-2.0566,-2.0566,-2.0566,-2.0566,-2.0566,-2.0566,-2.0566,-2.0566,-2.0566,-2.0557,0.0,0.0,-0.8975,-0.8887,0.0,0.0,0.0,0.0,0.0,-0.9729,-1.0068,-1.0283,-1.0283,-1.0283,0.0,-1.0283,-1.0283,0.0,0.0,0.0,0.0,0.0,0.0,0.0,0.0,0.0,0.0,0.0,0.0,0.0,0.0,0.0,0.0,-1.1064,0.0,-1.141,0.0,0.0,0.0,0.0,-1.1704,-1.1753,-1.1763,-1.1851,-1.189,0.0,0.0,0.0,0.0,0.0,0.0,0.0,-1.2881,-1.2881,-1.2881,-1.291,-1.1384,-0.9675,-0.9662,-0.9928,0.0,-1.0548,-1.1247,-1.1978,-1.2237,-1.2278,-1.2278,-1.2291,-1.535,-1.8124,-1.8508,-1.8577,-1.9014,-2.0382,-1.7716,-1.5129,-1.4188,-1.7852,-2.0623,-2.0632,-2.0596,-2.0566,-2.0566,-2.0566,-2.0566,-2.0566,-2.0566,-2.0566,-2.0566,-2.0566,-2.0566,-2.0566,-2.0566,-2.0566,-2.0566,-2.0566,-2.0566,-2.0566,-2.0566,-2.0566,-2.0566,-2.0566,-2.0566,-2.0566,-2.0566,-2.0566,-2.0566,-2.0566,-2.0566,-2.0566,-2.0566,-2.0566,-2.0566,-2.0566,-2.0566,-2.0518,0.0,0.0,0.0,0.0,0.0,0.0,0.0,0.0,-0.967,-0.9912,-1.0137,-1.0205,-0.999,-0.9971,0.0,0.0,-0.9853,-0.9971,0.0,0.0,0.0,0.0,0.0,0.0,0.0,0.0,0.0,0.0,0.0,0.0,0.0,0.0,0.0,-1.0918,0.0,-1.1123,0.0,0.0,0.0,-1.1008,-1.1214,-1.125,-1.127,-1.1528,-1.1606,-1.1636,-1.1826,0.0,0.0,0.0,0.0,0.0,0.0,0.0,-1.2891,-1.29,-1.1882,-1.0485,-0.9153,0.0,0.0,-1.0618,0.0,-1.2297,-1.233,-1.2325,-1.231,-1.2312,-1.5375,-1.8024,-1.7981,-1.8009,-1.8338,-1.9209,-1.5904,-1.345,-1.3981,-1.6032,-1.825,-2.0312,-2.0605,-2.0566,-2.0566,-2.0566,-2.0566,-2.0566,-2.0566,-2.0566,-2.0566,-2.0566,-2.0566,-2.0566,-2.0566,-2.0566,-2.0566,-2.0566,-2.0566,-2.0566,-2.0566,-2.0566,-2.0566,-2.0566,-2.0566,-2.0566,-2.0566,-2.0566,-2.0566,-2.0566,-2.0566,-2.0566,-2.0566,-2.0566,-2.0566,-2.0566,-2.0566,-2.0498,0.0,0.0,0.0,0.0,0.0,0.0,0.0,0.0,0.0,-1.0127,-1.0234,-1.0117,-0.9641,-0.9592,-0.9427,0.0,0.0,0.0,-0.9592,0.0,0.0,0.0,0.0,0.0,0.0,0.0,0.0,0.0,0.0,0.0,0.0,0.0,0.0,-1.0908,0.0,0.0,0.0,0.0,0.0,-1.0312,-1.0654,-1.0801,-1.084,-1.1243,-1.1381,-1.139,-1.1459,-1.1915,-1.2514,-1.2807,0.0,0.0,0.0,0.0,-1.288,-1.288,-1.2895,-1.2283,-0.9535,0.0,-1.0622,-1.0631,-1.1471,0.0,-1.2276,-1.233,-1.229,-1.229,-1.4816,-1.7195,-1.7911,-1.7484,-1.7008,-1.6985,-1.4334,-1.2678,-1.3677,-1.3754,-1.5467,-2.0091,-2.0515,-2.0468,-2.0556,-2.0546,-2.0478,-2.0557,-2.0566,-2.0566,-2.0566,-2.0566,-2.0566,-2.0566,-2.0566,-2.0566,-2.0566,-2.0566,-2.0566,-2.0566,-2.0566,-2.0566,-2.0566,-2.0566,-2.0566,-2.0566,-2.0566,-2.0566,-2.0566,-2.0566,-2.0566,-2.0566,-2.0566,-2.0566,-2.0566,-2.0566,-2.0518,-2.0391,0.0,0.0,0.0,0.0,0.0,0.0,0.0,0.0,0.0,0.0,-1.0049,-1.0117,-0.9641,-0.9592,-0.9427,-0.9043,-0.9053,-0.9248,0.0,0.0,0.0,0.0,0.0,0.0,0.0,0.0,0.0,0.0,0.0,0.0,0.0,0.0,0.0,0.0,0.0,0.0,0.0,0.0,0.0,-1.0283,-1.0342,-1.0371,-1.0371,-1.043,-1.0449,-1.0498,-1.0869,-1.082,-1.087,-1.2398,-1.2878,0.0,0.0,0.0,-1.2906,-1.2919,-1.2878,-1.2313,-0.9539,0.0,-1.0574,0.0,-1.1465,-1.2303,-1.2331,-1.2276,-1.2278,-1.2278,-1.2697,-1.4049,-1.7374,-1.5267,-1.3064,-1.3027,-1.2634,-1.2365,-1.249,-1.2566,-1.4554,-1.9936,-2.0133,-2.0004,-2.0572,-2.021,-2.0156,-2.0537,-2.0566,-2.0566,-2.0566,-2.0566,-2.0566,-2.0566,-2.0566,-2.0566,-2.0566,-2.0566,-2.0566,-2.0566,-2.0566,-2.0566,-2.0566,-2.0566,-2.0566,-2.0566,-2.0566,-2.0566,-2.0566,-2.0566,-2.0566,-2.0566,-2.0566,-2.0566,-2.0566,-2.0566,-2.0322,-1.9941,0.0,0.0,0.0,0.0,0.0,0.0,0.0,0.0,0.0,0.0,0.0,-1.0117,-0.9641,-0.9388,-0.9111,-0.8691,-0.8652,0.0,0.0,0.0,0.0,0.0,0.0,0.0,0.0,0.0,0.0,0.0,0.0,0.0,0.0,-1.1279,-1.1406,0.0,0.0,0.0,0.0,0.0,0.0,-1.0283,-1.0283,-1.043,0.0,0.0,-1.043,-1.0625,0.0,0.0,-1.0701,-1.1252,-1.2098,-1.2748,-1.1762,0.0,0.0,0.0,-1.288,-1.2326,-0.9542,-0.9655,-1.0609,0.0,-1.0981,-1.1503,-1.2127,-1.2335,-1.2305,-1.2305,-1.2278,-1.2832,-1.4527,-1.3432,-1.2274,-1.2271,-1.2311,-1.233,-1.2315,-1.2282,-1.397,-1.862,-1.8886,-1.8976,-1.9551,-1.9785,-1.9893,-1.9853,-2.0293,-2.0459,-2.0215,-2.0195,-2.0312,-2.0557,-2.0098,-1.9961,-2.0195,-2.0195,-2.0322,-2.0566,-2.0566,-2.0566,-2.0566,-2.0566,-2.0566,-2.0566,-2.0566,-2.0566,-2.0566,-2.0566,-2.0566,-2.0566,-2.0566,-2.042,-2.0195,-2.0195,-1.9932,-1.9502,0.0,0.0,0.0,0.0,0.0,0.0,0.0,0.0,0.0,0.0,0.0,-0.999,-0.9631,0.0,0.0,0.0,-0.8281,0.0,0.0,0.0,0.0,0.0,0.0,0.0,0.0,0.0,0.0,0.0,0.0,0.0,-1.1606,-1.1606,-1.1855,0.0,-1.1934,0.0,0.0,0.0,0.0,-1.0439,-1.0439,-1.0625,-1.0889,-1.0684,-1.0801,-1.1016,0.0,0.0,0.0,0.0,-1.1271,-1.2066,-1.0969,-1.1385,0.0,0.0,0.0,-1.1405,-0.9352,0.0,-1.0613,-1.0571,-1.0599,-1.0927,-1.2011,-1.2305,-1.2278,-1.2278,-1.2278,-1.2278,-1.2278,-1.2324,-1.2337,-1.2285,-1.2305,-1.2305,-1.2305,-1.2318,-1.3689,-1.7542,-1.7987,-1.8203,-1.8634,-1.9219,-1.9502,-1.9307,-1.9883,-2.0098,-1.9775,-1.9756,-1.9902,-2.0225,-1.9619,-1.9434,-1.9756,-1.9863,-2.0137,-2.0566,-2.0566,-2.0566,-2.0566,-2.0566,-2.0508,-2.04,-2.04,-2.04,-2.0391,-2.0283,-2.0303,-2.04,-2.04,-2.0195,-1.9912,-1.9912,-1.958,-1.9072,0.0,0.0,0.0,0.0,0.0,0.0,0.0,0.0,0.0,0.0,0.0,-0.9622,-0.9592,-0.9258,-0.8838,-0.845,-0.7998,0.0,0.0,0.0,0.0,0.0,0.0,0.0,0.0,0.0,0.0,0.0,0.0,0.0,-1.1606,-1.1606,-1.2067,-1.2832,-1.2393,-1.1728,-1.0937,0.0,0.0,0.0,-1.0879,-1.0889,-1.0947,-1.1381,-1.1557,-1.1518,0.0,0.0,0.0,0.0,0.0,-1.0547,-1.1299,-1.1042,-1.0771,0.0,0.0,0.0,-0.8828,-0.9676,-1.0587,-1.0572,-1.0595,-1.087,-1.2011,-1.2312,-1.2294,-1.2294,-1.2294,-1.2294,-1.2294,-1.2276,-1.2298,-1.2305,-1.2305,-1.2305,-1.2305,-1.2271,-1.37,-1.7528,-1.8008,-1.8021,-1.8024,-1.8421,-1.8867,-1.9258,-1.9326,-1.9346,-1.9316,-1.9316,-1.9326,-1.9355,-1.9307,-1.9297,-1.9316,-1.9717,-2.0137,-2.0566,-2.0566,-2.0566,-2.0566,-2.0566,-2.0342,-1.9951,-1.9951,-1.9951,-1.9912,-1.9512,-1.959,-1.9951,-1.9951,-1.9932,-1.9912,-1.9912,-1.9385,-1.8592,0.0,0.0,0.0,0.0,0.0,0.0,0.0,0.0,0.0,0.0,0.0,0.0,0.0,-0.9258,-0.8838,-0.845,0.0,0.0,0.0,0.0,0.0,0.0,0.0,0.0,0.0,0.0,0.0,0.0,0.0,-1.0576,-1.1143,-1.1143,-1.1465,-1.2067,-1.1875,-1.1787,-1.1699,-1.0859,0.0,0.0,-1.1025,-1.125,0.0,-1.1611,-1.1738,-1.1934,0.0,0.0,0.0,0.0,0.0,-1.0362,-1.0666,-1.0573,-1.0158,-0.9345,-0.8981,-0.8805,-0.8784,-0.9134,-0.9606,-1.0427,-1.0623,-1.0735,-1.1135,-1.1776,-1.2297,-1.2297,-1.1742,-1.1197,-1.1197,-1.1824,-1.2328,-1.2278,-1.2305,-1.2305,-1.2305,-1.2337,-1.2841,-1.4159,-1.6526,-1.7975,-1.7977,-1.812,-1.8305,-1.8467,-1.8975,-1.916,-1.8887,-1.8867,-1.8994,-1.9277,-1.875,-1.8603,-1.8867,-1.9023,-1.9316,-1.9746,-1.9746,-1.9746,-1.9746,-1.9746,-1.9658,-1.9502,-1.9219,-1.9258,-1.9502,-1.9346,-1.9375,-1.9512,-1.9512,-1.9336,-1.9092,-1.9092,-1.873,-1.8232,0.0,0.0,0.0,-1.0283,0.0,-1.0039,-0.9326,-0.9417,0.0,0.0,0.0,0.0,0.0,0.0,0.0,0.0,0.0,0.0,0.0,0.0,0.0,0.0,0.0,0.0,0.0,0.0,0.0,0.0,0.0,0.0,0.0,0.0,-1.1064,-1.1381,-1.1381,-1.168,0.0,0.0,0.0,-1.1758,0.0,0.0,-1.2171,0.0,-1.2187,-1.2393,0.0,0.0,0.0,0.0,0.0,0.0,-1.0418,-1.0306,-1.0003,-0.8527,-0.9069,-0.9976,-0.9061,0.0,-0.8987,-0.9809,-1.0006,-1.0115,-1.0504,-1.119,-1.1699,-1.1722,-1.1127,-1.0596,-1.0596,-1.1207,-1.1817,-1.227,-1.2318,-1.2305,-1.2305,-1.2337,-1.2274,-1.2331,-1.5651,-1.7996,-1.8027,-1.7996,-1.8035,-1.8027,-1.8535,-1.873,-1.8447,-1.8428,-1.8564,-1.8848,-1.8311,-1.8213,-1.8633,-1.8562,-1.8857,-1.9287,-1.9287,-1.9287,-1.9287,-1.9287,-1.9209,-1.9053,-1.876,-1.8799,-1.9053,-1.8916,-1.8945,-1.9072,-1.9072,-1.8887,-1.8562,-1.8562,-1.8369,-1.8008,-1.0811,-1.0566,-1.0283,-1.0283,-1.0283,-1.0137,-0.9661,-0.9592,-0.9592,0.0,0.0,0.0,0.0,0.0,0.0,0.0,0.0,0.0,0.0,0.0,0.0,0.0,0.0,0.0,0.0,0.0,0.0,0.0,0.0,0.0,0.0,0.0,-1.0879,0.0,-1.0889,-1.1377,-1.2161,0.0,-1.2151,-1.218,0.0,-1.218,-1.2248,0.0,0.0,0.0,-1.2402,-1.22,0.0,-1.1738,0.0,0.0,-1.0685,-1.0321,-1.0312,-1.0285,-1.1537,-1.2301,0.0,0.0,0.0,-0.8827,-0.8902,-0.925,-1.0338,-1.0551,-1.0608,-1.0607,-1.0594,-1.06,-1.0607,-1.0619,-1.0981,-1.2127,-1.2276,-1.2305,-1.2305,-1.2264,-1.2353,-1.2423,-1.5738,-1.8006,-1.8027,-1.8008,-1.8008,-1.8008,-1.8008,-1.8008,-1.8008,-1.8008,-1.8008,-1.8008,-1.8008,-1.8203,-1.8613,-1.8553,-1.8828,-1.9248,-1.9248,-1.9248,-1.9248,-1.9248,-1.9014,-1.8553,-1.8553,-1.8553,-1.8584,-1.8184,-1.8252,-1.8553,-1.8553,-1.8553,-1.8553,-1.8553,-1.8359,-1.8008,-1.043,-1.0361,-1.0283,-1.0283,-1.0283,-1.0137,-0.9661,-0.9592,0.0,0.0,0.0,0.0,0.0,0.0,0.0,0.0,0.0,0.0,0.0,0.0,0.0,0.0,0.0,0.0,0.0,0.0,0.0,0.0,0.0,0.0,0.0,0.0,0.0,0.0,-1.0459,-1.0937,-1.1699,-1.1084,0.0,0.0,-1.1875,-1.2129,0.0,0.0,0.0,0.0,0.0,-1.2705,-1.2628,0.0,-1.1902,-1.2018,0.0,-1.06,-1.0315,-1.0308,-1.1519,-1.2301,-0.9532,0.0,0.0,0.0,0.0,0.0,-0.9939,-0.9992,-1.0614,-1.0587,-1.0581,-1.0573,-1.0628,-1.0571,-1.0985,-1.2089,-1.2298,-1.2305,-1.2305,-1.2271,-1.331,-1.6076,-1.7398,-1.8011,-1.7969,-1.8008,-1.8008,-1.8008,-1.8008,-1.8008,-1.8008,-1.8008,-1.8008,-1.8008,-1.8008,-1.8066,-1.8184,-1.8184,-1.8242,-1.8359,-1.8359,-1.8359,-1.8359,-1.8359,-1.8301,-1.8184,-1.8184,-1.8184,-1.8174,-1.8057,-1.8076,-1.8184,-1.8184,-1.8184,-1.8184,-1.8184,-1.8115,-1.8008,-1.0547,-1.0693,-1.0802,-1.0576,-1.0547,-1.04,-0.9971,-0.9902,-0.9902,0.0,0.0,0.0,0.0,0.0,0.0,0.0,0.0,0.0,0.0,0.0,-0.8518,-0.873,-0.8916,0.0,0.0,0.0,0.0,0.0,0.0,0.0,0.0,0.0,0.0,0.0,0.0,-1.0459,-1.0732,-1.041,0.0,0.0,-1.2139,0.0,0.0,-1.2881,-1.2881,0.0,0.0,0.0,-1.2822,-1.2393,-1.2349,0.0,0.0,-1.164,-1.1397,-1.1379,-1.2099,-1.2559,-1.0968,-1.0515,0.0,-1.0498,0.0,0.0,-1.1126,-1.1027,-1.1253,-1.0079,-1.0235,-1.0629,-1.0598,-1.0568,-1.0979,-1.2114,-1.2303,-1.2324,-1.2285,-1.2278,-1.3114,-1.5355,-1.7021,-1.7975,-1.8027,-1.8008,-1.8008,-1.8008,-1.8008,-1.8008,-1.8008,-1.8008,-1.8008,-1.8008,-1.8008,-1.8008,-1.8008,-1.8008,-1.8008,-1.8008,-1.8008,-1.8008,-1.8008,-1.8008,-1.8008,-1.8008,-1.8008,-1.8008,-1.8008,-1.8008,-1.8008,-1.8008,-1.8008,-1.8008,-1.8008,-1.8008,-1.8008,-1.8008,0.0,-1.1191,-1.14,-1.0918,-1.0918,-1.084,-1.041,-1.0352,-1.041,0.0,0.0,0.0,0.0,0.0,0.0,0.0,0.0,0.0,0.0,0.0,-0.8479,-0.8479,-0.8809,-0.918,0.0,0.0,0.0,0.0,0.0,0.0,0.0,0.0,0.0,0.0,-0.9775,-0.9951,-0.9631,-1.0195,-1.1094,-1.2187,-1.2578,-1.2793,0.0,0.0,-1.2881,-1.2881,-1.2881,-1.2881,-1.2881,-1.2881,-1.2829,0.0,-1.2862,-1.2889,-1.2882,-1.2884,-1.2906,0.0,-1.291,-1.2876,0.0,-1.2894,-1.288,0.0,-1.2878,-1.2651,-1.1784,-0.9485,-0.9836,-1.0601,-1.0593,-1.0631,-1.0923,-1.1981,-1.2249,-1.2278,-1.2265,-1.2301,-1.2444,-1.2913,-1.5957,-1.7998,-1.7969,-1.8027,-1.8008,-1.8008,-1.8008,-1.8008,-1.8008,-1.8008,-1.8008,-1.8008,-1.8008,-1.8008,-1.8008,-1.8008,-1.8008,-1.8008,-1.8008,-1.8008,-1.8008,-1.8008,-1.8008,-1.8008,-1.8008,-1.8008,-1.8008,-1.8008,-1.8008,-1.8008,-1.8008,-1.8008,-1.8008,-1.8008,-1.8008,-1.8008,-1.04,-1.0742,-1.0898,-1.0478,-1.1018,-1.1332,-1.085,-1.0791,-1.0918,0.0,0.0,0.0,0.0,0.0,0.0,0.0,0.0,0.0,0.0,0.0,-0.8887,-0.8887,-0.8955,-0.9043,-0.9121,0.0,0.0,0.0,0.0,0.0,0.0,0.0,0.0,0.0,-0.9033,-0.9395,-0.967,-1.083,-1.1498,-1.1743,-1.1832,0.0,-1.2881,-1.2881,-1.2881,-1.2881,-1.2881,-1.2881,-1.2881,-1.2881,-1.2511,-1.2143,-1.2696,-1.2908,-1.2887,-1.2918,-1.2899,-1.288,-1.29,-1.289,-1.292,-1.2909,-1.2884,0.0,-1.2884,-1.1216,-0.9734,-1.0163,-1.0436,-1.058,-1.063,-1.0573,-1.0649,-1.0928,-1.1682,-1.2338,-1.2325,-1.2325,-1.3426,-1.6506,-1.7518,-1.798,-1.8025,-1.8027,-1.8008,-1.8008,-1.8008,-1.8008,-1.8008,-1.8008,-1.8008,-1.8008,-1.8008,-1.8008,-1.8008,-1.8008,-1.8008,-1.8008,-1.8008,-1.8008,-1.8008,-1.8008,-1.8008,-1.8008,-1.8008,-1.8008,-1.8008,-1.8008,-1.8008,-1.8008,-1.8008,-1.8008,-1.8008,-1.8008,-1.8008,-1.8008,-1.0596,-1.1123,-1.1426,-1.1038,-1.1465,-1.1748,-1.1309,-1.123,0.0,0.0,0.0,0.0,0.0,0.0,0.0,0.0,0.0,0.0,0.0,0.0,-0.9131,-0.8711,-0.8896,-0.9004,-0.9004,-0.9629,0.0,0.0,0.0,0.0,0.0,0.0,0.0,0.0,0.0,-0.9561,-1.0,-1.0685,-1.1214,-1.1645,-1.2086,0.0,-1.2881,-1.2881,-1.2881,-1.2881,-1.2881,-1.2881,-1.2822,-1.2501,-1.2344,0.0,-1.2607,-1.2993,-1.3253,-1.2995,-1.2916,-1.2888,-1.2871,-1.2881,-1.292,-1.2878,-1.2916,0.0,0.0,-1.2447,-1.1044,-1.1622,-1.1739,-1.1757,-1.1763,-1.243,-1.2974,-1.2997,-1.3461,-1.3506,-1.2479,-1.2298,-1.3041,-1.4912,-1.513,-1.5939,-1.7841,-1.7998,-1.8008,-1.8008,-1.8008,-1.8008,-1.8008,-1.8008,-1.8008,-1.8008,-1.8008,-1.8008,-1.8008,-1.8008,-1.8008,-1.8008,-1.8008,-1.8008,-1.8008,-1.8008,-1.8008,-1.8008,-1.8008,-1.8008,-1.8008,-1.8008,-1.8008,-1.8008,-1.8008,-1.8008,-1.8008,-1.8008,-1.8008,-1.8008,-1.0791,-1.1494,-1.1963,-1.1557,-1.1943,-1.2197,-1.1802,-1.1734,0.0,0.0,0.0,0.0,0.0,0.0,0.0,0.0,0.0,0.0,0.0,0.0,-0.9453,-0.8812,-0.8994,-0.9121,-0.9121,-0.9541,-0.9883,0.0,0.0,0.0,0.0,0.0,0.0,0.0,0.0,0.0,0.0,0.0,0.0,-1.1792,0.0,-1.2803,-1.2881,-1.2881,-1.2881,-1.2881,-1.2881,-1.2881,-1.2822,-1.2187,-1.2403,-1.2842,-1.2656,-1.3033,-1.3478,-1.3144,-1.3033,-1.3046,-1.3055,-1.3115,-1.3105,-1.2916,-1.3121,-1.3671,0.0,0.0,0.0,-1.2887,-1.3177,-1.3268,-1.2959,-1.3989,-1.489,-1.493,-1.5205,-1.4586,-1.233,-1.2535,-1.2742,-1.2325,-1.2928,-1.4604,-1.7725,-1.7872,-1.7833,-1.8008,-1.7939,-1.793,-1.8008,-1.8008,-1.8008,-1.8008,-1.8008,-1.8008,-1.8008,-1.8008,-1.8008,-1.8008,-1.8008,-1.8008,-1.8008,-1.8008,-1.8008,-1.8008,-1.8008,-1.8008,-1.8008,-1.8008,-1.8008,-1.8008,-1.8008,-1.8008,-1.8008,-1.8008,-1.8008,-1.8008,-1.0352,-1.1087,-1.1538,-1.1064,-1.1992,-1.2656,-1.2217,-1.2148,0.0,0.0,0.0,0.0,0.0,0.0,0.0,0.0,0.0,0.0,-1.0791,0.0,0.0,-1.0106,-0.9746,-0.9524,-0.9524,-0.999,-1.0049,0.0,0.0,0.0,0.0,0.0,-0.9228,-0.8574,-0.9707,0.0,0.0,0.0,-1.1699,0.0,-1.2266,-1.2539,0.0,-1.2881,-1.2881,-1.2881,-1.2881,-1.2881,-1.2881,0.0,-1.2832,-1.2891,0.0,-1.291,-1.3027,-1.3338,-1.3516,-1.3584,-1.3628,-1.3787,-1.3782,-1.3058,-1.4037,-1.481,-1.3472,0.0,-1.2916,-1.2888,0.0,-1.4658,-1.3176,0.0,0.0,-1.3167,-1.441,-1.4348,-1.1202,-1.3244,-1.4379,-1.2542,-1.529,-1.7524,-1.7956,-1.7273,-1.7168,-1.7969,-1.7666,-1.7617,-1.7988,-1.8008,-1.8008,-1.8008,-1.8008,-1.8008,-1.8008,-1.8008,-1.8008,-1.8008,-1.8008,-1.8008,-1.8008,-1.8008,-1.8008,-1.8008,-1.8008,-1.8008,-1.8008,-1.8008,-1.8008,-1.8008,-1.8008,-1.8008,-1.8008,-1.8008,-1.8008,-1.8008,-1.0283,-1.1018,-1.1469,-1.0986,-1.2002,-1.2734,-1.2248,-1.2441,0.0,0.0,0.0,0.0,0.0,0.0,0.0,0.0,0.0,-1.1528,0.0,0.0,0.0,-1.0654,-1.0234,-1.001,-1.001,-0.9941,-0.9941,-1.001,-1.0195,0.0,0.0,0.0,-0.967,-0.9853,-1.0156,0.0,-1.1416,0.0,-1.1714,0.0,0.0,-1.2344,0.0,-1.2783,-1.2881,-1.2881,-1.2881,-1.3037,-1.3242,0.0,-1.3242,0.0,0.0,-1.3643,-1.333,-1.375,-1.3887,-1.3867,-1.3656,-1.3503,-1.3429,-1.3389,-1.3647,-1.3776,-1.308,-1.2916,-1.2897,-1.2895,0.0,0.0,0.0,0.0,0.0,0.0,-1.3502,-1.3839,-1.344,-1.4573,-1.5417,-1.5608,-1.7044,-1.8022,-1.7967,-1.7635,-1.7206,-1.6551,-1.7264,-1.7826,-1.7988,-1.8008,-1.8008,-1.8008,-1.8008,-1.8008,-1.8008,-1.8008,-1.8008,-1.8008,-1.8008,-1.8008,-1.8008,-1.8008,-1.8008,-1.8008,-1.8008,-1.8008,-1.8008,-1.8008,-1.8008,-1.8008,-1.8008,-1.8008,-1.8008,-1.8008,-1.8008,-1.8008,-1.0449,-1.0957,-1.1361,-1.1123,-1.1982,-1.2637,-1.2432,-1.2676,-1.2881,0.0,0.0,0.0,-1.2881,-1.2598,0.0,0.0,-1.2109,-1.191,0.0,0.0,-1.1602,-1.1279,-1.0859,-1.0675,-1.0675,-1.0205,-1.0078,-1.0283,-1.0283,0.0,0.0,0.0,0.0,-1.0566,0.0,-1.1162,-1.2031,0.0,-1.1861,-1.1988,-1.2148,-1.2305,-1.2441,-1.2764,-1.2881,-1.2881,-1.2881,-1.3154,-1.3506,-1.3506,-1.3584,0.0,-1.4414,-1.418,-1.3769,-1.4189,-1.4307,-1.4268,-1.4082,-1.3815,-1.3636,-1.3537,-1.333,-1.3072,-1.2957,-1.2916,-1.2878,-1.2906,-1.289,0.0,0.0,0.0,-1.2893,0.0,0.0,-1.3317,-1.4536,-1.4706,-1.537,-1.7079,-1.7282,-1.7481,-1.7971,-1.7975,-1.7256,-1.5534,-1.676,-1.7718,-1.7988,-1.8008,-1.8008,-1.8008,-1.8008,-1.8008,-1.8008,-1.8008,-1.8008,-1.8008,-1.8008,-1.8008,-1.8008,-1.8008,-1.8008,-1.8008,-1.8008,-1.8008,-1.8008,-1.8008,-1.8008,-1.8008,-1.8008,-1.8008,-1.8008,-1.8008,-1.8008,-1.8008,-1.0889,-1.0908,0.0,0.0,-1.1934,-1.2393,-1.2803,-1.2871,-1.2881,-1.2881,0.0,0.0,0.0,0.0,0.0,0.0,0.0,-1.2656,-1.219,0.0,-1.2151,-1.2141,-1.1758,-1.1567,-1.1567,-1.1094,-1.0674,-1.0283,-1.0283,0.0,0.0,0.0,0.0,0.0,0.0,-1.1587,-1.1655,-1.2031,-1.2451,-1.2803,-1.2393,-1.248,-1.2861,0.0,-1.2881,-1.2881,-1.2881,0.0,0.0,-1.3506,-1.3779,0.0,0.0,0.0,0.0,-1.4639,-1.4766,-1.4853,0.0,0.0,0.0,-1.3422,0.0,0.0,-1.3017,-1.2876,-1.2893,-1.2902,-1.2878,-1.2921,-1.2877,0.0,0.0,0.0,0.0,0.0,0.0,-1.3004,-1.3625,-1.5284,-1.5496,-1.616,-1.7871,-1.7978,-1.7286,-1.5546,-1.6241,-1.7129,-1.7959,-1.8008,-1.8008,-1.8008,-1.8008,-1.8008,-1.8008,-1.8008,-1.8008,-1.8008,-1.8008,-1.8008,-1.8008,-1.8008,-1.8008,-1.8008,-1.8008,-1.8008,-1.8008,-1.8008,-1.8008,-1.8008,-1.8008,-1.8008,-1.8008,-1.8008,-1.8008,-1.8008,0.0,0.0,0.0,0.0,0.0,-1.2715,-1.2861,-1.2881,-1.2988,0.0,-1.3057,0.0,0.0,-1.3047,-1.2881,0.0,0.0,-1.2812,-1.2666,-1.2656,0.0,-1.2656,-1.2236,-1.2002,0.0,-1.1572,-1.1133,-1.0703,-1.0703,-1.0625,0.0,0.0,0.0,0.0,0.0,-1.1773,0.0,0.0,0.0,0.0,0.0,-1.292,-1.3262,0.0,-1.3057,-1.3301,-1.3301,-1.375,0.0,-1.4355,-1.4443,-1.4609,-1.4893,-1.4535,-1.4165,-1.4658,-1.4785,-1.4814,0.0,0.0,-1.4548,-1.424,0.0,0.0,0.0,0.0,-1.3506,-1.3647,-1.4136,-1.457,-1.457,0.0,0.0,0.0,0.0,-1.2922,0.0,-1.2894,-1.3081,-1.3695,-1.4716,-1.5631,-1.6198,-1.6297,-1.6019,-1.5444,-1.6732,-1.771,-1.7969,-1.8008,-1.8008,-1.8008,-1.8008,-1.8008,-1.8008,-1.8008,-1.8008,-1.8008,-1.8008,-1.8008,-1.8008,-1.8008,-1.8008,-1.8008,-1.8008,-1.8008,-1.8008,-1.8008,-1.8008,-1.8008,-1.8008,-1.8008,-1.8008,-1.8008,-1.8008,-1.8008,-1.1797,0.0,0.0,0.0,0.0,-1.2881,-1.2881,-1.3008,0.0,0.0,-1.3398,0.0,-1.3701,0.0,-1.333,0.0,-1.3193,-1.3105,-1.3105,-1.2969,0.0,-1.2881,-1.2607,-1.2393,0.0,-1.1943,-1.1582,-1.1143,-1.1143,-1.1143,0.0,0.0,0.0,0.0,0.0,-1.1719,-1.2031,-1.2627,-1.2803,0.0,0.0,-1.3486,0.0,0.0,-1.3496,-1.373,0.0,-1.418,-1.4785,-1.4785,-1.4883,-1.5049,-1.5322,-1.5029,-1.4648,-1.4922,-1.501,-1.501,-1.501,-1.4849,0.0,-1.477,-1.4174,0.0,-1.3671,0.0,-1.3758,-1.4037,-1.4804,-1.5416,-1.5416,0.0,0.0,0.0,0.0,0.0,0.0,-1.2893,-1.2893,-1.2893,-1.3847,-1.4725,-1.533,-1.538,-1.5396,-1.5414,-1.6991,-1.8004,-1.8004,-1.8017,-1.8008,-1.8008,-1.8008,-1.8008,-1.8008,-1.8008,-1.8008,-1.8008,-1.8008,-1.8008,-1.8008,-1.8008,-1.8008,-1.8008,-1.8008,-1.8008,-1.8008,-1.8008,-1.8008,-1.8008,-1.8008,-1.8008,-1.8008,-1.8008,-1.8008,-1.8008,-1.2209,-1.2617,0.0,0.0,-1.2607,0.0,0.0,0.0,-1.3516,0.0,-1.3887,-1.4087,-1.4107,-1.4087,-1.4077,-1.4077,-1.3769,-1.3535,-1.3535,-1.3164,0.0,0.0,-1.291,-1.2705,-1.2219,-1.2209,-1.2041,-1.1636,-1.1636,-1.1636,0.0,0.0,0.0,0.0,-1.1406,0.0,-1.1694,-1.2557,-1.3125,-1.3545,-1.3984,-1.4107,-1.4116,-1.4136,-1.4145,-1.4136,-1.4116,-1.4443,-1.4814,-1.4814,-1.5078,-1.541,-1.541,-1.541,-1.541,-1.541,-1.541,-1.541,-1.541,-1.541,-1.5312,-1.4922,-1.4805,0.0,0.0,0.0,-1.383,0.0,-1.4811,-1.541,-1.541,0.0,0.0,0.0,0.0,0.0,-1.3106,-1.29,-1.29,-1.29,-1.2917,-1.3537,-1.5119,-1.5352,-1.5366,-1.5283,-1.687,-1.7885,-1.8026,-1.8024,-1.7988,-1.8008,-1.7988,-1.7988,-1.8008,-1.7988,-1.7988,-1.8008,-1.8008,-1.8008,-1.8008,-1.8008,-1.8008,-1.8008,-1.8008,-1.8008,-1.8008,-1.8008,-1.8008,-1.8008,-1.8008,-1.8008,-1.8008,-1.8008,-1.8008,-1.8134,-1.2715,-1.3057,-1.3213,0.0,-1.2803,-1.2881,0.0,0.0,0.0,0.0,-1.4009,-1.4204,-1.458,-1.4326,-1.4077,-1.4077,-1.398,0.0,0.0,0.0,0.0,-1.3359,-1.335,-1.3145,-1.2725,-1.2715,-1.25,-1.2061,-1.2061,0.0,-1.2051,0.0,0.0,0.0,0.0,0.0,-1.209,-1.2646,-1.3125,-1.3574,-1.4316,-1.4619,-1.4648,0.0,-1.5088,-1.5039,-1.4727,-1.4893,-1.5254,-1.5254,-1.5322,-1.541,-1.541,-1.541,-1.541,-1.541,-1.541,-1.541,-1.541,-1.541,-1.5381,-1.5273,-1.5019,-1.4756,0.0,0.0,0.0,0.0,0.0,0.0,0.0,0.0,0.0,-1.3759,-1.3561,-1.3418,-1.2976,-1.289,-1.289,-1.289,-1.2924,-1.309,-1.3513,-1.4676,-1.4883,-1.3632,-1.5087,-1.6609,-1.7941,-1.8015,-1.8031,-1.7998,-1.7705,-1.7695,-1.8008,-1.7705,-1.7705,-1.8008,-1.8008,-1.8008,-1.8008,-1.8008,-1.8008,-1.8008,-1.8008,-1.8008,-1.8008,-1.8008,-1.8008,-1.8008,-1.8008,-1.8008,-1.8008,-1.8008,-1.8008,-1.8134,-1.3125,-1.3496,0.0,-1.3467,0.0,0.0,-1.3184,-1.335,0.0,-1.4029,-1.4297,0.0,-1.4756,-1.4727,-1.4687,-1.4687,-1.4531,0.0,-1.4424,0.0,0.0,-1.3789,-1.3779,-1.3584,-1.3164,-1.3154,0.0,-1.252,0.0,0.0,-1.25,0.0,0.0,0.0,0.0,-1.218,-1.2239,-1.3086,-1.3564,-1.3857,-1.4717,-1.5059,0.0,-1.5322,-1.541,-1.5381,-1.5146,-1.5215,-1.541,-1.541,-1.541,-1.541,-1.541,-1.541,-1.541,-1.541,-1.541,-1.541,-1.541,-1.541,-1.541,-1.541,-1.5234,-1.5059,-1.5059,-1.5059,-1.5049,0.0,-1.5177,-1.541,0.0,0.0,-1.5078,-1.4148,-1.3997,-1.3984,-1.4011,-1.3375,-1.2906,-1.2915,-1.3531,-1.3711,-1.2965,-1.3743,-1.4209,-1.4007,-1.4869,-1.5801,-1.6812,-1.7586,-1.8015,-1.8004,-1.751,-1.7492,-1.8008,-1.7598,-1.7598,-1.8008,-1.8008,-1.8008,-1.8008,-1.8008,-1.8008,-1.8008,-1.8008,-1.8008,-1.8008,-1.8008,-1.8008,-1.8008,-1.8008,-1.8008,-1.8008,-1.8008,-1.8008,-1.8134,-1.3516,0.0,0.0,0.0,0.0,0.0,0.0,-1.3672,0.0,-1.417,0.0,-1.4863,-1.4863,-1.5195,-1.541,-1.541,-1.5078,-1.4863,-1.4863,-1.4512,-1.4223,-1.4165,-1.4165,-1.4023,-1.3603,-1.3535,-1.333,-1.2959,-1.291,0.0,0.0,0.0,0.0,0.0,0.0,0.0,0.0,-1.3591,-1.4116,-1.4287,-1.5088,-1.541,-1.541,-1.541,-1.541,-1.541,-1.541,-1.541,-1.541,-1.541,-1.541,-1.541,-1.541,-1.541,-1.541,-1.541,-1.541,-1.541,-1.541,-1.541,-1.541,-1.541,-1.541,-1.541,-1.541,-1.541,-1.541,-1.541,-1.541,-1.541,-1.541,0.0,-1.5416,-1.5406,-1.5409,-1.5403,-1.5383,-1.3957,-1.2912,-1.2899,-1.4205,0.0,-1.3332,-1.3018,-1.352,-1.4952,-1.5089,-1.5189,-1.5391,-1.6858,-1.776,-1.7991,-1.7468,-1.7406,-1.791,-1.7512,-1.7588,-1.8008,-1.8008,-1.8008,-1.8008,-1.8008,-1.8008,-1.8008,-1.8008,-1.8008,-1.8008,-1.8008,-1.8008,-1.8008,-1.8008,-1.8008,-1.8008,-1.8008,-1.8008,-1.8134,-1.3951,0.0,0.0,0.0,0.0,-1.4648,-1.457,-1.4561,-1.459,-1.4658,-1.5039,-1.5303,-1.5303,-1.5371,-1.541,-1.541,-1.5342,0.0,0.0,0.0,0.0,-1.4687,-1.4678,-1.4463,-1.398,-1.3682,-1.3477,-1.3398,-1.3047,-1.2881,0.0,0.0,0.0,0.0,0.0,0.0,-1.332,-1.3844,0.0,-1.4717,-1.5205,-1.541,-1.541,-1.541,-1.541,-1.541,-1.541,-1.541,-1.541,-1.541,-1.541,-1.541,-1.541,-1.541,-1.541,-1.541,-1.541,-1.541,-1.541,-1.541,-1.541,-1.541,-1.541,-1.541,-1.541,-1.541,-1.541,-1.541,-1.541,-1.541,-1.541,0.0,0.0,-1.5426,-1.5417,-1.5422,-1.5371,-1.3967,-1.2914,-1.2874,-1.3143,-1.3759,-1.4858,-1.3721,-1.3019,-1.3298,-1.3349,-1.3931,-1.5323,-1.5681,-1.651,0.0,-1.7905,-1.7664,0.0,0.0,-1.7426,-1.8008,-1.8008,-1.8008,-1.8008,-1.8008,-1.8008,-1.8008,-1.8008,-1.8008,-1.8008,-1.8008,-1.8008,-1.8008,-1.8008,-1.8008,-1.8008,-1.8008,-1.8008,-1.8134,-1.5137,0.0,0.0,0.0,0.0,0.0,0.0,-1.5791,-1.5557,-1.4873,-1.4961,-1.5088,-1.5088,-1.5283,-1.541,-1.541,-1.541,-1.541,-1.541,-1.541,-1.5322,-1.5117,-1.5107,-1.4912,-1.4482,-1.4268,-1.3955,-1.3506,-1.3301,-1.3096,0.0,0.0,0.0,-1.2891,0.0,-1.332,0.0,0.0,0.0,-1.4824,-1.5244,-1.541,-1.541,-1.541,-1.541,-1.541,-1.541,-1.541,-1.541,-1.541,-1.541,-1.541,-1.541,-1.541,-1.541,-1.541,-1.541,-1.541,-1.541,-1.541,-1.541,-1.541,-1.541,-1.541,-1.541,-1.541,-1.541,-1.541,-1.541,-1.541,-1.541,-1.541,0.0,0.0,-1.541,-1.5417,-1.543,-1.473,-1.4209,-1.4185,-1.3426,-1.3217,-1.4012,-1.3362,-1.2894,-1.2886,-1.2883,-1.3657,-1.533,-1.542,-1.6195,0.0,0.0,0.0,-1.714,0.0,-1.7275,-1.7686,-1.791,-1.8008,-1.8008,-1.8008,-1.8008,-1.8008,-1.8008,-1.8008,-1.8008,-1.8008,-1.8008,-1.8008,-1.8008,-1.8008,-1.8008,-1.8008,-1.8008,-1.8076,0.0,-1.6279,0.0,0.0,-1.6445,-1.6328,-1.668,-1.6665,-1.6367,-1.5332,-1.5117,-1.5059,-1.5059,-1.5273,-1.541,-1.541,-1.541,-1.541,-1.541,-1.541,-1.541,-1.541,-1.541,-1.5254,-1.4922,-1.4834,-1.4453,-1.3779,-1.3594,-1.334,0.0,0.0,-1.293,-1.3027,0.0,0.0,0.0,0.0,-1.4834,-1.4951,-1.5283,-1.541,-1.541,-1.541,-1.541,-1.541,-1.541,-1.541,-1.541,-1.541,-1.541,-1.541,-1.541,-1.541,-1.541,-1.541,-1.541,-1.541,-1.541,-1.541,-1.541,-1.541,-1.541,-1.541,-1.541,-1.541,-1.541,-1.541,-1.541,-1.541,-1.541,-1.541,0.0,0.0,0.0,-1.5414,-1.5378,-1.5093,-1.4891,-1.4885,-1.3711,-1.2881,-1.291,-1.2916,-1.2905,-1.29,-1.2874,-1.3488,-1.478,-1.5189,0.0,0.0,0.0,-1.7563,-1.672,0.0,-1.7209,-1.7553,-1.7822,-1.8008,-1.8008,-1.8008,-1.8008,-1.8008,-1.8008,-1.8008,-1.8008,-1.8008,-1.8008,-1.8008,-1.8008,-1.8008,-1.8008,-1.8008,-1.8008,-1.8008,0.0,0.0,0.0,0.0,0.0,-1.668,-1.6665,-1.6665,-1.6689,-1.6562,-1.6191,-1.5998,-1.5998,-1.5625,-1.541,-1.541,-1.541,-1.541,-1.541,-1.541,-1.541,-1.541,-1.541,-1.5391,-1.5352,-1.498,-1.4746,0.0,0.0,-1.3486,0.0,-1.3057,-1.3086,-1.3447,-1.3486,0.0,0.0,-1.4756,-1.501,-1.5352,-1.5391,-1.541,-1.541,-1.541,-1.541,-1.541,-1.541,-1.541,-1.541,-1.541,-1.541,-1.541,-1.541,-1.541,-1.541,-1.541,-1.541,-1.541,-1.541,-1.541,-1.541,-1.541,-1.541,-1.541,-1.541,-1.541,-1.541,-1.541,-1.541,-1.541,-1.541,-1.541,-1.537,0.0,0.0,-1.5414,-1.5378,-1.4112,-1.3132,-1.3141,-1.3014,-1.2881,-1.291,-1.291,-1.291,-1.2881,-1.2874,-1.295,-1.3136,-1.4582,-1.5468,-1.5622,-1.7161,-1.7226,-1.556,-1.6373,-1.7154,-1.7925,-1.7986,-1.8008,-1.8008,-1.8008,-1.8008,-1.8008,-1.8008,-1.8008,-1.8008,-1.8008,-1.8008,-1.8008,-1.8008,-1.8008,-1.8008,-1.8008,-1.8008,-1.8008,0.0,0.0,0.0,0.0,0.0,0.0,0.0,-1.75,-1.75,-1.75,-1.6894,-1.6465,-1.6465,-1.6074,-1.5908,-1.6182,-1.5957,-1.5801,-1.5801,-1.5801,-1.5684,-1.542,-1.541,-1.541,-1.541,-1.5244,-1.5039,0.0,0.0,-1.4141,-1.3877,-1.3711,-1.3721,-1.3896,0.0,-1.4463,-1.4805,-1.5049,-1.5254,-1.541,-1.541,-1.541,-1.541,-1.541,-1.541,-1.5449,-1.5703,-1.5801,-1.584,-1.6113,-1.585,-1.541,-1.541,-1.541,-1.541,-1.541,-1.541,-1.541,-1.541,-1.541,-1.541,-1.541,-1.541,-1.541,-1.541,-1.541,-1.541,-1.541,-1.541,-1.541,-1.541,-1.541,-1.5429,-1.5417,0.0,-1.4229,-1.5275,-1.3946,-1.2913,-1.2898,-1.2893,-1.2919,-1.2891,-1.2881,-1.291,-1.2905,-1.2878,-1.288,-1.2877,-1.4492,-1.5419,-1.5387,0.0,-1.6074,-1.543,-1.5751,-1.6461,-1.7442,-1.7603,-1.7764,-1.8008,-1.8008,-1.8008,-1.8008,-1.8008,-1.8008,-1.8008,-1.8008,-1.8008,-1.8008,-1.8008,-1.8008,-1.8008,-1.8008,-1.8008,-1.8008,-1.8008,0.0,-1.7666,0.0,-1.7764,-1.7666,-1.7969,-1.8008,-1.8008,-1.8008,-1.748,-1.7061,-1.6943,-1.6523,-1.6387,-1.6709,-1.6445,-1.626,-1.626,-1.626,-1.6123,-1.5811,-1.5674,0.0,-1.5801,-1.5674,-1.5518,-1.5361,-1.5098,-1.4814,-1.4502,-1.4194,-1.4145,0.0,-1.4648,-1.4853,-1.5,-1.542,-1.5605,-1.5615,-1.5742,-1.5801,-1.5801,-1.5801,-1.5801,-1.584,-1.6152,-1.626,-1.6309,-1.6621,-1.6318,-1.5801,-1.5801,-1.5801,-1.5801,-1.5801,-1.5801,-1.5771,-1.5644,-1.5605,-1.5566,-1.5439,-1.541,-1.541,-1.541,-1.541,-1.541,-1.541,-1.541,-1.541,-1.541,-1.541,-1.5381,-1.5399,0.0,-1.4029,-1.5205,-1.44,-1.3436,-1.2959,-1.2878,-1.2881,-1.2881,-1.292,-1.2916,-1.2884,-1.3332,-1.3652,-1.3612,-1.4769,0.0,0.0,0.0,0.0,-1.5384,-1.5419,-1.5946,-1.6997,-1.7262,-1.7607,-1.8008,-1.8008,-1.8008,-1.8008,-1.8008,-1.8008,-1.8008,-1.8008,-1.8008,-1.8008,-1.8008,-1.8008,-1.8008,-1.8008,-1.8008,-1.8008,-1.8008,-1.8008,-1.8008,-1.8008,-1.8008,-1.8008,-1.8008,-1.8008,-1.8008,-1.8008,-1.7998,-1.7842,-1.7422,-1.6982,-1.6665,-1.6665,-1.6728,-1.6665,-1.6665,-1.6665,-1.6719,0.0,0.0,-1.626,-1.6709,-1.6279,-1.6269,-1.6709,0.0,0.0,-1.5381,-1.4476,-1.4365,-1.4775,-1.4785,-1.501,-1.543,-1.5869,-1.6115,-1.6154,-1.6533,-1.6655,-1.6655,-1.6655,-1.6655,-1.6719,-1.6719,-1.6665,-1.6665,-1.6665,-1.6665,-1.6655,-1.6655,-1.6655,-1.6655,-1.6655,-1.6655,-1.6621,-1.6172,-1.6115,-1.5947,-1.5518,-1.541,-1.541,-1.541,-1.541,-1.541,-1.541,-1.541,-1.541,-1.541,-1.541,-1.5418,-1.5385,0.0,0.0,-1.5378,-1.5392,-1.4775,-1.309,-1.2878,-1.2881,-1.2881,-1.2915,-1.2902,-1.2902,-1.4434,-1.5371,-1.5371,-1.5381,0.0,-1.541,-1.541,0.0,-1.542,-1.5374,-1.5865,-1.6738,-1.7178,-1.7607,-1.8008,-1.8008,-1.8008,-1.8008,-1.8008,-1.8008,-1.8008,-1.8008,-1.8008,-1.8008,-1.8008,-1.8008,-1.8008,-1.8008,-1.8008,-1.8008,-1.8008,-1.8008,-1.8008,-1.8008,-1.8008,-1.8008,-1.8008,-1.8008,-1.8008,-1.8008,-1.8008,-1.7959,-1.7822,-1.7432,-1.7295,0.0,-1.7344,-1.7178,0.0,-1.7178,-1.7041,-1.6685,-1.6592,-1.6592,-1.6728,-1.6592,-1.6592,-1.6665,0.0,0.0,0.0,-1.5889,-1.582,-1.5723,-1.5977,-1.6191,-1.6318,-1.6465,-1.6523,-1.6533,-1.668,-1.6665,-1.6665,-1.6665,-1.6665,-1.6714,-1.707,-1.7178,-1.7227,-1.751,-1.7607,-1.7607,-1.7607,-1.7207,-1.6665,-1.6665,-1.6665,-1.6699,-1.6562,-1.6299,-1.6086,-1.5889,-1.5635,-1.541,-1.541,-1.541,-1.541,-1.541,-1.541,-1.541,-1.541,-1.541,-1.5381,-1.5389,-1.54,0.0,-1.5422,-1.5371,-1.4785,-1.3097,-1.2921,-1.2884,-1.2881,-1.288,-1.3368,-1.4503,-1.5079,-1.5391,-1.5391,0.0,0.0,0.0,-1.541,0.0,-1.541,-1.539,-1.5836,-1.6665,-1.7052,-1.7494,-1.8008,-1.8008,-1.8008,-1.8008,-1.8008,-1.8008,-1.8008,-1.8008,-1.8008,-1.8008,-1.8008,-1.8008,-1.8008,-1.8008,-1.8008,-1.8008,-1.8008,-1.8008,-1.8008,-1.8008,-1.8008,-1.8008,-1.8008,-1.8008,-1.8008,-1.8008,-1.8008,-1.8008,-1.8008,-1.7773,0.0,-1.7988,-1.7773,-1.7617,-1.7617,-1.7617,-1.75,-1.7227,-1.7061,-1.7051,-1.7207,-1.7051,0.0,-1.7217,-1.7051,-1.6748,-1.6318,-1.6602,-1.6582,-1.6328,-1.6611,-1.6665,-1.6685,-1.6914,-1.6973,-1.6992,-1.7148,-1.7217,-1.7217,-1.7217,-1.7217,-1.7246,-1.7519,-1.7617,-1.7656,-1.792,-1.8008,-1.8008,-1.8008,-1.7646,-1.7217,-1.7217,-1.7217,-1.7178,-1.7021,-1.6777,-1.6537,-1.6204,-1.5859,-1.5615,-1.5449,-1.541,-1.541,-1.541,-1.541,-1.541,-1.541,-1.541,-1.541,-1.541,-1.541,-1.541,-1.541,-1.5422,-1.4988,-1.3981,-1.3257,-1.3143,-1.3779,-1.3849,-1.427,-1.5295,-1.5389,0.0,0.0,0.0,-1.541,-1.541,-1.541,-1.541,-1.541,-1.541,-1.5691,-1.6243,-1.7061,-1.7671,-1.8008,-1.8008,-1.8008,-1.8008,-1.8008,-1.8008,-1.8008,-1.8008,-1.8008,-1.8008,-1.8008,-1.8008,-1.8008,-1.8008,-1.8008,-1.8008,-1.8008,-1.8008,-1.8008,0.0,-1.8008,0.0,-1.8008,-1.8008,-1.8008,-1.8008,-1.8008,-1.8008,-1.8008,-1.8008,-1.8008,-1.8008,0.0,0.0,-1.8008,-1.8008,-1.8008,-1.8008,-1.7637,-1.7607,-1.8008,-1.7627,-1.7617,-1.8008,-1.7617,-1.7207,-1.6777,-1.6807,-1.6807,-1.6777,-1.6807,-1.6816,-1.6846,-1.7256,-1.7432,-1.7461,-1.7852,-1.8008,-1.8008,-1.8008,-1.8008,-1.8008,-1.8008,-1.8008,-1.8008,-1.8008,-1.8008,-1.8008,-1.8008,-1.8008,-1.8008,-1.8008,-1.8008,-1.793,-1.7529,-1.7402,-1.7187,-1.6357,-1.6164,-1.6017,-1.5547,-1.543,-1.541,-1.541,-1.541,-1.541,-1.541,-1.541,-1.541,-1.541,-1.541,-1.541,-1.541,-1.5385,-1.5411,-1.5391,0.0,0.0,-1.5275,-1.5395,-1.5421,0.0,-1.5417,0.0,0.0,0.0,-1.541,-1.541,-1.541,-1.541,-1.541,-1.5371,-1.5432,-1.5623,-1.7187,-1.8008,-1.8008,-1.8008,-1.8008,-1.8008,-1.8008,-1.8008,-1.8008,-1.8008,-1.8008,-1.8008,-1.8008,-1.8008,-1.8008,-1.8008,-1.8008,-1.8008,0.0,0.0,-1.8008,-1.8008,-1.8008,-1.8008,-1.8008,-1.8008,-1.8008,-1.8008,-1.8008,-1.8008,-1.8008,-1.8008,-1.8008,-1.8008,-1.8008,-1.8008,-1.8008,-1.8008,-1.8008,-1.8008,-1.791,-1.791,-1.8008,-1.791,-1.791,-1.8008,-1.791,-1.7646,-1.7236,-1.7559,-1.7539,-1.7246,-1.7568,-1.7705,-1.7715,-1.7822,-1.7861,-1.7871,-1.7969,-1.8008,-1.8008,-1.8008,-1.8008,-1.8008,-1.8008,-1.8008,-1.8008,-1.8008,-1.8008,-1.8008,-1.8008,-1.8008,-1.8008,-1.8008,-1.8008,-1.7988,-1.7891,-1.7627,-1.7334,-1.7119,-1.6562,-1.6096,-1.5928,-1.5654,-1.541,-1.541,-1.541,-1.541,-1.541,-1.541,-1.541,-1.541,-1.541,-1.541,-1.541,-1.54,-1.5377,0.0,-1.5047,-1.498,-1.5336,-1.5402,-1.5418,0.0,0.0,-1.541,-1.541,-1.541,-1.541,-1.541,-1.541,-1.541,-1.541,-1.5417,-1.6094,-1.7406,-1.7773,-1.8008,-1.8008,-1.8008,-1.8008,-1.8008,-1.8008,-1.8008,-1.8008,-1.8008,-1.8008,-1.8008,-1.8008,-1.8008,-1.8008,-1.8008,-1.8008,-1.8008,-1.8008,-1.8008,-1.8008,-1.8008,-1.8008,-1.8008,-1.8008,-1.8008,-1.8008,-1.8008,-1.8008,-1.8008,-1.8008,-1.8008,-1.8008,-1.8008,-1.8008,-1.8008,-1.8008,-1.8008,-1.8008,-1.8008,-1.8008,-1.8008,-1.8008,-1.8008,-1.8008,-1.8008,-1.8008,-1.79,-1.7676,-1.79,-1.7891,-1.7676,-1.791,-1.8008,-1.8008,-1.8008,-1.8008,-1.8008,-1.8008,-1.8008,-1.8008,-1.8008,-1.8008,-1.8008,-1.8008,-1.8008,-1.8008,-1.8008,-1.8008,-1.8008,-1.8008,-1.8008,-1.8008,-1.8008,-1.8008,-1.8008,-1.8008,-1.7842,-1.7627,-1.7432,-1.6875,-1.6318,-1.6164,-1.5879,-1.5654,-1.5449,-1.541,-1.541,-1.541,-1.541,-1.541,-1.541,-1.541,-1.541,-1.541,-1.541,-1.54,-1.5405,-1.5418,-1.54,-1.5395,-1.5418,-1.541,-1.541,-1.541,0.0,-1.541,-1.541,-1.541,-1.541,-1.538,-1.5388,-1.5388,-1.6175,-1.7071,-1.8001,-1.7996,-1.8008,-1.8008,-1.8008,-1.8008,-1.8008,-1.8008,-1.8008,-1.8008,-1.8008,-1.8008,-1.8008,-1.8008,-1.8008,-1.8008,-1.8008,-1.8008,-1.8008,-1.8115,-1.8105,-1.8086,-1.8018,-1.8057,-1.8105,-1.8105,-1.8164,-1.8174,-1.8115,-1.8105,-1.8105,-1.8105,-1.8047,-1.8037,-1.8105,-1.8047,-1.8008,-1.8008,-1.8008,-1.8008,-1.8008,-1.8008,-1.8008,-1.8008,-1.8008,-1.8008,-1.8008,-1.8008,-1.8008,-1.8008,-1.8008,-1.8008,-1.8008,-1.8008,-1.8008,-1.8008,-1.8008,-1.8008,-1.8008,-1.8008,-1.8008,-1.8008,-1.8008,-1.8008,-1.8008,-1.8008,-1.8008,-1.8008,-1.8008,-1.8008,-1.8008,-1.8008,-1.8008,-1.8008,-1.8008,-1.8008,-1.8008,-1.8008,-1.8008,-1.793,-1.7568,-1.7148,-1.6728,-1.6348,-1.6223,-1.6017,-1.5586,-1.5459,-1.541,-1.541,-1.541,-1.541,-1.541,-1.541,-1.541,-1.541,0.0,-1.541,-1.541,-1.541,-1.541,-1.541,-1.541,-1.541,-1.541,-1.541,-1.541,-1.541,-1.541,-1.541,-1.541,-1.5377,-1.5537,-1.576,-1.7234,-1.8021,-1.8005,-1.8016,-1.8008,-1.8008,-1.8008,-1.8008,-1.8008,-1.8008,-1.8008,-1.8008,-1.8008,-1.8008,-1.8008,-1.8008,-1.8008,-1.8008,-1.8008,-1.8008,-1.8008,-1.8613,-1.8545,-1.8428,-1.8076,-1.8301,-1.8545,-1.8545,-1.8848,-1.8955,-1.8584,-1.8545,-1.8545,-1.8545,-1.8223,-1.8154,-1.8506,-1.8213,-1.8008,-1.8008,-1.8008,-1.8008,-1.8008,-1.8008,-1.8008,-1.8008,-1.8008,-1.8008,-1.8008,-1.8008,-1.8008,-1.8008,-1.8008,-1.8008,-1.8008,-1.8008,-1.8008,-1.8008,-1.8008,-1.8008,-1.8008,-1.8008,-1.8008,-1.8008,-1.8008,-1.8008,-1.8008,-1.8008,-1.8008,-1.8008,-1.8008,-1.8008,-1.8008,-1.8008,-1.8008,-1.8008,-1.8008,-1.8008,-1.8008,-1.8008,-1.8008,-1.7998,-1.793,-1.7598,-1.7266,-1.7197,-1.6602,-1.6105,-1.6037,-1.5664,-1.541,-1.541,-1.541,-1.541,-1.541,-1.541,-1.541,-1.541,0.0,-1.541,-1.541,-1.541,-1.541,-1.541,-1.541,-1.541,-1.541,-1.541,-1.541,-1.541,-1.541,-1.541,-1.541,-1.54,-1.6118,-1.7571,-1.7835,-1.7999,-1.8007,-1.7988,-1.8008,-1.8008,-1.8008,-1.8008,-1.8008,-1.8008,-1.8008,-1.8008,-1.8008,-1.8008,-1.8008,-1.8008,-1.8008,-1.8008,-1.8008,-1.8008,-1.8008,-1.9023,-1.8867,-1.876,-1.8711,-1.874,-1.8818,-1.8965,-1.916,-1.9219,-1.9014,-1.8984,-1.8984,-1.8984,-1.8818,-1.8769,-1.8965,-1.8809,-1.8691,-1.8691,-1.8262,-1.8115,-1.834,-1.835,-1.8457,-1.8691,-1.8691,-1.8584,-1.835,-1.8584,-1.8467,-1.8018,-1.8242,-1.8223,-1.8008,-1.8008,-1.8135,-1.835,-1.835,-1.8486,-1.8691,-1.8691,-1.8691,-1.8672,-1.8437,-1.835,-1.832,-1.8086,-1.8008,-1.8008,-1.8008,-1.8008,-1.8008,-1.8008,-1.8008,-1.8008,-1.8008,-1.8008,-1.8008,-1.8008,-1.8008,-1.8008,-1.8008,-1.7861,-1.7598,-1.7139,-1.6719,-1.6289,-1.5811,-1.5557,-1.541,-1.541,-1.5674,-1.5762,-1.5446,-1.5367,-1.5367,-1.5367,-1.54,-1.541,-1.541,-1.541,-1.541,-1.541,-1.541,-1.541,-1.541,-1.541,-1.541,-1.541,-1.541,-1.541,-1.541,-1.5399,-1.6235,-1.7955,-1.8025,-1.8005,-1.8022,-1.7997,-1.8008,-1.8008,-1.8008,-1.8008,-1.8008,-1.8008,-1.8008,-1.8008,-1.8008,-1.8008,-1.8008,-1.8008,-1.8008,-1.8008,-1.8008,-1.8008,-1.8008,-1.9453,-1.9268,-1.916,-1.9268,-1.9199,-1.9189,-1.9404,-1.9521,-1.9551,-1.9443,-1.9434,-1.9434,-1.9434,-1.9346,-1.9326,-1.9424,-1.9346,-1.9287,-1.9287,-1.8672,-1.8447,-1.8769,-1.8789,-1.8945,-1.9277,-1.9287,-1.9121,-1.8789,-1.9121,-1.8955,-1.8311,-1.8633,-1.8613,-1.8311,-1.8311,-1.8486,-1.8789,-1.8789,-1.8984,-1.9287,-1.9287,-1.9287,-1.9248,-1.8916,-1.8789,-1.874,-1.8418,-1.8242,-1.8154,-1.8154,-1.8154,-1.8135,-1.8037,-1.8076,-1.8135,-1.8037,-1.8008,-1.8008,-1.8008,-1.8008,-1.8008,-1.8008,-1.8008,-1.7832,-1.7178,-1.6875,-1.6533,-1.5859,-1.5557,-1.5439,-1.5537,-1.5831,-1.6007,-1.5635,0.0,-1.565,-1.5422,-1.539,-1.541,-1.541,-1.541,-1.541,-1.541,-1.541,-1.541,-1.541,-1.541,-1.541,-1.541,-1.541,-1.541,-1.541,-1.5425,-1.6059,-1.7355,-1.7382,-1.7629,-1.8001,-1.7996,-1.8008,-1.8008,-1.8008,-1.8008,-1.8008,-1.8008,-1.8008,-1.8008,-1.8008,-1.8008,-1.8008,-1.8008,-1.8008,-1.8008,-1.8008,-1.8008,-1.8008,-1.9941,-1.9853,-1.9727,-1.9346,-1.959,-1.9844,-1.9863,-2.0215,-2.0322,-1.9922,-1.9873,-1.9873,-1.9873,-1.9521,-1.9443,-1.9834,-1.9512,-1.9287,-1.9287,-1.9228,-1.9209,-1.9238,-1.9238,-1.9248,-1.9287,-1.9287,-1.9268,-1.9238,-1.9268,-1.9258,-1.9189,-1.9219,-1.9219,-1.9189,-1.9189,-1.9209,-1.9238,-1.9238,-1.9258,-1.9287,-1.9287,-1.9287,-1.9287,-1.9248,-1.9238,-1.9238,-1.9209,-1.8936,-1.8594,-1.8594,-1.8594,-1.8525,-1.8135,-1.8281,-1.8516,-1.8125,-1.8008,-1.8008,-1.8008,-1.8008,-1.8008,-1.8008,-1.8008,-1.7988,-1.793,-1.7305,-1.6655,-1.665,-1.5977,-1.5537,-1.5998,-1.5713,-1.5655,-1.6146,0.0,0.0,-1.5527,-1.542,-1.541,-1.541,-1.541,-1.541,-1.541,-1.541,-1.541,-1.541,-1.541,-1.541,-1.541,-1.541,-1.541,-1.541,-1.5425,-1.5434,-1.5613,-1.5606,-1.6421,-1.8001,-1.7996,-1.8008,-1.8008,-1.8008,-1.8008,-1.8008,-1.8008,-1.8008,-1.8008,-1.8008,-1.8008,-1.8008,-1.8008,-1.8008,-1.8008,-1.8008,-1.8008,-1.8008,-2.0352,-2.0312,-2.0264,-2.0107,-2.0215,-2.0312,-2.0312,-2.0459,-2.0508,-2.0342,-2.0312,-2.0312,-2.0312,-2.0176,-2.0146,-2.0303,-2.0176,-2.0078,-2.0078,-2.0078,-1.9961,-1.9687,-1.9932,-2.0078,-2.0078,-2.0078,-1.9941,-1.9678,-1.9941,-1.9814,-1.9297,-1.9561,-1.9541,-1.9287,-1.9287,-1.9434,-1.9678,-1.9678,-1.9834,-2.0078,-2.0078,-2.0078,-2.0049,-1.9775,-1.9678,-1.9639,-1.9375,-1.918,-1.9043,-1.9043,-1.9043,-1.9014,-1.8848,-1.8721,-1.8484,-1.8135,-1.8008,-1.8008,-1.8008,-1.8008,-1.8008,-1.8008,-1.8008,-1.7939,-1.7676,-1.7363,-1.7061,-1.6787,-1.624,-1.5869,-1.6096,-1.5928,-1.579,-1.5776,0.0,-1.6208,-1.5494,-1.542,-1.541,-1.541,-1.541,-1.541,-1.541,-1.541,-1.541,-1.541,-1.541,-1.541,-1.541,-1.541,-1.541,-1.541,-1.541,-1.5419,-1.5419,-1.5392,-1.6296,-1.8022,-1.8031,-1.8008,-1.8008,-1.8008,-1.8008,-1.8008,-1.8008,-1.8008,-1.8008,-1.8008,-1.8008,-1.8008,-1.8008,-1.8008,-1.8008,-1.8008,-1.8008,-1.8008,-2.0566,-2.0566,-2.0566,-2.0566,-2.0566,-2.0566,-2.0566,-2.0566,-2.0566,-2.0566,-2.0566,-2.0566,-2.0566,-2.0566,-2.0566,-2.0566,-2.0566,-2.0566,-2.0566,-2.0566,-2.043,-2.0127,-2.041,-2.0566,-2.0566,-2.0566,-2.042,-2.0117,-2.042,-2.0264,-1.9697,-1.998,-1.9971,-1.9687,-1.9687,-1.9844,-2.0117,-2.0117,-2.0293,-2.0566,-2.0566,-2.0566,-2.0527,-2.0234,-2.0117,-2.0078,-1.9795,-1.96,-1.9482,-1.9482,-1.9482,-1.9463,-1.9326,-1.9082,-1.876,-1.833,-1.8213,-1.8174,-1.8047,-1.8008,-1.8008,-1.8008,-1.8008,-1.7939,-1.7646,-1.748,-1.7256,-1.6826,-1.6377,-1.6125,-1.6125,-1.5947,-1.5819,-1.5635,-1.5858,-1.585,-1.5453,-1.537,-1.541,-1.541,-1.541,-1.541,-1.541,-1.541,-1.541,-1.541,-1.541,-1.541,-1.541,-1.541,-1.541,-1.541,-1.541,-1.541,-1.541,-1.5421,-1.6263,-1.8029,-1.8005,-1.7978,-1.8008,-1.8008,-1.8008,-1.8008,-1.8008,-1.8008,-1.8008,-1.8008,-1.8008,-1.8008,-1.8008,-1.8008,-1.8008,-1.8008,-1.8008,-1.8008,-2.0566,-2.0566,-2.0566,-2.0566,-2.0566,-2.0566,-2.0566,-2.0566,-2.0566,-2.0566,-2.0566,-2.0566,-2.0566,-2.0566,-2.0566,-2.0566,-2.0566,-2.0566,-2.0566,-2.0566,-2.0566,-2.0566,-2.0566,-2.0566,-2.0566,-2.0566,-2.0566,-2.0566,-2.0566,-2.0566,-2.0566,-2.0566,-2.0566,-2.0566,-2.0566,-2.0566,-2.0566,-2.0566,-2.0566,-2.0566,-2.0566,-2.0566,-2.0566,-2.0566,-2.0566,-2.0566,-2.0566,-2.0283,-1.9922,-1.9922,-1.9922,-1.9844,-1.9424,-1.9287,-1.9209,-1.8769,-1.8562,-1.8545,-1.8125,-1.8008,-1.8008,-1.8008,-1.8008,-1.8008,-1.8008,-1.7686,-1.7266,-1.6836,-1.6387,-1.6125,-1.6125,-1.5703,-1.5557,-1.6047,-1.5693,-1.541,-1.541,-1.541,-1.541,-1.541,-1.541,-1.541,-1.541,-1.541,-1.541,-1.541,-1.541,-1.541,-1.541,-1.541,-1.541,-1.541,-1.541,-1.541,-1.541,-1.5374,-1.6289,-1.7965,-1.7971,-1.7972,-1.8008,-1.8008,-1.8008,-1.8008,-1.8008,-1.8008,-1.8008,-1.8008,-1.8008,-1.8008,-1.8008,-1.8008,-1.8008,-1.8008,-1.8008,-1.8134,-2.0566,-2.0566,-2.0566,-2.0566,-2.0566,-2.0566,-2.0566,-2.0566,-2.0566,-2.0566,-2.0566,-2.0566,-2.0566,-2.0566,-2.0566,-2.0566,-2.0566,-2.0566,-2.0566,-2.0566,-2.0566,-2.0566,-2.0566,-2.0566,-2.0566,-2.0566,-2.0566,-2.0566,-2.0566,-2.0566,-2.0566,-2.0566,-2.0566,-2.0566,-2.0566,-2.0566,-2.0566,-2.0566,-2.0566,-2.0566,-2.0566,-2.0566,-2.0566,-2.0566,-2.0566,-2.0566,-2.0566,-2.0478,-2.0371,-2.0371,-2.0371,-2.0293,-1.9863,-1.9727,-1.958,-1.8848,-1.8562,-1.8545,-1.8125,-1.8008,-1.8008,-1.8008,-1.8008,-1.8008,-1.8008,-1.791,-1.7783,-1.7656,-1.7041,-1.6533,-1.6533,-1.5918,-1.5459,-1.5586,-1.5498,-1.541,-1.541,-1.541,-1.541,-1.541,-1.541,-1.541,-1.541,-1.541,-1.541,-1.541,-1.541,-1.541,-1.541,-1.541,-1.541,-1.541,-1.541,-1.541,-1.541,-1.5831,-1.6273,-1.6831,-1.7642,-1.7988,-1.8008,-1.8008,-1.8008,-1.8008,-1.8008,-1.8008,-1.8008,-1.8008,-1.8008,-1.8008,-1.8008,-1.8008,-1.8008,-1.8008,-1.8008,-1.8134,-2.0566,-2.0566,-2.0566,-2.0566,-2.0566,-2.0566,-2.0566,-2.0566,-2.0566,-2.0566,-2.0566,-2.0566,-2.0566,-2.0566,-2.0566,-2.0566,-2.0566,-2.0566,-2.0566,-2.0566,-2.0566,-2.0566,-2.0566,-2.0566,-2.0566,-2.0566,-2.0566,-2.0566,-2.0566,-2.0566,-2.0566,-2.0566,-2.0566,-2.0566,-2.0566,-2.0566,-2.0566,-2.0566,-2.0566,-2.0566,-2.0566,-2.0566,-2.0566,-2.0566,-2.0566,-2.0566,-2.0566,-2.0566,-2.0566,-2.0566,-2.0566,-2.0518,-2.0254,-2.0176,-2.001,-1.915,-1.8896,-1.8769,-1.8174,-1.8008,-1.8008,-1.8008,-1.8008,-1.8008,-1.8008,-1.8008,-1.7959,-1.7803,-1.7353,-1.6943,-1.6758,-1.6152,-1.5674,-1.5674,-1.5527,-1.541,-1.541,-1.541,-1.541,-1.541,-1.541,-1.541,-1.541,-1.541,-1.541,-1.541,-1.541,-1.541,-1.541,-1.541,-1.541,-1.541,-1.541,-1.541,-1.541,-1.6127,-1.65,-1.6592,-1.7341,-1.7782,-1.8008,-1.8008,-1.8008,-1.8008,-1.8008,-1.8008,-1.8008,-1.8008,-1.8008,-1.8008,-1.8008,-1.8008,-1.8008,-1.8008,-1.8008,-1.8134,-2.0566,-2.0566,-2.0566,-2.0566,-2.0566,-2.0566,-2.0566,-2.0566,-2.0566,-2.0566,-2.0566,-2.0566,-2.0566,-2.0566,-2.0566,-2.0566,-2.0566,-2.0566,-2.0566,-2.0566,-2.0566,-2.0566,-2.0566,-2.0566,-2.0566,-2.0566,-2.0566,-2.0566,-2.0566,-2.0566,-2.0566,-2.0566,-2.0566,-2.0566,-2.0566,-2.0566,-2.0566,-2.0566,-2.0566,-2.0566,-2.0566,-2.0566,-2.0566,-2.0566,-2.0566,-2.0566,-2.0566,-2.0566,-2.0566,-2.0566,-2.0566,-2.0566,-2.0566,-2.0566,-2.04,-1.958,-1.9316,-1.9111,-1.8291,-1.8037,-1.8008,-1.8008,-1.8008,-1.8008,-1.8008,-1.8008,-1.79,-1.7519,-1.7412,-1.7256,-1.6865,-1.6426,-1.6123,-1.6123,-1.5752,-1.5469,-1.5469,-1.5439,-1.541,-1.541,-1.541,-1.541,-1.541,-1.541,-1.541,-1.541,-1.541,-1.541,-1.541,-1.541,-1.541,-1.541,-1.541,-1.543,-1.5469,-1.6269,-1.6792,-1.708,-1.7149,-1.7445,-1.8008,-1.8008,-1.8008,-1.8008,-1.8008,-1.8008,-1.8008,-1.8008,-1.8008,-1.8008,-1.8008,-1.8008,-1.8008,-1.8008,-1.8008,-1.8269,-2.0566,-2.0566,-2.0566,-2.0566,-2.0566,-2.0566,-2.0566,-2.0566,-2.0566,-2.0566,-2.0566,-2.0566,-2.0566,-2.0566,-2.0566,-2.0566,-2.0566,-2.0566,-2.0566,-2.0566,-2.0566,-2.0566,-2.0566,-2.0566,-2.0566,-2.0566,-2.0566,-2.0566,-2.0566,-2.0566,-2.0566,-2.0566,-2.0566,-2.0566,-2.0566,-2.0566,-2.0566,-2.0566,-2.0566,-2.0566,-2.0566,-2.0566,-2.0566,-2.0566,-2.0566,-2.0566,-2.0566,-2.0566,-2.0566,-2.0566,-2.0566,-2.0566,-2.0566,-2.0566,-2.0459,-1.9932,-1.9541,-1.917,-1.8643,-1.8262,-1.8008,-1.8008,-1.8008,-1.8008,-1.8008,-1.8008,-1.7978,-1.7891,-1.7607,-1.7353,-1.7256,-1.6885,-1.6592,-1.6592,-1.6211,-1.5918,-1.5918,-1.5625,-1.541,-1.541,-1.541,-1.541,-1.541,-1.541,-1.541,-1.541,-1.541,-1.541,-1.541,-1.541,-1.541,-1.541,-1.541,-1.5576,-1.5918,-1.6113,-1.6396,-1.6758,-1.7497,-1.7842,-1.8008,-1.8008,-1.8008,-1.8008,-1.8008,-1.8008,-1.8008,-1.8008,-1.8008,-1.8008,-1.8008,-1.8008,-1.8008,-1.8008,-1.8008,-1.8269,-2.0489,-2.0566,-2.0566,-2.0566,-2.0566,-2.0566,-2.0566,-2.0566,-2.0566,-2.0566,-2.0566,-2.0566,-2.0566,-2.0566,-2.0566,-2.0566,-2.0566,-2.0566,-2.0566,-2.0566,-2.0566,-2.0566,-2.0566,-2.0566,-2.0566,-2.0566,-2.0566,-2.0566,-2.0566,-2.0566,-2.0566,-2.0566,-2.0566,-2.0566,-2.0566,-2.0566,-2.0566,-2.0566,-2.0566,-2.0566,-2.0566,-2.0566,-2.0566,-2.0566,-2.0566,-2.0566,-2.0566,-2.0566,-2.0566,-2.0566,-2.0566,-2.0566,-2.0566,-2.0566,-2.0478,-2.0049,-1.9619,-1.9189,-1.876,-1.833,-1.8008,-1.8008,-1.8008,-1.8008,-1.8008,-1.8008,-1.8008,-1.8008,-1.7832,-1.7686,-1.7686,-1.7334,-1.7041,-1.7041,-1.667,-1.6309,-1.6154,-1.5869,-1.5644,-1.5439,-1.541,-1.541,-1.541,-1.541,-1.541,-1.541,-1.541,-1.541,-1.541,-1.541,-1.541,-1.541,-1.538,-1.5662,-1.6205,-1.6465,-1.6724,-1.7051,-1.75,-1.7812,-1.8008,-1.8008,-1.8008,-1.8008,-1.8008,-1.8008,-1.8008,-1.8008,-1.8008,-1.8008,-1.8008,-1.8008,-1.8008,-1.8008,-1.8269,-1.8787,-2.0079,-2.0323,-2.0401,-2.0566,-2.0566,-2.0566,-2.0566,-2.0566,-2.0566,-2.0566,-2.0566,-2.0566,-2.0566,-2.0566,-2.0566,-2.0566,-2.0566,-2.0566,-2.0566,-2.0566,-2.0566,-2.0566,-2.0566,-2.0566,-2.0566,-2.0566,-2.0566,-2.0566,-2.0566,-2.0566,-2.0566,-2.0566,-2.0566,-2.0566,-2.0566,-2.0566,-2.0566,-2.0566,-2.0566,-2.0566,-2.0566,-2.0566,-2.0566,-2.0566,-2.0566,-2.0566,-2.0566,-2.0566,-2.0566,-2.0566,-2.0566,-2.0566,-2.0566,-2.0566,-2.0498,-2.0127,-1.9727,-1.9316,-1.8955,-1.8496,-1.8115,-1.8115,-1.8057,-1.8008,-1.8008,-1.8008,-1.8008,-1.8008,-1.8008,-1.8008,-1.8008,-1.7725,-1.749,-1.749,-1.7129,-1.6719,-1.6338,-1.6221,-1.6016,-1.5576,-1.5459,-1.541,-1.541,-1.541,-1.5439,-1.5527,-1.5459,-1.54,-1.5399,-1.541,-1.54,-1.5399,-1.5419,-1.5718,-1.6441,-1.6844,-1.7242,-1.749,-1.749,-1.7676,-1.8008,-1.8008,-1.8008,-1.8008,-1.8008,-1.8008,-1.8008,-1.8008,-1.8008,-1.8008,-1.8008,-1.8008,-1.8008,-1.8008,-1.8529,-1.9431,-1.8957,-1.9204,-1.952,-2.0401,-2.0566,-2.0566,-2.0566,-2.0566,-2.0566,-2.0566,-2.0566,-2.0566,-2.0566,-2.0566,-2.0566,-2.0566,-2.0566,-2.0566,-2.0566,-2.0566,-2.0566,-2.0566,-2.0566,-2.0566,-2.0566,-2.0566,-2.0566,-2.0566,-2.0566,-2.0566,-2.0566,-2.0566,-2.0566,-2.0566,-2.0566,-2.0566,-2.0566,-2.0566,-2.0566,-2.0566,-2.0566,-2.0566,-2.0566,-2.0566,-2.0566,-2.0566,-2.0566,-2.0566,-2.0566,-2.0566,-2.0566,-2.0566,-2.0566,-2.0566,-2.0557,-2.0498,-2.0166,-1.9814,-1.9756,-1.916,-1.8555,-1.8555,-1.8281,-1.8008,-1.8008,-1.8008,-1.8008,-1.8008,-1.8008,-1.8008,-1.8008,-1.7969,-1.793,-1.793,-1.7568,-1.7275,-1.7207,-1.6875,-1.6475,-1.6025,-1.5644,-1.541,-1.541,-1.541,-1.5635,-1.6167,-1.5704,-1.5427,-1.5383,-1.5378,-1.5421,-1.5401,-1.5394,-1.5907,-1.7009,-1.706,-1.7387,-1.793,-1.793,-1.7959,-1.8008,-1.8008,-1.8008,-1.8008,-1.8008,-1.8008,-1.8008,-1.8008,-1.8008,-1.8008,-1.8008,-1.8008,-1.8008,-1.8008,-1.8529,-1.9431,-1.7819,-1.8559,-1.9125,-1.9599,-2.0167,-2.0566,-2.0566,-2.0566,-2.0566,-2.0566,-2.0566,-2.0566,-2.0566,-2.0566,-2.0566,-2.0566,-2.0566,-2.0566,-2.0566,-2.0566,-2.0566,-2.0566,-2.0566,-2.0566,-2.0566,-2.0566,-2.0566,-2.0566,-2.0566,-2.0566,-2.0566,-2.0566,-2.0566,-2.0566,-2.0566,-2.0566,-2.0566,-2.0566,-2.0566,-2.0566,-2.0566,-2.0566,-2.0566,-2.0566,-2.0566,-2.0566,-2.0566,-2.0566,-2.0566,-2.0566,-2.0566,-2.0566,-2.0566,-2.0566,-2.0566,-2.0566,-2.0254,-1.9912,-1.9912,-1.9287,-1.8562,-1.8562,-1.832,-1.8008,-1.8008,-1.8008,-1.8008,-1.8008,-1.8008,-1.8008,-1.8008,-1.8008,-1.8008,-1.8008,-1.7852,-1.7656,-1.7422,-1.7217,-1.6934,-1.6494,-1.6045,-1.5869,-1.6123,-1.5918,-1.5947,-1.6243,-1.6341,-1.6075,-1.5404,-1.6307,-1.6862,-1.6831,-1.6879,-1.7103,-1.7629,-1.7607,-1.7735,-1.8008,-1.8008,-1.8008,-1.8008,-1.8008,-1.8008,-1.8008,-1.8008,-1.8008,-1.8008,-1.8008,-1.8008,-1.8008,-1.8008,-1.8008,-1.8076,-1.8529,-1.8977,-1.9497]}]]